[[{"header":{"parameterUnit":"m.s-1","parameterCategory":1,"la1":30.6,"la2":28.766,"lo1":-90.7593,"lo2":-88.6598,"dx":0.0162,"dy":0.0183,"nx":116,"ny":114,"refTime":"2023-01-06T18:00:00:Z","depth":0,"parameterNumber":2,"parameterNumberName":"U-component_of_WINDS"},"data":[0.0,0.0,0.0,0.0,0.0,0.0,0.0,0.0,0.0,0.0,0.0,0.0,0.0,0.0,0.0,0.0,0.0,0.0,0.0,0.0,0.0,0.0,0.0,0.0,0.0,0.0,0.0,0.0,0.0,0.0,0.0,0.0,0.0,0.0,0.0,0.0,0.0,0.0,0.0,0.0,0.0,0.0,0.0,0.0,0.0,0.0,0.0,0.0,0.0,0.0,0.0,0.0,0.0,0.0,0.0,0.0,0.0,0.0,0.0,0.0,0.0,0.0,0.0,0.0,0.0,0.0,0.0,0.0,0.0,0.0,0.0,0.0,0.0,0.0,0.0,0.0,0.0,0.0,0.0,0.0,0.0,0.0,0.0,0.0,0.0,0.0,0.0,0.0,0.0,0.0,0.0,0.0,0.0,0.0,0.0,0.0,0.0,0.0,0.0,0.0,0.0,0.0,0.0,0.0,0.0,0.0,0.0,0.0,0.0,0.0,0.0,0.0,0.0,0.0,0.0,0.0,0.0,0.0,0.0,0.0,0.0,0.0,0.0,0.0,0.0,0.0,0.0,0.0,0.0,0.0,0.0,0.0,0.0,0.0,0.0,0.0,0.0,0.0,0.0,0.0,0.0,0.0,0.0,0.0,0.0,0.0,0.0,0.0,0.0,0.0,0.0,0.0,0.0,0.0,0.0,0.0,0.0,0.0,0.0,0.0,0.0,0.0,0.0,0.0,0.0,0.0,0.0,0.0,0.0,0.0,0.0,0.0,0.0,0.0,0.0,0.0,0.0,0.0,0.0,0.0,0.0,0.0,0.0,0.0,0.0,0.0,0.0,0.0,0.0,0.0,0.0,0.0,0.0,0.0,0.0,0.0,0.0,0.0,0.0,0.0,0.0,0.0,0.0,0.0,0.0,0.0,0.0,0.0,0.0,0.0,0.0,0.0,0.0,0.0,0.0,0.0,0.0,0.0,0.0,0.0,0.0,0.0,0.0,0.0,0.0,0.0,0.0,0.0,0.0,0.0,0.0,0.0,0.0,0.0,0.0,0.0,0.0,0.0,0.0,0.0,0.0,0.0,0.0,0.0,0.0,0.0,0.0,0.0,0.0,0.0,0.0,0.0,0.0,0.0,0.0,0.0,0.0,0.0,0.0,0.0,0.0,0.0,0.0,0.0,0.0,0.0,0.0,0.0,0.0,0.0,0.0,0.0,0.0,0.0,0.0,0.0,0.0,0.0,0.0,0.0,0.0,0.0,0.0,0.0,0.0,0.0,0.0,0.0,0.0,0.0,0.0,0.0,0.0,0.0,0.0,0.0,0.0,0.0,0.0,0.0,0.0,0.0,0.0,0.0,0.0,0.0,0.0,0.0,0.0,0.0,0.0,0.0,0.0,0.0,0.0,0.0,0.0,0.0,0.0,0.0,0.0,0.0,0.0,0.0,0.0,0.0,0.0,0.0,0.0,0.0,0.0,0.0,0.0,0.0,0.0,0.0,0.0,0.0,0.0,0.0,0.0,0.0,0.0,0.0,0.0,0.0,0.0,0.0,0.0,0.0,0.0,0.0,0.0,0.0,0.0,0.0,0.0,0.0,0.0,0.0,0.0,0.0,0.0,0.0,0.0,0.0,0.0,0.0,0.0,0.0,0.0,0.0,0.0,0.0,0.0,0.0,0.0,0.0,0.0,0.0,0.0,0.0,0.0,0.0,0.0,0.0,0.0,0.0,0.0,0.0,0.0,0.0,0.0,0.0,0.0,0.0,0.0,0.0,0.0,0.0,0.0,0.0,0.0,0.0,0.0,0.0,0.0,0.0,0.0,0.0,0.0,0.0,0.0,0.0,0.0,0.0,0.0,0.0,0.0,0.0,0.0,0.0,0.0,0.0,0.0,0.0,0.0,0.0,0.0,0.0,0.0,0.0,0.0,0.0,0.0,0.0,0.0,0.0,0.0,0.0,0.0,0.0,0.0,0.0,0.0,0.0,0.0,0.0,0.0,0.0,0.0,0.0,0.0,0.0,0.0,0.0,0.0,0.0,0.0,0.0,0.0,0.0,0.0,0.0,0.0,0.0,0.0,0.0,0.0,0.0,0.0,0.0,0.0,0.0,0.0,0.0,0.0,0.0,0.0,0.0,0.0,0.0,0.0,0.0,0.0,0.0,0.0,0.0,0.0,0.0,0.0,0.0,0.0,0.0,0.0,0.0,0.0,0.0,0.0,0.0,0.0,0.0,0.0,0.0,0.0,0.0,0.0,0.0,0.0,0.0,0.0,0.0,0.0,0.0,0.0,0.0,0.0,0.0,0.0,0.0,0.0,0.0,0.0,0.0,0.0,0.0,0.0,0.0,0.0,0.0,0.0,0.0,0.0,0.0,0.0,0.0,0.0,0.0,0.0,0.0,0.0,0.0,0.0,0.0,0.0,0.0,0.0,0.0,0.0,0.0,0.0,0.0,0.0,0.0,0.0,0.0,0.0,0.0,0.0,0.0,0.0,0.0,0.0,0.0,0.0,0.0,0.0,0.0,0.0,0.0,0.0,0.0,0.0,0.0,0.0,0.0,0.0,0.0,0.0,0.0,0.0,0.0,0.0,0.0,0.0,0.0,0.0,0.0,0.0,0.0,0.0,0.0,0.0,0.0,0.0,0.0,0.0,0.0,0.0,0.0,0.0,0.0,0.0,0.0,0.0,0.0,0.0,0.0,0.0,0.0,0.0,0.0,0.0,0.0,0.0,0.0,0.0,0.0,0.0,0.0,0.0,0.0,0.0,0.0,0.0,0.0,0.0,0.0,0.0,0.0,0.0,0.0,0.0,0.0,0.0,0.0,0.0,0.0,0.0,0.0,0.0,0.0,0.0,0.0,0.0,0.0,0.0,0.0,0.0,0.0,0.0,0.0,0.0,0.0,0.0,0.0,0.0,0.0,0.0,0.0,0.0,0.0,0.0,0.0,0.0,0.0,0.0,0.0,0.0,0.0,0.0,0.0,0.0,0.0,0.0,0.0,0.0,0.0,0.0,0.0,0.0,0.0,0.0,0.0,0.0,0.0,0.0,0.0,0.0,0.0,0.0,0.0,0.0,0.0,0.0,0.0,0.0,0.0,0.0,0.0,0.0,0.0,0.0,0.0,0.0,0.0,0.0,0.0,0.0,0.0,0.0,0.0,0.0,0.0,0.0,0.0,0.0,0.0,0.0,0.0,0.0,0.0,0.0,0.0,0.0,0.0,0.0,0.0,0.0,0.0,0.0,0.0,0.0,0.0,0.0,0.0,0.0,0.0,0.0,0.0,0.0,0.0,0.0,0.0,0.0,0.0,0.0,0.0,0.0,0.0,0.0,0.0,0.0,0.0,0.0,0.0,0.0,0.0,0.0,0.0,0.0,0.0,0.0,0.0,0.0,0.0,0.0,0.0,0.0,0.0,0.0,0.0,0.0,0.0,0.0,0.0,0.0,0.0,0.0,0.0,0.0,0.0,0.0,0.0,0.0,0.0,0.0,0.0,0.0,0.0,0.0,0.0,0.0,0.0,0.0,0.0,0.0,0.0,0.0,0.0,0.0,0.0,0.0,0.0,0.0,0.0,0.0,0.0,0.0,0.0,0.0,0.0,0.0,0.0,0.0,0.0,0.0,0.0,0.0,0.0,0.0,0.0,0.0,0.0,0.0,0.0,0.0,0.0,0.0,0.0,0.0,0.0,0.0,0.0,0.0,0.0,0.0,0.0,0.0,0.0,0.0,0.0,0.0,0.0,0.0,0.0,0.0,0.0,0.0,0.0,0.0,0.0,0.0,0.0,0.0,0.0,0.0,0.0,0.0,0.0,0.0,0.0,0.0,0.0,0.0,0.0,0.0,0.0,0.0,0.0,0.0,0.0,0.0,0.0,0.0,0.0,0.0,0.0,0.0,0.0,0.0,0.0,0.0,0.0,0.0,0.0,0.0,0.0,0.0,0.0,0.0,0.0,0.0,0.0,0.0,0.0,0.0,0.0,0.0,0.0,0.0,0.0,0.0,0.0,0.0,0.0,0.0,0.0,0.0,0.0,0.0,0.0,0.0,0.0,0.0,0.0,0.0,0.0,0.0,0.0,0.0,0.0,0.0,0.0,0.0,0.0,0.0,0.0,0.0,0.0,0.0,0.0,0.0,0.0,0.0,0.0,0.0,0.0,0.0,0.0,0.0,0.0,0.0,0.0,0.0,0.0,0.0,0.0,0.0,0.0,0.0,0.0,0.0,0.0,0.0,0.0,0.0,0.0,0.0,0.0,0.0,0.0,0.0,0.0,0.0,0.0,0.0,0.0,0.0,0.0,0.0,0.0,0.0,0.0,0.0,0.0,0.0,0.0,0.0,0.0,0.0,0.0,0.0,0.0,0.0,0.0,0.0,0.0,0.0,0.0,0.0,0.0,0.0,0.0,0.0,0.0,0.0,0.0,0.0,0.0,0.0,0.0,0.0,0.0,0.0,0.0,0.0,0.0,0.0,0.0,0.0,0.0,0.0,0.0,0.0,0.0,0.0,0.0,0.0,0.0,0.0,0.0,0.0,0.0,0.0,0.0,0.0,0.0,0.0,0.0,0.0,0.0,0.0,0.0,0.0,0.0,0.0,0.0,0.0,0.0,0.0,0.0,0.0,0.0,0.0,0.0,0.0,0.0,0.0,0.0,0.0,0.0,0.0,0.0,0.0,0.0,0.0,0.0,0.0,0.0,0.0,0.0,0.0,0.0,0.0,0.0,0.0,0.0,0.0,0.0,0.0,0.0,0.0,0.0,0.0,0.0,0.0,0.0,0.0,0.0,0.0,0.0,0.0,0.0,0.0,0.0,0.0,0.0,0.0,0.0,0.0,0.0,0.0,0.0,0.0,0.0,0.0,0.0,0.0,0.0,0.0,0.0,0.0,0.0,0.0,0.0,0.0,0.0,0.0,0.0,0.0,0.0,0.0,0.0,0.0,0.0,0.0,0.0,0.0,0.0,0.0,0.0,0.0,0.0,0.0,0.0,0.0,0.0,0.0,0.0,0.0,0.0,0.0,0.0,0.0,0.0,0.0,0.0,0.0,0.0,0.0,0.0,0.0,0.0,0.0,0.0,0.0,0.0,0.0,0.0,0.0,0.0,0.0,0.0,0.0,0.0,0.0,0.0,0.0,0.0,0.0,0.0,0.0,0.0,0.0,0.0,0.0,0.0,0.0,0.0,0.0,0.0,0.0,0.0,0.0,0.0,0.0,0.0,0.0,0.0,0.0,0.0,0.0,0.0,0.0,0.0,0.0,0.0,0.0,0.0,0.0,0.0,0.0,0.0,0.0,0.0,0.0,0.0,0.0,0.0,0.0,0.0,0.0,0.0,0.0,0.0,0.0,0.0,0.0,0.0,0.0,0.0,0.0,0.0,0.0,0.0,0.0,0.0,0.0,0.0,0.0,0.0,0.0,0.0,0.0,0.0,0.0,0.0,0.0,0.0,0.0,0.0,0.0,0.0,0.0,0.0,0.0,0.0,0.0,0.0,0.0,0.0,0.0,0.0,0.0,0.0,0.0,0.0,0.0,0.0,0.0,0.0,0.0,0.0,0.0,0.0,0.0,0.0,0.0,0.0,0.0,0.0,0.0,0.0,0.0,0.0,0.0,0.0,0.0,0.0,0.0,0.0,0.0,0.0,0.0,0.0,0.0,0.0,0.0,0.0,0.0,0.0,0.0,0.0,0.0,0.0,0.0,0.0,0.0,0.0,0.0,0.0,0.0,0.0,0.0,0.0,0.0,0.0,0.0,0.0,0.0,0.0,0.0,0.0,0.0,0.0,0.0,0.0,0.0,0.0,0.0,0.0,0.0,0.0,0.0,0.0,0.0,0.0,0.0,0.0,0.0,0.0,0.0,0.0,0.0,0.0,0.0,0.0,0.0,0.0,0.0,0.0,0.0,0.0,0.0,0.0,0.0,0.0,0.0,0.0,0.0,0.0,0.0,0.0,0.0,0.0,0.0,0.0,0.0,0.0,0.0,0.0,0.0,0.0,0.0,0.0,0.0,0.0,0.0,0.0,0.0,0.0,0.0,0.0,0.0,0.0,0.0,0.0,0.0,0.0,0.0,0.0,0.0,0.0,0.0,0.0,0.0,0.0,0.0,0.0,-1.8873,0.0,0.0,0.0,0.0,0.0,0.0,0.0,0.0,0.0,0.0,0.0,0.0,0.0,0.0,0.0,0.0,0.0,0.0,0.0,0.0,0.0,0.0,0.0,0.0,0.0,0.0,0.0,0.0,0.0,0.0,0.0,0.0,0.0,0.0,0.0,0.0,0.0,-1.032,-1.1481,-1.1906,-1.313,-1.5071,-1.3862,-1.2915,-1.2162,0.0,0.0,0.0,0.0,0.0,0.0,0.0,0.0,0.0,0.0,0.0,0.0,0.0,0.0,0.0,0.0,0.0,0.0,0.0,0.0,0.0,0.0,0.0,0.0,0.0,0.0,0.0,0.0,0.0,0.0,0.0,0.0,0.0,0.0,0.0,0.0,0.0,0.0,0.0,0.0,0.0,0.0,0.0,0.0,0.0,0.0,0.0,0.0,0.0,0.0,0.0,0.0,0.0,0.0,0.0,0.0,0.0,0.0,0.0,0.0,0.0,0.0,0.0,0.0,0.0,0.0,0.0,0.0,0.0,0.0,0.0,-1.9658,0.0,0.0,0.0,0.0,0.0,0.0,0.0,0.0,0.0,0.0,0.0,0.0,0.0,0.0,0.0,0.0,0.0,0.0,0.0,0.0,0.0,0.0,0.0,-1.0327,-1.0385,-1.0538,-1.0404,-1.0327,0.0,0.0,0.0,0.0,0.0,0.0,-0.9798,-0.9872,-1.1021,-1.3298,-1.4143,-1.5655,-1.7759,-1.7812,-1.7164,-1.582,-1.326,0.0,0.0,0.0,0.0,0.0,0.0,0.0,0.0,0.0,0.0,0.0,0.0,0.0,0.0,0.0,0.0,0.0,0.0,0.0,0.0,0.0,0.0,0.0,0.0,0.0,0.0,0.0,0.0,0.0,0.0,0.0,0.0,0.0,0.0,0.0,0.0,0.0,0.0,0.0,0.0,0.0,0.0,0.0,0.0,0.0,0.0,0.0,0.0,0.0,0.0,0.0,0.0,0.0,0.0,0.0,0.0,0.0,0.0,0.0,0.0,0.0,0.0,0.0,0.0,-2.0692,-2.1019,-2.1019,-2.1766,-2.2996,-2.172,-2.1889,-2.2859,0.0,0.0,0.0,0.0,0.0,0.0,0.0,0.0,0.0,0.0,0.0,0.0,0.0,0.0,0.0,0.0,0.0,0.0,0.0,0.0,0.0,0.0,-1.1233,-1.1524,-1.2296,-1.1678,-1.1233,-1.1233,0.0,0.0,0.0,0.0,0.0,-0.9798,-1.0414,-1.1581,-1.3298,-1.7509,-2.0097,-2.1151,-2.1168,-2.1048,-2.0741,-1.7607,-1.623,-1.6076,0.0,0.0,0.0,0.0,0.0,0.0,0.0,0.0,0.0,0.0,0.0,0.0,0.0,0.0,0.0,0.0,0.0,0.0,0.0,0.0,0.0,0.0,0.0,0.0,0.0,0.0,0.0,0.0,0.0,0.0,0.0,0.0,0.0,0.0,0.0,0.0,0.0,0.0,0.0,0.0,0.0,-1.7881,-1.8876,0.0,0.0,0.0,0.0,0.0,0.0,0.0,0.0,0.0,0.0,0.0,0.0,0.0,0.0,-1.9462,-2.0904,-2.1754,-2.1998,-2.3556,-2.4396,-2.462,-2.462,-2.4735,-2.4928,-2.4726,0.0,-2.3845,-2.2821,0.0,0.0,0.0,0.0,0.0,0.0,0.0,0.0,0.0,0.0,0.0,0.0,0.0,0.0,0.0,0.0,0.0,0.0,0.0,0.0,0.0,-1.2522,-1.3154,-1.4022,-1.368,-1.3041,-1.2126,-1.1601,0.0,0.0,0.0,-1.0491,-1.0412,-1.2054,-1.4383,-1.7344,-2.0868,-2.2776,-2.3153,-2.3153,-2.3051,-2.2807,-2.1398,-1.9593,-1.7516,-1.5986,0.0,0.0,0.0,0.0,0.0,0.0,0.0,0.0,0.0,0.0,0.0,0.0,0.0,0.0,0.0,0.0,0.0,0.0,0.0,0.0,0.0,0.0,0.0,0.0,0.0,0.0,0.0,0.0,0.0,0.0,0.0,0.0,0.0,0.0,0.0,0.0,0.0,0.0,0.0,-1.7871,-1.872,-1.9462,-1.9506,-1.9097,0.0,0.0,0.0,0.0,0.0,0.0,0.0,0.0,0.0,-2.0656,-2.0773,-2.1268,-2.2205,-2.3124,-2.3658,-2.3834,-2.4618,-2.5105,-2.5308,-2.5308,-2.5308,-2.5308,-2.5308,-2.5096,-2.4721,-2.391,-2.2875,-2.1725,0.0,0.0,0.0,0.0,0.0,-2.0293,0.0,0.0,0.0,0.0,0.0,0.0,0.0,0.0,0.0,0.0,0.0,0.0,-1.3219,-1.4033,-1.4839,-1.5709,-1.5449,-1.476,-1.3552,-1.2742,-1.1731,-1.0476,-1.0793,-1.1062,-1.1209,-1.4181,-1.7392,-2.0823,-2.3088,-2.419,-2.419,-2.4103,-2.3937,-2.3692,-2.3599,-2.2012,-1.9327,-1.8104,-1.6548,-1.4826,0.0,0.0,0.0,0.0,0.0,0.0,0.0,0.0,0.0,0.0,0.0,0.0,0.0,0.0,0.0,0.0,0.0,0.0,0.0,0.0,0.0,0.0,0.0,0.0,0.0,0.0,0.0,0.0,0.0,0.0,0.0,0.0,0.0,0.0,0.0,0.0,0.0,-1.8604,-1.9394,-1.9892,-2.0018,-1.9668,0.0,0.0,0.0,0.0,0.0,0.0,-1.9812,-1.9947,-2.0785,-2.2441,-2.2632,-2.3319,-2.4567,-2.4756,-2.4904,-2.501,-2.5046,-2.5157,-2.5308,-2.5308,-2.5308,-2.5308,-2.5308,-2.5308,-2.525,-2.4639,-2.3936,-2.3163,-2.2576,-2.1878,-2.1296,-2.2206,-2.2129,-2.1875,0.0,0.0,0.0,0.0,0.0,0.0,0.0,0.0,0.0,0.0,0.0,-1.3258,-1.4904,-1.5669,-1.6442,-1.7316,-1.6498,-1.5931,-1.5837,-1.362,-1.2225,-1.2088,-1.1399,-1.1321,-1.2026,-1.6653,-1.994,-2.1721,-2.3391,-2.419,-2.419,-2.3858,-2.3714,-2.3682,-2.3369,-2.3118,-2.2781,-2.0453,-1.9389,-1.8976,-1.5401,0.0,0.0,0.0,0.0,0.0,0.0,0.0,0.0,0.0,0.0,0.0,0.0,0.0,0.0,0.0,0.0,0.0,0.0,0.0,0.0,0.0,0.0,0.0,0.0,0.0,0.0,0.0,0.0,0.0,0.0,0.0,0.0,0.0,0.0,0.0,0.0,0.0,0.0,-1.9807,-2.0091,0.0,0.0,0.0,0.0,-1.9572,-2.0559,-2.1526,-2.2273,-2.2793,-2.3473,-2.4337,-2.4554,-2.4695,-2.4782,-2.4911,-2.4998,-2.501,-2.5179,-2.5279,-2.5308,-2.5308,-2.5308,-2.5308,-2.5308,-2.5308,-2.5308,-2.5269,-2.4799,-2.4134,-2.4098,-2.3655,-2.3164,-2.3984,-2.4258,-2.4355,0.0,0.0,0.0,-1.0094,-1.0094,-1.0094,-1.0094,-1.0577,-1.1041,-1.137,-1.3099,-1.4707,-1.5723,-1.7062,-1.8384,-1.9639,-1.9351,-1.8871,-1.8354,-1.6403,-1.5242,-1.5238,-1.444,-1.5386,-1.8287,-2.0031,-2.1702,-2.3336,-2.3914,-2.4094,-2.3886,-2.3764,-2.3459,-2.3057,-2.2935,-2.2776,-2.2582,-2.2113,-2.1024,-1.9481,-1.813,-1.5976,0.0,0.0,0.0,0.0,0.0,0.0,0.0,0.0,0.0,0.0,0.0,0.0,0.0,0.0,0.0,0.0,0.0,0.0,0.0,0.0,0.0,0.0,0.0,0.0,0.0,0.0,0.0,0.0,0.0,0.0,0.0,0.0,0.0,0.0,0.0,0.0,0.0,-2.0526,-2.0689,0.0,-2.0237,-2.1033,-2.1358,-2.086,-2.1876,-2.2645,-2.293,-2.3459,-2.3977,-2.4476,-2.478,-2.4936,-2.4936,-2.5094,-2.5179,-2.5179,-2.5264,-2.5308,-2.5308,-2.5308,-2.5308,-2.5308,-2.5308,-2.5317,-2.5352,-2.5352,-2.5217,-2.4972,-2.5065,-2.4953,-2.4777,-2.5117,-2.5234,-2.5273,0.0,0.0,0.0,-1.0094,-1.0094,-1.0094,-1.0094,-1.0848,-1.1598,-1.2173,-1.4231,-1.6013,-1.7034,-1.8643,-2.0014,-2.0916,-2.1136,-2.0834,-1.9963,-1.8271,-1.7183,-1.6908,-1.664,-1.8177,-2.1721,-2.2069,-2.285,-2.419,-2.419,-2.4084,-2.3858,-2.3649,-2.3282,-2.286,-2.2665,-2.2463,-2.2338,-2.2738,-2.1962,-2.0466,-2.0024,-1.8186,-1.565,0.0,0.0,0.0,0.0,0.0,0.0,0.0,0.0,0.0,0.0,0.0,0.0,0.0,0.0,0.0,0.0,0.0,0.0,0.0,0.0,0.0,0.0,0.0,0.0,0.0,0.0,0.0,0.0,0.0,0.0,0.0,0.0,0.0,0.0,0.0,-2.0524,-2.0884,-2.1065,-2.1123,-2.1038,-2.1691,-2.2047,-2.19,-2.2716,-2.3276,-2.3461,-2.3978,-2.4391,-2.4655,-2.4943,-2.5099,-2.5099,-2.5224,-2.5308,-2.5308,-2.5308,-2.5308,-2.5308,-2.5317,-2.5335,-2.533,-2.5354,-2.5395,-2.5441,-2.5468,-2.5474,-2.5482,-2.5561,-2.5607,-2.5636,-2.5683,-2.5703,-2.5703,0.0,0.0,-1.0094,-1.0094,-1.0094,-1.0094,-1.0094,-1.0867,-1.2022,-1.3687,-1.5442,-1.718,-1.8853,-2.0383,-2.1241,-2.1079,-2.1674,-2.1622,-2.0637,-1.9062,-1.7832,-1.7055,-1.7832,-1.9418,-2.1812,-2.2648,-2.341,-2.419,-2.419,-2.419,-2.417,-2.3522,-2.32,-2.3153,-2.2571,-2.231,-2.2296,-2.2296,-2.2296,-2.2189,-2.0887,-1.987,-1.8916,0.0,0.0,0.0,0.0,0.0,0.0,0.0,0.0,0.0,0.0,0.0,0.0,0.0,0.0,0.0,0.0,0.0,0.0,0.0,0.0,0.0,0.0,0.0,0.0,0.0,0.0,0.0,0.0,0.0,0.0,0.0,0.0,0.0,-1.9587,-2.0301,-2.0833,-2.0835,-2.1271,-2.1534,-2.1534,-2.2027,-2.244,-2.2695,-2.3033,-2.3439,-2.3969,-2.45,-2.4869,-2.5004,-2.5203,-2.5308,-2.5308,-2.5308,-2.5308,-2.5293,-2.5293,-2.5293,-2.5303,-2.5368,-2.5394,-2.5409,-2.5479,-2.5493,-2.5517,-2.5567,-2.5602,-2.5603,-2.5603,-2.5637,-2.5703,-2.5703,-2.5703,-2.5703,-1.0308,-1.0094,-1.0094,-1.0094,-1.0094,-1.0094,-1.0094,-1.1389,-1.2716,-1.3764,-1.5923,-1.7979,-1.9551,-2.0676,-2.1671,-2.2589,-2.2846,-2.2757,-2.2345,-2.0768,-1.974,-1.9512,-2.1455,-2.2832,-2.3538,-2.3749,-2.3988,-2.419,-2.419,-2.4074,-2.3827,-2.366,-2.3294,-2.2835,-2.266,-2.2473,-2.2296,-2.2296,-2.2296,-2.2276,-2.1908,-2.1028,-1.9911,0.0,0.0,0.0,0.0,0.0,0.0,0.0,0.0,0.0,0.0,0.0,0.0,0.0,0.0,0.0,0.0,0.0,0.0,0.0,0.0,0.0,0.0,0.0,0.0,0.0,0.0,0.0,0.0,0.0,0.0,0.0,0.0,-2.0026,-2.0108,-2.0668,-2.1289,-2.181,-2.2169,-2.237,-2.237,-2.2718,-2.2977,-2.3057,-2.338,-2.3691,-2.3978,-2.45,-2.4869,-2.5004,-2.5203,-2.5308,-2.5308,-2.5308,-2.5312,-2.5375,-2.5375,-2.5398,-2.545,-2.5454,-2.5463,-2.5463,-2.5484,-2.5535,-2.5567,-2.5598,-2.5633,-2.5662,-2.5662,-2.5683,-2.5703,-2.5703,-2.5703,-2.5703,-1.0231,-1.0094,-1.0094,-1.0094,-1.0094,-1.0094,-1.0094,-1.1581,-1.312,-1.4286,-1.6349,-1.8443,-2.0416,-2.1407,-2.2321,-2.3296,-2.3724,-2.3532,-2.2565,-2.1245,-2.0814,-2.152,-2.2933,-2.3859,-2.419,-2.419,-2.419,-2.419,-2.419,-2.4094,-2.3907,-2.3774,-2.35,-2.3105,-2.2835,-2.2612,-2.2463,-2.2349,-2.2296,-2.2296,-2.2296,-2.1837,-2.1105,-2.0781,-1.9969,-1.8898,-1.818,-1.7733,-1.7419,-1.6817,0.0,0.0,0.0,0.0,0.0,0.0,0.0,0.0,0.0,0.0,0.0,0.0,0.0,0.0,0.0,0.0,0.0,0.0,0.0,0.0,0.0,0.0,0.0,0.0,-2.0379,-2.1315,-2.1315,-2.161,-2.1994,-2.2426,-2.2725,-2.291,-2.291,-2.3081,-2.3247,-2.3403,-2.366,-2.3967,-2.4324,-2.4678,-2.4956,-2.5111,-2.5248,-2.5308,-2.5308,-2.5308,-2.533,-2.5406,-2.5406,-2.5434,-2.5491,-2.5537,-2.5547,0.0,-2.5566,-2.5604,-2.5636,-2.5636,-2.5661,0.0,0.0,0.0,0.0,0.0,-2.5703,-2.5703,-1.0288,-1.0288,-1.0288,-1.025,-1.0173,-1.0094,-1.0094,-1.1581,-1.3296,-1.4981,-1.6657,-1.8719,-2.137,-2.2331,-2.3035,-2.3623,-2.437,-2.3982,-2.2067,-2.1208,-2.1447,-2.2933,-2.3098,-2.3474,-2.4171,-2.419,-2.419,-2.419,-2.419,-2.419,-2.419,-2.3896,-2.3742,-2.3671,-2.3081,-2.2797,-2.2733,-2.2504,-2.2391,-2.2349,-2.2349,-2.2338,-2.2243,-2.1566,-2.1433,-2.139,-1.9838,-1.9545,-1.966,-1.8083,0.0,0.0,0.0,0.0,0.0,0.0,0.0,0.0,0.0,0.0,0.0,0.0,0.0,0.0,0.0,0.0,0.0,0.0,0.0,0.0,0.0,0.0,0.0,0.0,-2.1675,-2.2721,-2.2759,-2.2797,-2.281,-2.2759,-2.3057,-2.3265,-2.3265,-2.3317,-2.3464,-2.3777,-2.3976,-2.4296,-2.4792,0.0,0.0,0.0,0.0,-2.5308,-2.5308,-2.5303,-2.5337,-2.5408,-2.5418,-2.5465,-2.5513,-2.5573,-2.5606,-2.5607,-2.5662,-2.5703,-2.5703,-2.5703,-2.5703,-2.5703,-2.5703,-2.5703,-2.5703,-2.5703,-2.5703,0.0,-1.1475,-1.1475,-1.1395,-1.1197,-1.0577,-1.0094,-1.0094,-1.1581,-1.3296,-1.4981,-1.6657,-1.895,-2.2201,-2.2701,-2.3328,-2.4593,-2.4774,-2.4218,-2.2859,-2.2602,-2.2657,-2.2988,-2.3621,-2.4043,-2.419,-2.419,-2.419,-2.419,-2.419,-2.419,-2.419,-2.4123,-2.3966,-2.3692,-2.3566,-2.3357,-2.3105,-2.3051,-2.2865,-2.2621,-2.2621,-2.2487,-2.2279,-2.2127,-2.2101,-2.2109,-2.1766,-2.1705,-2.1757,-2.1625,-2.0964,-2.0228,-2.0322,-1.9545,0.0,0.0,0.0,0.0,0.0,0.0,0.0,0.0,0.0,0.0,0.0,0.0,0.0,0.0,0.0,0.0,0.0,0.0,0.0,-2.0635,-2.1829,-2.2797,-2.3069,-2.3335,-2.3403,-2.3129,-2.3403,-2.3599,-2.3599,-2.3984,-2.4284,-2.4347,-2.453,-2.4733,-2.4949,-2.4992,0.0,-2.5284,-2.5308,-2.5308,-2.5308,-2.5354,-2.5411,-2.5473,0.0,0.0,-2.5661,-2.5662,-2.5683,-2.5683,-2.5683,-2.5703,-2.5703,-2.5703,-2.5703,-2.5703,-2.5703,-2.5703,-2.5703,-2.5703,-2.5703,-2.5703,-1.2851,-1.2529,-1.2204,-1.2065,-1.1697,-1.1408,-1.1408,-1.2483,-1.3907,-1.5638,-1.7314,-1.9315,-2.187,-2.2158,-2.2412,-2.3029,-2.2884,-2.2839,-2.3083,-2.3042,-2.3171,-2.3584,-2.3988,-2.419,-2.419,-2.419,-2.419,-2.419,-2.419,-2.419,-2.419,-2.419,-2.4103,-2.3937,-2.3756,-2.3617,-2.3437,-2.3259,-2.3105,-2.296,-2.296,-2.2865,-2.2725,-2.2415,-2.2296,-2.2324,-2.245,-2.25,-2.2527,-2.2643,-2.2391,-2.2027,-2.221,-2.1622,-2.0715,0.0,0.0,0.0,0.0,0.0,0.0,0.0,0.0,0.0,0.0,0.0,0.0,0.0,0.0,-1.9073,0.0,0.0,-2.1278,-2.168,-2.2576,-2.3287,-2.3552,-2.3886,-2.3943,-2.3493,-2.3753,-2.3998,-2.4088,-2.4347,-2.4545,-2.4639,-2.4814,-2.4936,-2.5004,-2.5094,-2.5203,-2.5303,-2.5308,-2.5308,-2.5308,-2.5371,-2.5434,-2.551,-2.6014,-2.6299,-2.6367,-2.6797,-2.6992,-2.6992,-2.6992,-2.6992,-2.6992,-2.6992,-2.6992,-2.6992,-2.6992,-2.6465,-2.5703,-2.5703,-2.5703,-2.5703,-1.411,-1.3637,-1.3123,-1.2969,-1.2796,-1.2702,-1.2702,-1.3385,-1.4459,-1.6042,-1.7699,-1.9334,-2.0846,-2.1173,-2.1256,-2.1197,-2.1117,-2.1667,-2.3105,-2.3259,-2.3557,-2.4171,-2.419,-2.419,-2.419,-2.419,-2.419,-2.419,-2.419,-2.419,-2.419,-2.419,-2.419,-2.418,-2.3917,-2.3795,-2.3785,-2.3511,-2.3357,-2.33,-2.33,-2.3247,-2.3159,-2.266,-2.2467,-2.2508,-2.2712,-2.2797,-2.2784,-2.2721,-2.2954,-2.3253,-2.3212,-2.2975,-2.2504,-2.1498,-2.0853,0.0,0.0,0.0,0.0,0.0,0.0,0.0,0.0,0.0,-1.8747,-1.8985,-1.9531,-2.0131,-2.0607,-2.1468,-2.2277,-2.273,-2.3311,-2.3801,-2.4062,-2.4327,-2.4346,-2.3973,-2.4145,-2.4384,-2.4534,-2.4583,-2.4666,-2.4828,-2.4981,-2.5071,-2.5071,-2.5214,-2.5308,-2.5308,-2.5308,-2.5308,-2.5308,-2.5387,-2.5525,-2.5766,-2.655,-2.7045,-2.7285,-2.7988,-2.8301,-2.8301,-2.8301,-2.8301,-2.8301,-2.8301,-2.8301,-2.8301,-2.8301,-2.7441,-2.6211,-2.6211,-2.6211,-2.6211,-1.4901,-1.4981,-1.4673,-1.3901,-1.3176,-1.2702,-1.2702,-1.3385,-1.4244,-1.5212,-1.6792,-1.8215,-1.9169,-1.9981,-2.0638,-2.1154,-2.1863,-2.2558,-2.3159,-2.3913,-2.4291,-2.4199,-2.419,-2.419,-2.419,-2.419,-2.419,-2.419,-2.419,-2.419,-2.419,-2.419,-2.419,-2.419,-2.4161,-2.4151,-2.4151,-2.4103,-2.3917,-2.3631,-2.3631,-2.3477,-2.3189,-2.3135,-2.3111,-2.3093,-2.3129,-2.3141,-2.3105,-2.281,-2.3035,-2.344,-2.3264,-2.3289,-2.3238,-2.253,-2.2019,-2.1234,-1.9063,-1.7962,-1.746,-1.7537,-1.8075,-1.8825,0.0,0.0,-2.0013,-2.103,-2.1301,-2.1516,-2.1995,-2.2378,-2.273,-2.3088,-2.3466,-2.3862,-2.4363,-2.4486,-2.4543,-2.4666,-2.4704,-2.4746,-2.4768,-2.4858,-2.4943,-2.498,-2.5152,-2.5269,-2.5269,-2.5298,-2.5308,-2.5308,-2.5308,-2.5308,-2.5308,-2.5421,-2.5875,-2.6668,-2.6883,-2.7402,-2.8164,-2.8262,-2.8301,-2.8301,-2.8301,-2.8301,-2.8301,-2.8301,-2.8301,-2.8301,-2.8301,-2.8184,-2.8008,-2.8008,-2.8008,-2.8008,-1.5038,-1.4786,-1.4497,-1.4632,-1.4385,-1.4157,-1.4157,-1.4442,-1.4978,-1.5849,-1.6968,-1.7834,-1.8196,-1.8157,-1.8386,-1.9094,-2.0313,-2.1544,-2.2721,-2.3869,-2.4461,-2.4375,-2.4257,-2.419,-2.419,-2.419,-2.419,-2.419,-2.419,-2.419,-2.419,-2.419,-2.419,-2.419,-2.419,-2.419,-2.419,-2.419,-2.4113,-2.3996,-2.3996,-2.3907,-2.3785,-2.3785,-2.3785,-2.3764,-2.3555,-2.35,0.0,-2.3335,-2.3441,-2.3599,-2.3515,-2.3225,-2.2945,-2.3045,-2.2551,-2.1776,-2.0937,-1.9955,-1.918,0.0,-1.9643,-2.0062,-2.0357,-2.0662,-2.1102,-2.1863,-2.2003,-2.2115,-2.2473,-2.2776,-2.3105,0.0,-2.3774,-2.4145,-2.4615,-2.467,-2.479,-2.5068,-2.5091,-2.5043,-2.493,-2.4968,-2.5046,-2.5163,-2.5259,-2.5308,-2.5308,-2.5308,-2.5308,-2.5308,-2.5308,-2.5558,-2.6101,-2.6203,-2.6704,-2.7613,-2.8238,-2.8691,-2.9062,-2.957,-2.9805,-2.9805,-2.9805,-2.9805,-2.9805,-2.9805,-2.9805,-2.9805,-2.9805,-2.9805,-2.9687,-2.8672,-2.8301,-2.8301,-1.5077,-1.4689,-1.4459,-1.5096,-1.5192,-1.5192,-1.5192,-1.5192,-1.5423,-1.6061,-1.6853,-1.7372,-1.7372,-1.6638,-1.6465,-1.7295,-1.9024,-2.067,-2.2054,-2.3702,-2.462,-2.4575,-2.4435,-2.433,-2.4284,-2.4348,-2.4312,-2.419,-2.4266,-2.4247,-2.419,-2.419,-2.419,-2.419,-2.419,-2.419,-2.419,-2.419,-2.419,-2.419,-2.419,-2.419,-2.419,-2.419,-2.4209,-2.4144,-2.3672,-2.3648,-2.3731,-2.2966,-2.3213,-2.3702,-2.2937,-2.2543,-2.2447,-2.3057,-2.2455,-2.1604,-2.1646,-2.1024,0.0,-2.0489,-2.0831,-2.1067,-2.0715,-2.1054,-2.1582,-2.213,-2.2245,-2.2381,-2.2759,-2.3105,-2.3414,-2.366,-2.4027,-2.441,-2.4753,-2.4828,-2.4968,-2.5259,-2.5308,-2.5234,-2.5099,-2.5088,-2.5146,-2.5298,-2.5308,-2.5308,-2.5308,-2.5308,-2.5404,-2.5654,-2.5678,-2.6131,-2.7044,-2.714,-2.7647,-2.8573,-2.9275,-2.9726,-2.998,-3.0605,-3.0898,-3.0898,-3.0898,-3.0898,-3.0898,-3.0898,-3.0898,-3.0898,-3.0898,-3.0898,-3.0742,-2.9473,-2.9023,-2.9023,-1.5192,-1.5173,-1.5173,-1.5192,-1.5192,-1.5192,-1.5192,-1.5192,-1.5212,-1.5231,-1.6003,-1.6545,-1.6545,-1.5753,-1.5596,-1.6465,-1.8846,-2.0553,-2.1192,-2.3589,-2.4936,-2.4797,-2.479,-2.4693,-2.4495,-2.4685,-2.4583,-2.419,-2.4401,-2.4393,-2.419,-2.419,-2.419,-2.419,-2.419,-2.419,-2.419,-2.419,-2.419,-2.419,-2.419,-2.419,-2.419,-2.419,-2.421,-2.41,-2.3309,-2.3511,-2.3778,-2.1115,-2.199,-2.3713,-2.1051,-2.0989,-2.2003,-2.2417,-2.1586,-2.0477,-2.0153,-2.0052,-2.0084,-2.043,-2.1055,-2.1476,-2.1086,-2.0991,-2.1228,-2.1955,-2.211,-2.233,-2.3052,-2.3448,-2.3692,-2.3692,-2.4145,-2.4551,-2.4775,-2.4917,-2.5077,-2.5274,-2.5308,-2.5303,0.0,-2.5284,-2.5284,-2.5308,-2.5308,-2.5308,-2.5308,-2.5308,-2.5692,-2.6524,-2.6625,-2.709,-2.7954,-2.8095,-2.8591,-2.9452,-2.9568,-3.0039,-3.0859,-3.0898,-3.0898,-3.0898,-3.0898,-3.0898,-3.0898,-3.0898,-3.0898,-3.0898,-3.0898,-3.0898,-3.0898,-3.084,-3.082,-3.082,-1.5192,-1.5192,-1.5192,-1.5192,-1.5192,-1.5192,-1.5192,-1.5192,-1.5404,-1.5984,-1.6776,0.0,0.0,0.0,0.0,0.0,-1.7773,-1.9158,-2.051,-2.2323,-2.3572,-2.4113,-2.4558,-2.4768,-2.47,-2.4631,-2.4591,-2.4591,-2.4401,-2.441,-2.461,-2.4461,-2.4401,-2.4401,-2.4401,-2.4312,-2.419,-2.419,-2.419,-2.419,-2.419,-2.419,-2.4263,-2.4787,-2.3749,-2.2025,0.0,-2.1649,-2.0936,-2.0904,-2.1351,-2.1895,-2.1584,-2.1343,-2.1135,-2.096,-2.0845,-2.0804,-2.0946,-2.0664,-2.0484,-2.1083,-2.1383,-2.1576,-2.1694,-2.1907,-2.2208,-2.272,-2.2825,-2.2961,-2.3437,-2.361,-2.3774,-2.3996,-2.4293,-2.4559,-2.4775,-2.4923,-2.5063,-2.5274,-2.5308,0.0,0.0,0.0,0.0,-2.5308,-2.5308,-2.5308,-2.5308,-2.5846,-2.6288,-2.6601,-2.7239,-2.8011,-2.8919,-2.9014,-2.9518,-3.0427,-3.0449,-3.0625,-3.0898,-3.0898,-3.0898,-3.0898,-3.0898,-3.0898,-3.0898,-3.0898,-3.0898,-3.0898,-3.0898,-3.0898,-3.0898,-3.0898,-3.0838,-3.0771,0.0,-1.6099,-1.6003,-1.5712,-1.5654,0.0,0.0,0.0,0.0,0.0,0.0,0.0,0.0,0.0,0.0,0.0,0.0,-1.818,-1.9292,-2.0842,-2.2234,-2.3391,-2.3564,-2.3885,-2.444,-2.4077,-2.4042,-2.4337,-2.4081,-2.4246,-2.4797,-2.4528,-2.4426,-2.4495,-2.4418,-2.433,-2.419,-2.419,-2.452,-2.5016,-2.4428,-2.4669,-2.526,-2.465,-2.3079,0.0,-1.9691,-1.8757,-1.8267,-1.9038,-1.9724,-2.0274,-2.0294,-2.0487,-2.0604,-2.0101,-2.0398,-2.096,-2.1298,-2.1142,-2.1065,-2.1804,-2.2051,-2.2184,-2.2434,-2.2651,-2.2914,-2.3305,-2.3155,-2.3137,-2.3762,-2.364,-2.364,-2.4211,-2.472,-2.4997,-2.4893,-2.5278,-2.5502,-2.5317,-2.5308,-2.5308,0.0,0.0,0.0,-2.5308,-2.5308,-2.5442,-2.575,-2.6288,-2.6871,-2.7467,-2.8147,-2.8926,-2.9811,-2.9931,-3.0309,-3.0898,-3.0898,-3.0898,-3.0898,-3.0898,-3.0898,-3.0898,-3.0898,-3.0898,-3.0898,-3.0898,-3.0898,-3.0898,-3.0898,-3.0878,-3.0836,-3.0836,-3.0764,-3.0677,0.0,0.0,-1.7468,0.0,0.0,0.0,0.0,0.0,0.0,0.0,0.0,0.0,0.0,0.0,0.0,0.0,0.0,0.0,-1.7641,-1.9234,-2.0927,-2.2605,-2.1927,-2.2216,-2.3713,-2.3127,-2.3004,-2.345,-2.3493,-2.3941,-2.4762,-2.4399,-2.433,-2.4512,-2.4321,-2.4218,-2.419,-2.419,-2.5052,-2.63,-2.4797,-2.5381,-2.6809,-2.3695,-2.2133,-2.0997,-1.6388,-1.5346,-1.6114,-1.5949,-1.7488,-1.9173,-1.7612,-1.8705,-2.0448,-1.9909,-2.0318,-2.1009,-2.1191,-2.1455,-2.1848,-2.256,-2.2996,-2.3247,-2.3247,-2.3271,-2.3356,-2.3631,-2.3084,-2.2856,0.0,0.0,-2.3335,-2.4292,-2.5286,-2.5733,-2.5082,-2.5883,-2.6231,0.0,0.0,0.0,0.0,0.0,0.0,-2.5308,0.0,-2.5673,-2.6544,-2.664,-2.7409,-2.905,-2.9326,-2.9827,-3.0583,-3.0807,-3.0898,-3.0898,-3.0898,-3.0898,-3.0898,-3.0898,-3.0898,-3.0898,-3.0898,-3.0898,-3.0898,-3.0898,-3.0898,-3.0898,-3.0898,-3.0816,-3.0717,-3.0717,-3.0669,-3.06,0.0,0.0,0.0,0.0,0.0,0.0,0.0,0.0,0.0,0.0,0.0,0.0,0.0,0.0,0.0,0.0,0.0,0.0,-1.6756,-1.7776,-1.9138,-2.0869,-2.1293,-2.1987,-2.3036,-2.2732,-2.2712,-2.2977,-2.3329,-2.3765,-2.429,-2.4626,-2.478,-2.4723,-2.467,-2.4478,-2.419,-2.419,-2.4098,-2.3924,-2.4116,-2.4059,-2.3639,-2.1975,-2.0266,-1.8695,-1.8231,-1.7486,-1.6885,-1.8174,-1.9874,-2.1323,-2.0578,-2.0746,-2.1152,-2.0662,-2.1081,-2.1723,-2.1774,-2.2277,-2.2835,-2.3029,-2.345,-2.3802,-2.3802,-2.4118,-2.4232,-2.3678,-2.3312,-2.3021,0.0,0.0,0.0,-2.3705,-2.459,0.0,-2.5018,-2.536,0.0,-2.5327,0.0,-2.5308,-2.5308,-2.5308,0.0,0.0,-2.5308,-2.5673,-2.6544,-2.7217,-2.8049,-2.9069,-2.9833,-3.0346,-3.0603,-3.0807,-3.0898,-3.0898,-3.0898,-3.0898,-3.0898,-3.0898,-3.0898,-3.0898,-3.0898,-3.0898,-3.0898,-3.0898,-3.0898,-3.0898,-3.0898,-3.0879,-3.0857,-3.0857,-3.0768,-3.068,0.0,0.0,0.0,0.0,0.0,0.0,0.0,0.0,0.0,0.0,0.0,0.0,0.0,0.0,0.0,0.0,0.0,0.0,0.0,-1.6349,-1.7369,-1.9081,-1.9254,-1.9888,-2.1119,-2.064,-2.1004,-2.2235,-2.1676,-2.2321,-2.4086,-2.3505,-2.3436,-2.3796,-2.3697,-2.3525,-2.3343,-2.3535,-2.3657,0.0,0.0,-2.3033,-2.3243,-2.142,-1.9471,-1.7742,-1.8122,-1.8034,-1.7995,-1.9357,-2.048,-2.1285,-2.1379,-2.1314,-2.1175,-2.1123,-2.1533,-2.2047,-2.2253,-2.2858,-2.343,-2.3527,-2.389,-2.4144,-2.3842,-2.4016,-2.3983,-2.3114,-2.2586,-2.2269,-2.2207,-2.256,0.0,0.0,0.0,0.0,-2.5168,-2.555,-2.5731,0.0,-2.5308,0.0,-2.5308,-2.5308,-2.5308,0.0,-2.5308,-2.5846,-2.7101,-2.7621,-2.8429,-2.9621,-3.0202,-3.0556,-3.0631,-3.0812,-3.0898,-3.0898,-3.0898,-3.0898,-3.0898,-3.0898,-3.0898,-3.0898,0.0,-3.0898,-3.0898,-3.0898,-3.0898,-3.0898,-3.0898,-3.0858,-3.0815,-3.0815,-3.074,-3.0663,0.0,0.0,0.0,0.0,0.0,0.0,0.0,0.0,0.0,0.0,-1.7334,-1.7699,-1.7699,-1.7083,0.0,0.0,0.0,0.0,0.0,0.0,-1.608,-1.7622,-1.7141,-1.7561,-1.9131,-1.8311,-1.8969,-2.1177,-1.9538,-2.035,-2.3394,-2.1694,-2.1423,-2.2315,-2.2155,-2.2115,-2.2224,-2.2517,-2.3225,-2.3938,-2.1835,-2.2155,-2.3609,0.0,-1.9364,-1.7887,-1.741,-1.7977,-1.9092,-2.002,-2.0416,-2.0637,-2.1291,-2.1302,-2.1136,-2.1534,-2.1895,-2.2265,-2.2711,-2.33,-2.3819,-2.3976,-2.4282,-2.4361,-2.3651,-2.3539,-2.3308,-2.2312,-2.1538,-2.1224,-2.1834,-2.2168,-2.2634,-2.3511,0.0,-2.5954,-2.5384,-2.5942,-2.6154,-2.5385,-2.5308,-2.5308,-2.5308,-2.5404,-2.5481,-2.5481,-2.5577,-2.6288,-2.7818,-2.8011,-2.8775,-3.0346,-3.0472,-3.0558,-3.0686,-3.0814,-3.0879,-3.0898,-3.0898,-3.0898,-3.0898,-3.0898,-3.0898,-3.0898,0.0,0.0,-3.0898,-3.0898,-3.0898,-3.0898,-3.0898,-3.0836,-3.0721,-3.0721,-3.0698,-3.0633,0.0,0.0,0.0,0.0,0.0,0.0,0.0,0.0,0.0,0.0,-1.8068,-1.7699,0.0,0.0,0.0,0.0,0.0,0.0,0.0,0.0,0.0,-1.7661,-1.8261,-1.9046,-2.0058,-1.9219,-1.8992,-1.9434,-1.9112,-1.927,-1.9896,-2.0244,-2.0781,-2.1409,-2.1382,-2.1677,-2.2152,-2.1582,-2.1437,-2.1613,-2.1519,-2.1132,-2.0559,-1.9989,0.0,0.0,-1.8982,-1.9028,-1.9465,-2.0992,-2.2016,-2.2645,-2.2509,-2.2409,-2.2394,-2.2482,-2.273,-2.3076,-2.3424,-2.3816,-2.4123,-2.4162,-2.4459,-2.4527,-2.3686,-2.3756,0.0,-2.1952,-2.1411,-2.1122,-2.0703,-2.1678,-2.2642,-2.2935,-2.437,-2.5431,-2.5322,-2.5423,-2.5462,0.0,-2.5308,-2.5308,-2.5308,-2.5942,0.0,0.0,0.0,0.0,-2.7876,-2.853,-2.9352,-3.0365,-3.0472,-3.0541,-3.0623,-3.0703,-3.0793,-3.0898,-3.0898,-3.0898,-3.0898,-3.0898,-3.0898,-3.0898,0.0,0.0,-3.0898,-3.0898,-3.0898,-3.0898,-3.0898,-3.0898,-3.0878,-3.0878,-3.0857,-3.0856,0.0,0.0,0.0,0.0,0.0,0.0,0.0,-1.8126,-1.8992,-2.0739,-2.1012,-2.0527,-1.9196,-1.8238,-1.7872,0.0,0.0,0.0,0.0,0.0,0.0,-1.768,-1.8103,-1.8526,-1.8946,-1.8546,-1.8776,-1.9681,0.0,-1.9004,-2.0296,-1.9835,-2.0026,-2.0728,-2.0728,-2.0656,-2.0486,-1.9632,-1.9535,-1.9959,-1.9893,-1.9887,-1.9871,-1.9687,0.0,0.0,-1.8721,-1.8857,-1.9282,-2.0498,-2.1716,-2.2796,-2.3117,-2.3105,-2.296,-2.296,-2.32,-2.35,-2.366,-2.3937,-2.4228,-2.4339,-2.4575,-2.4478,-2.3259,-2.3203,0.0,-2.1235,-2.0824,-2.0687,-2.0357,-2.1246,-2.2192,-2.2712,-2.3855,-2.4812,-2.525,-2.5308,-2.5308,-2.5308,-2.5308,-2.5308,-2.5308,-2.6096,0.0,0.0,0.0,0.0,-2.853,-2.9313,-2.9967,-3.0385,-3.0472,-3.0533,-3.0603,-3.0671,-3.0769,-3.0898,-3.0898,-3.0898,-3.0898,-3.0898,-3.0898,-3.0898,-3.0898,0.0,-3.0898,-3.0898,-3.0898,-3.0898,-3.0898,-3.0898,-3.0898,-3.0898,-3.0898,-3.0898,0.0,0.0,0.0,0.0,0.0,0.0,0.0,-1.93,-2.045,-2.3004,-2.3932,-2.3528,-2.135,-1.9715,-1.8911,0.0,0.0,0.0,0.0,0.0,0.0,0.0,0.0,0.0,-1.8257,0.0,0.0,-2.0023,-1.8469,0.0,0.0,0.0,0.0,0.0,-1.9831,-1.9561,-1.92,-1.797,-1.8143,0.0,0.0,-1.8924,0.0,0.0,0.0,0.0,0.0,-1.8669,-1.9159,-1.9982,-2.1043,-2.2181,-2.3083,-2.3328,-2.3276,-2.3294,-2.3482,-2.3714,-2.3795,-2.3996,-2.4237,-2.4401,-2.4602,-2.4322,-2.2785,-2.2587,-2.2277,-2.065,-2.0308,-2.0308,-2.0308,-2.0962,-2.1793,-2.2663,-2.3528,-2.4375,-2.5192,-2.5308,-2.5308,-2.5308,-2.5308,0.0,-2.5308,-2.625,0.0,0.0,0.0,0.0,-2.9371,-3.0019,-3.0404,-3.0404,-3.0472,-3.0533,-3.0603,-3.0671,-3.0769,-3.0898,-3.0898,-3.0898,-3.0898,-3.0898,-3.0898,-3.0898,-3.0898,0.0,0.0,-3.0898,-3.0898,-3.0898,-3.0898,-3.0898,-3.0898,-3.0898,-3.0898,-3.0898,0.0,0.0,0.0,0.0,0.0,0.0,0.0,-2.0296,-2.2177,-2.475,-2.5135,-2.4812,-2.3855,-2.2893,-2.1754,0.0,0.0,0.0,0.0,0.0,0.0,0.0,0.0,0.0,0.0,0.0,0.0,-1.9126,-1.8161,0.0,0.0,0.0,0.0,0.0,0.0,-1.8773,-2.0019,-1.7638,0.0,0.0,0.0,0.0,0.0,0.0,0.0,0.0,0.0,-1.9339,-1.9664,-2.0463,-2.0905,-2.1253,-2.207,-2.2866,-2.3498,-2.3624,-2.3682,-2.3774,-2.4074,-2.417,-2.4199,-2.4218,-2.4375,-2.4121,-2.259,-2.2374,-2.2099,-2.061,-2.0308,-2.0308,-2.0308,-2.0962,-2.1793,-2.2663,-2.3528,-2.4375,-2.5192,-2.5308,-2.5308,-2.5308,0.0,0.0,-2.5308,0.0,0.0,0.0,0.0,0.0,0.0,-3.0365,-3.0404,-3.0404,-3.0472,-3.0533,-3.0603,-3.0671,-3.0769,-3.0898,-3.0898,-3.0898,-3.0898,-3.0898,-3.0898,-3.0898,0.0,0.0,0.0,-3.0898,-3.0898,-3.0898,-3.0898,-3.0898,-3.0898,-3.0898,-3.0898,-3.0898,0.0,0.0,0.0,0.0,0.0,0.0,-2.0041,-2.0665,-2.204,-2.5625,-2.5624,-2.4995,-2.4193,-2.3788,-2.2701,-2.0481,0.0,0.0,0.0,0.0,0.0,0.0,0.0,0.0,0.0,0.0,-2.0508,-2.0508,-2.0158,0.0,0.0,0.0,0.0,0.0,0.0,-1.8427,-1.8657,-1.7304,0.0,0.0,0.0,0.0,0.0,0.0,0.0,0.0,0.0,0.0,-1.9665,-2.0069,-2.0645,-2.1229,-2.1413,-2.2128,-2.2992,-2.345,-2.3868,-2.4201,-2.4338,-2.4384,-2.4384,-2.4384,-2.4596,-2.4375,-2.2741,-2.2544,-2.223,-2.0627,-2.0308,-2.0308,-2.0308,-2.0558,-2.1216,-2.2586,-2.3086,-2.3778,-2.5115,-2.5308,-2.5308,-2.5308,-2.5308,0.0,0.0,0.0,0.0,0.0,0.0,0.0,0.0,-3.0417,-3.0431,-3.0457,-3.0495,-3.0544,-3.0665,-3.0687,-3.0769,-3.0898,-3.0898,-3.0898,-3.0898,-3.0898,-3.0898,-3.0898,0.0,0.0,0.0,-3.0898,-3.0898,-3.0898,-3.0898,-3.0898,-3.0898,-3.0814,-3.1169,-3.1679,0.0,0.0,0.0,0.0,0.0,-1.7555,-2.0331,-2.0911,-2.2299,-2.5765,-2.569,-2.5071,-2.4509,-2.378,-2.2717,-2.1174,-2.0796,0.0,0.0,0.0,0.0,0.0,0.0,0.0,0.0,0.0,-2.1504,-2.1504,-2.1758,-2.1754,0.0,0.0,0.0,0.0,0.0,0.0,0.0,0.0,0.0,0.0,0.0,0.0,0.0,0.0,0.0,0.0,0.0,0.0,0.0,0.0,0.0,-2.0977,-2.0831,-2.1439,-2.2372,-2.3245,-2.3825,-2.4249,-2.4527,-2.4583,-2.4583,-2.4583,-2.4759,-2.4505,-2.2873,-2.2602,-2.2244,-2.0627,-2.0308,-2.0308,-2.0308,-2.0292,-2.0854,-2.2539,-2.2824,-2.3418,-2.509,-2.5313,-2.5308,-2.5308,0.0,-2.5321,0.0,0.0,0.0,0.0,0.0,0.0,0.0,-3.0446,-3.0462,-3.0525,-3.0559,-3.0595,-3.0695,-3.0744,-3.0814,-3.0898,-3.0898,-3.0898,-3.0898,-3.0898,-3.0898,-3.0898,0.0,0.0,0.0,-3.0898,-3.0898,-3.0898,-3.0898,-3.1055,-3.1269,-3.1184,-3.1734,-3.2538,0.0,0.0,0.0,0.0,0.0,0.0,-1.8815,-2.117,-2.3396,-2.5081,-2.5307,-2.529,-2.5284,-2.304,-2.1856,-2.2697,-2.1991,0.0,0.0,0.0,0.0,0.0,0.0,0.0,0.0,0.0,-2.1504,-2.1504,-2.2363,-2.2344,-2.1504,-2.1486,-2.1062,-2.025,0.0,0.0,0.0,0.0,0.0,0.0,0.0,0.0,0.0,0.0,0.0,0.0,0.0,0.0,0.0,0.0,0.0,0.0,0.0,-2.0865,-2.1774,-2.3107,-2.3498,-2.3693,-2.4563,-2.4797,-2.4797,-2.4797,-2.4804,-2.4405,-2.2844,-2.2498,-2.2083,-2.061,-2.0308,-2.0308,-2.0308,-2.0311,-2.0875,-2.263,-2.2908,-2.3478,-2.5162,-2.5344,-2.5308,0.0,0.0,-2.5398,0.0,0.0,0.0,0.0,0.0,0.0,0.0,-3.0467,-3.0529,-3.06,-3.0669,-3.0695,-3.0695,-3.0837,-3.0898,-3.0898,-3.0898,-3.0898,-3.0898,-3.0898,-3.0898,0.0,0.0,0.0,0.0,-3.0898,-3.0898,-3.0898,-3.0898,-3.1426,-3.2187,-3.2187,-3.2695,-3.3398,0.0,0.0,0.0,0.0,0.0,0.0,0.0,-2.057,-2.1688,-2.3371,-2.3063,-2.2936,-2.3529,-2.2335,-2.1856,-2.2717,-2.2006,0.0,0.0,0.0,0.0,0.0,0.0,0.0,0.0,-2.1955,-2.2686,-2.3278,-2.3549,-2.3554,-2.3246,-2.2055,-2.1366,-2.1069,-1.9619,-1.8951,0.0,0.0,0.0,0.0,0.0,0.0,0.0,0.0,0.0,0.0,0.0,0.0,0.0,0.0,0.0,0.0,0.0,0.0,0.0,-2.1857,-2.2876,-2.3632,-2.3303,-2.3651,-2.3961,-2.3385,-2.3334,-2.3158,-2.2063,-2.1823,-2.1529,-2.0511,-2.0308,-2.0308,-2.0308,-2.0292,-2.0875,-2.2611,-2.294,-2.3531,-2.5165,-2.5376,0.0,-2.5317,-2.5893,-2.6524,0.0,0.0,0.0,0.0,0.0,0.0,0.0,-3.0567,-3.0578,-3.0603,-3.0671,-3.0745,-3.0837,-3.0879,-3.0898,-3.0898,-3.0898,-3.0898,-3.0898,-3.0898,0.0,0.0,0.0,0.0,0.0,-3.0898,-3.125,-3.1797,-3.1797,-3.2285,-3.3008,-3.2962,-3.3512,-3.4277,0.0,0.0,0.0,0.0,0.0,0.0,0.0,-2.0357,-2.1137,-2.2177,-2.1848,-2.1828,-2.27,-2.2021,-2.1983,-2.3195,-2.2791,0.0,0.0,0.0,0.0,0.0,0.0,0.0,-2.1485,-2.2359,-2.3379,-2.4548,-2.4884,-2.4869,-2.4534,-2.3432,-2.2417,-2.1453,-2.0408,-1.955,0.0,0.0,0.0,0.0,0.0,0.0,-2.0373,0.0,0.0,0.0,0.0,0.0,0.0,0.0,0.0,0.0,0.0,0.0,0.0,0.0,-2.1942,-2.2894,-2.2665,-2.3014,-2.3282,-2.2741,-2.2714,-2.2566,-2.1696,-2.1504,-2.1273,-2.0462,-2.0308,-2.0308,-2.0308,-2.0318,-2.08,-2.2225,-2.2782,-2.3482,-2.4807,-2.5211,-2.5376,-2.5344,0.0,0.0,0.0,0.0,0.0,0.0,0.0,0.0,0.0,0.0,-3.0603,-3.0603,-3.0707,-3.0816,-3.0898,-3.0898,-3.0898,-3.0898,-3.0898,-3.0898,-3.0898,-3.0898,0.0,0.0,0.0,0.0,0.0,-3.125,-3.1719,-3.2226,-3.2539,-3.3164,-3.3887,-3.3842,-3.4411,-3.5175,0.0,0.0,0.0,0.0,0.0,0.0,0.0,-2.0418,-2.1411,-2.1411,-2.1417,-2.1729,-2.2524,-2.191,-2.2107,-2.386,0.0,0.0,0.0,0.0,0.0,0.0,0.0,0.0,-2.1566,-2.2397,-2.3624,-2.5308,-2.6167,-2.6186,-2.538,-2.5385,-2.4096,-2.1773,-2.1658,-2.0658,-1.905,-1.8932,-1.9307,-2.0065,-2.0885,-2.0842,0.0,0.0,0.0,0.0,0.0,0.0,0.0,0.0,0.0,0.0,0.0,0.0,0.0,0.0,0.0,0.0,0.0,-2.2663,-2.2682,-2.2643,-2.2624,-2.2408,-2.16,-2.1408,0.0,-2.0442,-2.0308,-2.0327,-2.0365,-2.0393,-2.0718,-2.172,-2.2573,-2.3392,-2.4273,-2.496,-2.5418,0.0,-2.6277,0.0,0.0,0.0,0.0,0.0,0.0,0.0,0.0,0.0,-3.0606,-3.0611,-3.0807,-3.0898,-3.0898,-3.0898,-3.0898,-3.0898,-3.0898,-3.0898,-3.0898,-3.0898,0.0,0.0,0.0,0.0,0.0,-3.1836,-3.2226,-3.2363,-3.3184,-3.4023,-3.4785,-3.4785,-3.5293,-3.5996,0.0,0.0,0.0,0.0,0.0,0.0,0.0,0.0,0.0,0.0,-2.0573,-2.0669,-2.0865,-2.07,-2.1265,0.0,0.0,0.0,0.0,0.0,0.0,0.0,0.0,0.0,-2.2458,-2.2693,-2.3617,-2.5308,-2.6162,-2.6507,-2.6297,-2.6288,-2.5615,-2.4346,-2.3062,-2.1481,-1.9759,-1.9622,-1.9741,-2.0026,-2.0217,-2.0307,0.0,0.0,0.0,0.0,-2.0022,-1.9963,0.0,0.0,0.0,0.0,0.0,0.0,0.0,0.0,-2.0423,-2.0635,-2.0827,0.0,-2.1658,-2.1043,-2.0889,-2.0827,0.0,-2.0577,-2.0538,-2.0346,-2.0308,-2.0481,-2.1096,-2.0733,-2.1058,-2.3312,-2.3358,-2.3612,-2.5093,-2.5357,-2.5657,-2.6328,-2.7204,0.0,0.0,0.0,0.0,0.0,0.0,0.0,0.0,0.0,-3.0611,-3.0679,-3.0815,-3.0898,-3.0898,-3.0898,-3.0898,-3.0898,-3.0898,-3.0898,-3.0898,-3.0898,0.0,0.0,0.0,0.0,-3.0976,-3.1836,-3.2559,-3.3203,-3.4062,-3.4922,-3.5684,-3.5684,-3.582,-3.5996,0.0,0.0,0.0,0.0,0.0,0.0,0.0,0.0,0.0,0.0,0.0,-2.0708,-2.0346,-2.0982,0.0,0.0,0.0,0.0,0.0,0.0,0.0,0.0,0.0,-2.107,-2.2754,-2.2806,-2.3812,-2.5904,-2.6376,-2.6606,-2.6591,-2.6596,-2.5947,-2.4678,-2.2966,-2.1436,-2.0124,-2.0055,-2.0065,-2.0148,-2.0148,0.0,0.0,0.0,0.0,0.0,-1.9958,-1.9967,0.0,-2.0003,-2.0064,-2.0071,0.0,0.0,0.0,0.0,-1.9388,-1.97,-1.97,-2.0312,-2.0846,-2.0404,-2.0308,-2.0308,-2.0308,-2.0308,-2.0192,-1.9792,-2.0023,-2.0308,-2.0354,-2.0639,-2.1371,-2.2838,-2.3361,-2.4053,-2.5379,-2.586,-2.6096,-2.6149,0.0,0.0,0.0,0.0,0.0,0.0,0.0,0.0,0.0,0.0,-3.0638,-3.0693,-3.0836,-3.0898,-3.0898,-3.0898,-3.0898,-3.0898,-3.0898,-3.0898,-3.0898,-3.0898,0.0,0.0,0.0,0.0,-3.0996,-3.2246,-3.3008,-3.3535,-3.4805,-3.5586,-3.5996,-3.5996,-3.5996,-3.5996,0.0,0.0,0.0,0.0,0.0,0.0,0.0,0.0,0.0,0.0,0.0,0.0,0.0,0.0,0.0,0.0,0.0,0.0,0.0,0.0,0.0,0.0,-2.1196,-2.1081,-2.2759,-2.2796,-2.3986,-2.6409,-2.6797,-2.6913,-2.6794,-2.7063,-2.6082,-2.4033,-2.2427,-2.1177,-2.0308,-2.0308,-2.0308,-2.0308,-2.0308,0.0,0.0,0.0,0.0,0.0,0.0,0.0,0.0,-1.9707,-1.9824,-1.9919,-1.9051,0.0,0.0,0.0,0.0,0.0,-1.8953,-1.9642,-2.0308,-2.0308,-2.0308,-2.0308,-2.0308,-2.0308,-2.01,-1.9354,-1.9792,-2.0158,-1.9665,-2.0671,-2.1723,-2.2124,-2.3437,0.0,-2.5405,-2.6181,-2.6482,-2.5979,0.0,0.0,0.0,0.0,0.0,0.0,0.0,0.0,0.0,0.0,0.0,-3.0721,-3.0838,-3.0898,-3.0898,-3.0898,-3.0898,-3.0898,-3.0898,-3.0898,-3.0898,-3.0898,-3.0898,0.0,0.0,0.0,-3.1211,-3.2754,-3.3476,-3.3769,-3.5371,-3.5996,-3.5996,-3.5996,-3.5996,-3.5996,0.0,0.0,0.0,0.0,0.0,0.0,0.0,0.0,0.0,0.0,0.0,0.0,0.0,0.0,0.0,0.0,0.0,0.0,0.0,0.0,0.0,-2.2778,-2.1196,-2.1081,-2.2759,-2.2796,-2.3698,-2.55,-2.7665,-2.8362,-2.7736,-2.9154,-2.7775,-2.4052,-2.3047,-2.1735,-2.0308,-2.0308,-2.0308,-2.0308,-2.0308,0.0,0.0,0.0,0.0,0.0,0.0,0.0,0.0,-1.8084,-1.8382,-1.8881,-1.8009,0.0,0.0,0.0,0.0,0.0,-1.8799,-1.9642,-2.0308,-2.0308,-2.0308,-2.0308,-2.0308,-2.0308,-2.025,-2.0139,-2.0212,-2.0692,-2.1989,-2.1824,-2.2231,-2.4458,-2.509,-2.5373,0.0,0.0,-2.6221,0.0,0.0,0.0,0.0,0.0,0.0,0.0,0.0,0.0,0.0,0.0,0.0,-3.0858,-3.0898,-3.0898,-3.0898,-3.0898,-3.0898,-3.0898,-3.0898,-3.0898,-3.0898,-3.0898,-3.0898,0.0,0.0,-3.1328,-3.207,-3.3008,-3.3828,-3.4609,-3.5605,-3.5996,-3.5996,-3.5996,-3.5996,-3.5996,0.0,0.0,0.0,0.0,0.0,0.0,0.0,0.0,0.0,0.0,0.0,0.0,0.0,0.0,0.0,0.0,0.0,0.0,0.0,0.0,-2.2173,-2.21,-2.1812,-2.2004,-2.2778,-2.3688,-2.4995,-2.6697,-2.8321,-2.8917,-2.8549,-2.7923,-2.614,-2.3355,-2.2489,-2.1427,-2.0308,-2.0308,-2.0308,-2.0308,0.0,0.0,0.0,0.0,0.0,0.0,0.0,0.0,0.0,0.0,-1.8126,-1.8685,-1.7371,0.0,0.0,0.0,0.0,0.0,-1.7545,-1.8257,-1.9119,-2.0058,-2.0985,-2.1658,-2.1658,-2.1658,-2.1523,-2.1043,-2.1312,-2.1735,-2.2043,-2.2547,-2.345,-2.5074,0.0,-2.5462,-2.5498,0.0,0.0,0.0,0.0,0.0,0.0,0.0,0.0,0.0,0.0,0.0,0.0,0.0,0.0,0.0,-3.0898,-3.0898,-3.0898,-3.0898,-3.0898,-3.0898,-3.0898,-3.0898,-3.0898,-3.0898,-3.0898,-3.0898,0.0,-3.1387,-3.2266,-3.3066,-3.3906,-3.4785,-3.5664,-3.5996,-3.5996,-3.5996,-3.593,-3.5836,0.0,0.0,0.0,0.0,0.0,0.0,0.0,0.0,0.0,0.0,0.0,0.0,0.0,0.0,0.0,0.0,0.0,0.0,0.0,-2.16,-2.2081,-2.1812,-2.2447,-2.299,-2.337,-2.4846,-2.6447,-2.8184,-2.9396,-2.98,-2.9352,-2.6788,-2.4601,-2.2759,-2.1889,-2.1058,-2.0308,-2.0308,-2.0308,-2.0308,0.0,0.0,0.0,0.0,0.0,0.0,0.0,0.0,0.0,0.0,0.0,0.0,0.0,0.0,0.0,-1.5635,-1.5673,-1.6234,-1.6445,-1.7083,-1.8065,-1.9619,-2.0812,-2.1816,-2.2624,-2.2509,-2.2139,-2.187,-2.2331,-2.2663,-2.2197,-2.3355,-2.4582,-2.5192,-2.5348,-2.5376,0.0,0.0,0.0,0.0,0.0,0.0,0.0,0.0,0.0,0.0,0.0,0.0,0.0,0.0,0.0,0.0,-3.0898,-3.0898,-3.0898,-3.0898,-3.0898,-3.0898,-3.0898,-3.0898,-3.0898,-3.0898,-3.0898,-3.0918,-3.1113,-3.1699,-3.2539,-3.3379,-3.4219,-3.5078,-3.5742,-3.5996,-3.5996,-3.5996,-3.5899,-3.5732,0.0,0.0,0.0,0.0,0.0,0.0,0.0,0.0,0.0,0.0,0.0,0.0,0.0,0.0,0.0,0.0,0.0,0.0,0.0,-2.0827,-2.1158,-2.2643,-2.2778,-2.3524,-2.5096,-2.6019,-2.7332,-2.9011,-3.1429,-3.1833,-3.025,-2.7692,-2.5178,-2.2759,-2.1889,-2.1058,-2.0308,-2.0308,-2.0308,-2.0308,-2.0308,0.0,0.0,0.0,0.0,0.0,0.0,0.0,0.0,0.0,0.0,0.0,0.0,0.0,-1.6407,-1.5462,-1.525,-1.5462,-1.6272,-1.7083,-1.7911,-1.8857,-1.8588,-1.8892,-2.2085,-2.16,-2.0904,-2.2393,-2.2759,-2.3028,-2.3783,-2.462,-2.5231,-2.5288,-2.5293,0.0,0.0,0.0,0.0,0.0,0.0,0.0,0.0,0.0,0.0,0.0,0.0,0.0,0.0,0.0,0.0,0.0,0.0,-3.0898,-3.0898,-3.0898,-3.0898,-3.0898,-3.0898,-3.0898,-3.0898,-3.0898,-3.0898,-3.0957,-3.1758,-3.2578,-3.3379,-3.4258,-3.5117,-3.5918,-3.5976,-3.5996,-3.5996,-3.5996,-3.595,-3.5871,0.0,0.0,0.0,0.0,0.0,0.0,0.0,0.0,0.0,0.0,0.0,0.0,0.0,0.0,0.0,0.0,0.0,0.0,0.0,-2.0942,-2.1331,-2.1966,-2.3028,-2.3913,-2.4548,-2.6914,-2.9006,-3.0717,-3.1679,-3.1275,-2.9525,-2.6472,-2.424,-2.274,-2.137,-2.0577,-2.0308,-2.0308,-2.0308,-2.0308,-2.0308,-1.9705,0.0,0.0,0.0,0.0,0.0,0.0,0.0,0.0,-1.5772,-1.6349,-1.5462,-1.5792,-1.633,-1.5462,-1.5192,-1.5269,-1.5596,-1.6676,-1.7911,-1.878,-1.9161,-1.9927,-2.2278,-2.274,-2.299,-2.412,-2.4346,-2.4466,-2.4793,-2.5096,-2.5308,-2.5308,-2.5308,0.0,0.0,0.0,0.0,0.0,0.0,0.0,0.0,0.0,0.0,0.0,0.0,0.0,0.0,0.0,0.0,0.0,0.0,-3.0898,-3.0898,-3.0898,-3.0898,-3.0898,-3.0898,-3.1172,-3.1719,-3.1719,-3.1973,-3.2461,-3.2793,-3.3437,-3.4238,-3.4551,-3.5215,-3.5996,-3.5996,-3.5996,-3.5996,-3.5996,-3.5902,-3.5766,0.0,0.0,0.0,0.0,0.0,0.0,0.0,0.0,0.0,0.0,0.0,0.0,0.0,0.0,0.0,0.0,0.0,0.0,-1.9885,-2.0408,-2.0831,-2.1119,-2.2509,-2.3663,-2.4452,-2.701,-2.914,-3.0871,-3.116,-3.041,-2.8665,-2.5818,-2.4028,-2.3144,-2.1446,-2.0673,-2.0654,-2.0404,-2.0308,-2.0308,-2.0308,-1.9557,0.0,0.0,0.0,0.0,0.0,0.0,0.0,0.0,-1.5596,-1.5984,-1.5385,-1.5615,-1.5965,-1.5385,-1.5577,-1.5984,-1.5984,-1.683,-1.7988,-1.9123,-1.9658,-2.0404,-2.2355,-2.3259,-2.4009,-2.5077,-2.5308,-2.5308,-2.5308,-2.5308,0.0,0.0,0.0,0.0,0.0,0.0,0.0,0.0,0.0,0.0,0.0,0.0,0.0,0.0,0.0,0.0,0.0,0.0,0.0,0.0,0.0,0.0,-3.0898,-3.0898,-3.0898,-3.0898,-3.1172,-3.1621,-3.2207,-3.2461,-3.2871,-3.3418,-3.3691,-3.4141,-3.4726,-3.5,-3.5469,-3.5996,-3.5996,-3.5996,-3.5996,-3.5996,-3.5874,-3.5707,0.0,0.0,0.0,0.0,0.0,0.0,0.0,0.0,-2.4394,-2.5192,-2.5288,0.0,0.0,0.0,0.0,0.0,0.0,0.0,-1.8996,-1.9007,-1.9392,-2.025,-2.1077,-2.2673,-2.5192,-2.6115,-2.739,-2.9107,-2.9967,-2.9519,-2.7857,-2.6096,-2.4851,-2.4014,-2.2274,-2.1485,-2.1427,-2.0635,-2.0288,-2.0288,-2.0288,-1.9254,-1.7689,0.0,0.0,0.0,0.0,0.0,0.0,0.0,-1.5192,-1.5192,-1.5192,-1.5212,-1.5212,-1.5192,-1.6388,-1.7699,-1.768,-1.7699,-1.8142,-1.9865,-1.9669,-1.9727,-2.2235,-2.2816,-2.3293,-2.4962,-2.5308,-2.5308,-2.5308,-2.5308,0.0,0.0,0.0,0.0,0.0,0.0,0.0,0.0,0.0,0.0,0.0,0.0,0.0,0.0,0.0,0.0,0.0,0.0,0.0,0.0,0.0,0.0,-3.0898,-3.0898,-3.0898,-3.0918,-3.1797,-3.2207,-3.2246,-3.3047,-3.3418,-3.3476,-3.4336,-3.4707,-3.4785,-3.5644,-3.5996,-3.5996,-3.5996,-3.5996,-3.5996,-3.5996,-3.5875,-3.5707,0.0,0.0,0.0,0.0,0.0,0.0,0.0,0.0,-2.4832,-2.4509,-2.4452,0.0,0.0,0.0,0.0,0.0,0.0,0.0,-1.9007,-1.8992,-1.9123,-1.9362,-2.0731,-2.1596,-2.1788,-2.3197,-2.5625,-2.9107,-2.8794,-2.8063,-2.6948,-2.462,-2.3408,-2.3144,-2.2004,-2.0846,-1.9727,-1.9485,-1.9388,-1.9381,-1.9392,-1.87,-1.7696,0.0,0.0,0.0,0.0,0.0,0.0,0.0,0.0,0.0,-1.5192,-1.5615,-1.5984,-1.5385,-1.5984,-1.6715,-1.6118,-1.7696,-1.95,-1.94,-2.1419,-2.3481,-2.3663,-2.3701,-2.4028,-2.5077,-2.5308,-2.5308,-2.5308,-2.5308,0.0,0.0,0.0,0.0,0.0,0.0,0.0,0.0,0.0,0.0,0.0,0.0,0.0,0.0,0.0,0.0,0.0,0.0,0.0,0.0,0.0,0.0,-3.0898,-3.0898,-3.1211,-3.1816,-3.2656,-3.3047,-3.3066,-3.3926,-3.4648,-3.5234,-3.5508,-3.5605,-3.5625,-3.5898,-3.5996,-3.5996,-3.5996,-3.5996,-3.5996,-3.5996,-3.5927,-3.5834,0.0,0.0,0.0,0.0,0.0,0.0,-2.4394,-2.4981,-2.5,-2.4206,-2.411,-2.3644,0.0,0.0,0.0,-2.1058,-1.9769,-1.9004,-1.8992,-1.8992,-1.9142,-1.9496,-2.0788,-2.1446,-2.1293,-2.2947,-2.4716,-2.6606,-2.6452,-2.5933,-2.5063,-2.3875,-2.3317,-2.3297,-2.2778,-2.1581,-1.9981,-1.9658,-1.9311,-1.9004,-1.9011,-1.8472,-1.7699,0.0,0.0,0.0,0.0,0.0,0.0,0.0,0.0,0.0,-1.5192,-1.5327,-1.5558,-1.6042,-1.6814,-1.7603,-1.808,-1.9715,-2.1331,-2.1477,-2.2923,-2.4351,-2.4543,-2.4586,-2.4716,-2.5192,-2.5308,-2.5308,-2.5308,0.0,0.0,0.0,0.0,0.0,0.0,0.0,0.0,0.0,0.0,0.0,0.0,0.0,0.0,0.0,0.0,0.0,0.0,0.0,0.0,0.0,0.0,0.0,-3.0898,-3.0898,-3.1348,-3.2207,-3.3027,-3.3574,-3.3945,-3.4824,-3.5508,-3.5996,-3.5996,-3.5996,-3.5996,-3.5996,-3.5996,-3.5996,-3.5996,-3.5996,-3.5996,-3.5996,-3.5951,-3.5875,0.0,0.0,0.0,0.0,0.0,0.0,-2.5038,-2.5308,-2.4981,-2.4105,-2.3975,-2.3317,0.0,0.0,0.0,-2.0365,-1.9508,-1.8992,-1.8992,-1.8992,-1.9392,-2.025,-2.1158,-2.1985,-2.2778,-2.4212,-2.4173,-2.2566,-2.3509,-2.3586,-2.2816,-2.3605,-2.3975,-2.3975,-2.3898,-2.2893,-2.1212,-2.0327,-1.9504,-1.8761,-1.8761,-1.8299,-1.7584,-1.7584,0.0,0.0,0.0,0.0,0.0,0.0,0.0,0.0,-1.5115,-1.4593,-1.4459,-1.6696,-1.8084,-1.9396,-2.1701,-2.2566,-2.3158,-2.4692,-2.4043,-2.3428,-2.4942,-2.5308,-2.5308,-2.5308,0.0,-2.5308,-2.5308,0.0,0.0,0.0,0.0,0.0,0.0,0.0,0.0,0.0,0.0,0.0,0.0,0.0,0.0,0.0,0.0,0.0,0.0,0.0,0.0,0.0,0.0,0.0,-3.0898,-3.0898,-3.1367,0.0,-3.3047,-3.3906,-3.4844,-3.5644,-3.5996,-3.5996,-3.5996,-3.5996,-3.5996,-3.5996,-3.5996,-3.5996,-3.5996,-3.5996,-3.5996,-3.5996,-3.5951,-3.5882,0.0,0.0,0.0,0.0,0.0,0.0,-2.5038,-2.5308,-2.4769,-2.3278,-2.3086,-2.2451,-2.0731,-2.0558,0.0,-2.0327,-1.9508,-1.8992,-1.8992,-1.8992,-1.9392,-2.025,-2.1735,-2.2605,-2.2797,-2.2485,-2.1827,-2.085,-2.2336,-2.299,-2.2797,-2.299,-2.3086,-2.3047,-2.235,-2.1115,-1.9439,-1.7946,-1.7215,-1.7045,-1.7045,-1.693,-1.6756,-1.6756,-1.6118,0.0,0.0,0.0,0.0,0.0,0.0,0.0,-1.4401,-1.4516,-1.4882,-1.4766,-1.6272,-1.8103,-1.8642,-2.0758,-2.2893,-2.3254,-2.4062,-2.4865,-2.5231,-2.5308,-2.5308,-2.5308,-2.5308,0.0,0.0,0.0,0.0,0.0,0.0,0.0,0.0,0.0,0.0,0.0,0.0,0.0,0.0,0.0,0.0,0.0,0.0,0.0,0.0,0.0,0.0,0.0,0.0,-3.0898,-3.0898,-3.0898,-3.1641,0.0,-3.332,-3.4219,-3.5723,-3.5918,-3.5996,-3.5996,-3.5996,-3.5996,-3.5996,-3.5996,-3.5996,-3.5996,-3.5996,-3.5996,-3.5996,-3.5996,-3.5996,-3.5973,0.0,0.0,0.0,0.0,0.0,0.0,0.0,0.0,-2.4846,-2.3586,-2.3067,-2.2312,-2.1023,-2.0538,0.0,0.0,-1.9888,-1.9623,-1.9623,-1.9623,-2.0177,-2.1446,-2.3101,-2.362,-2.2816,-2.1947,-2.0908,-1.9681,-2.0123,-2.0566,-2.0989,-2.1412,-2.1812,-2.2158,-2.1696,-2.0577,-1.8919,-1.7619,-1.6853,-1.6506,-1.6506,-1.6506,-1.6506,-1.6506,-1.5965,-1.5192,-1.5192,0.0,0.0,0.0,0.0,0.0,0.0,0.0,-1.4157,-1.4923,-1.5788,-1.6946,-1.8965,-2.1124,-2.299,-2.3793,-2.4654,-2.5308,-2.5308,-2.5308,-2.5308,-2.5308,-2.5308,0.0,0.0,0.0,0.0,0.0,0.0,0.0,0.0,0.0,0.0,0.0,0.0,0.0,0.0,0.0,0.0,0.0,0.0,0.0,0.0,0.0,0.0,0.0,-3.0898,-3.0898,-3.0898,-3.0898,-3.1738,-3.3398,-3.3398,-3.4316,-3.5996,-3.5996,-3.5996,-3.5996,-3.5996,-3.5996,-3.5996,-3.5996,-3.5996,-3.5996,-3.5996,-3.5996,-3.5996,-3.5996,-3.5996,-3.5996,0.0,0.0,0.0,0.0,0.0,0.0,0.0,0.0,0.0,-2.4206,-2.3336,-2.247,-2.16,-2.0769,-2.0308,0.0,0.0,0.0,-2.0308,-2.0423,-2.1196,-2.274,-2.4139,-2.4216,-2.2836,-2.1812,-2.0465,-1.878,-1.7911,-1.793,-1.8799,-1.9812,-2.0731,-2.1485,-2.1196,-2.0292,-1.8923,-1.7753,-1.6888,-1.6272,-1.6272,-1.6272,-1.6272,-1.6272,-1.583,-1.5192,-1.5192,-1.5192,-1.5192,-1.5192,0.0,0.0,0.0,0.0,-1.3084,-1.5044,-1.5426,-1.5962,-1.9462,-2.1466,-2.3004,-2.4846,-2.5308,-2.5308,-2.5308,-2.5308,-2.5308,-2.5308,0.0,0.0,0.0,0.0,0.0,0.0,0.0,0.0,0.0,0.0,0.0,0.0,0.0,0.0,0.0,0.0,0.0,0.0,0.0,0.0,0.0,0.0,-3.0792,-3.0898,-3.0898,-3.0898,-3.0898,-3.1055,-3.1894,-3.3398,-3.3711,-3.4609,-3.5996,-3.5996,-3.5996,-3.5996,-3.5996,-3.5996,-3.5996,-3.5996,-3.5996,-3.5996,-3.5995,-3.5996,-3.5996,-3.5995,-3.5996,-3.5996,0.0,0.0,0.0,0.0,0.0,0.0,0.0,0.0,0.0,0.0,-2.3336,-2.247,-2.16,-2.0769,-2.0308,-2.0308,-2.0308,-2.0308,-2.0308,0.0,0.0,-2.2759,-2.3009,-2.3028,-2.2797,-2.1254,-1.9619,-1.7872,-1.7064,-1.7083,-1.7911,-1.9542,-2.0731,-2.1446,-1.9988,-1.9203,-1.8857,-1.6522,-1.5462,-1.5365,-1.5365,-1.5365,-1.5365,-1.5365,-1.5308,-1.5192,-1.5192,-1.5192,-1.5192,-1.5192,-1.5192,0.0,0.0,0.0,0.0,-1.2197,-1.356,-1.5327,-1.5885,-1.8808,-2.2254,-2.4692,-2.5308,-2.5308,-2.5308,-2.5308,-2.5308,0.0,0.0,0.0,0.0,0.0,0.0,0.0,0.0,0.0,0.0,0.0,0.0,0.0,0.0,0.0,0.0,0.0,0.0,0.0,0.0,0.0,0.0,-3.0878,-3.0879,-3.0898,-3.0898,-3.0898,-3.0898,-3.1641,-3.248,-3.3418,-3.4922,-3.5762,-3.5996,-3.5996,-3.5996,-3.5996,-3.5996,-3.5996,-3.5996,-3.5996,-3.5996,-3.5996,-3.5942,-3.5948,-3.5996,-3.5922,-3.5948,-3.5996,0.0,0.0,0.0,0.0,0.0,0.0,0.0,0.0,0.0,0.0,0.0,-2.3201,-2.2312,-2.1485,-2.06,-1.9642,-2.0023,-2.0308,-2.0308,-2.1058,-2.1677,-2.2043,-2.2547,-2.2355,-2.1427,-2.02,-1.8738,-1.7026,-1.6176,-1.6426,-1.7738,-1.8988,-2.0023,-2.075,-1.9046,-1.828,-1.8145,-1.608,-1.5192,-1.5192,-1.5192,-1.575,-1.6503,-1.5558,-1.5769,-1.6484,-1.5538,-1.5192,-1.5192,-1.5192,-1.5192,-1.4981,-1.375,0.0,0.0,0.0,-1.2195,-1.3692,-1.6554,-1.9731,-2.2716,-2.4788,-2.5308,-2.5308,-2.5308,-2.5308,-2.5308,0.0,0.0,0.0,0.0,0.0,0.0,0.0,0.0,0.0,0.0,0.0,0.0,0.0,0.0,0.0,0.0,0.0,0.0,0.0,0.0,0.0,-3.0898,-3.0898,-3.0898,-3.0898,-3.0898,0.0,-3.0898,-3.1758,-3.2851,-3.4141,-3.5391,-3.5996,-3.5996,-3.5996,-3.5996,-3.5996,-3.5996,-3.5996,-3.5996,-3.5996,-3.5996,-3.5996,-3.5973,-3.5974,-3.5996,-3.5973,-3.5974,-3.6074,0.0,0.0,0.0,0.0,0.0,0.0,0.0,0.0,0.0,0.0,0.0,-2.3509,-2.2874,0.0,0.0,0.0,-1.9792,-2.0308,-2.0308,-2.0865,-2.1293,-2.1485,-2.1927,-2.1485,-2.0,-1.9123,-1.7853,-1.6176,-1.5519,-1.6061,-1.7718,-1.8376,-1.9257,-2.0231,-1.8946,-1.8103,-1.7603,-1.6157,-1.5538,-1.5577,-1.6,-1.6907,-1.7968,-1.7369,-1.7907,-1.8719,-1.6599,-1.5984,-1.6022,-1.5154,-1.4862,-1.4728,-1.3863,-1.3022,0.0,0.0,0.0,-1.2098,-1.6766,-1.9423,-2.1427,-2.375,-2.45,-2.4788,0.0,0.0,0.0,0.0,0.0,0.0,0.0,0.0,0.0,0.0,0.0,0.0,0.0,0.0,0.0,0.0,0.0,0.0,0.0,0.0,0.0,0.0,0.0,0.0,-3.0898,-3.0898,-3.0898,-3.0898,-3.0898,-3.0898,-3.0898,-3.1973,-3.3359,-3.5039,-3.5684,-3.5996,-3.5996,-3.5996,-3.5996,-3.5996,-3.5996,-3.5996,-3.5996,-3.5996,-3.5996,-3.5996,-3.5975,-3.5976,-3.6016,-3.6229,-3.6327,-3.6465,0.0,0.0,0.0,0.0,0.0,0.0,0.0,0.0,0.0,0.0,0.0,-2.2855,-2.2797,-2.135,-1.9985,-1.9088,-1.9792,-2.0308,-2.0308,-2.0346,-2.0692,-2.1466,-2.0808,0.0,-1.9092,-1.8215,-1.6949,-1.5269,-1.5212,-1.6061,-1.7699,-1.7757,-1.8677,-2.0308,-2.0212,-1.9254,-1.7641,-1.6795,-1.6426,-1.6561,-1.815,-1.885,-1.9184,-2.1528,-2.247,-2.2105,-1.8757,-1.8103,-1.8318,-1.5055,-1.3975,-1.3824,-1.3024,-1.2161,-1.1293,0.0,0.0,0.0,-1.4442,-1.55,-1.6577,-2.0677,-2.2312,-2.3351,0.0,0.0,0.0,0.0,0.0,0.0,0.0,0.0,0.0,0.0,0.0,0.0,0.0,0.0,0.0,0.0,0.0,0.0,0.0,0.0,0.0,0.0,0.0,0.0,-3.0898,-3.0898,-3.0898,-3.0898,-3.0898,-3.0898,-3.0898,-3.2519,-3.4219,-3.5937,-3.5976,-3.5996,-3.5996,-3.5996,-3.5996,-3.5996,-3.5996,-3.5996,-3.5996,-3.5996,-3.5996,-3.5996,-3.5939,-3.5946,-3.6093,-3.6858,-3.7177,-3.7363,0.0,0.0,0.0,0.0,0.0,0.0,0.0,0.0,0.0,0.0,0.0,0.0,0.0,-2.0966,-1.9946,-1.9088,-1.93,-1.97,-2.025,-2.0308,-2.0423,-2.0712,-2.0442,-1.9635,-1.8196,-1.7853,-1.6888,-1.5192,-1.4632,-1.525,-1.693,-1.693,-1.7253,-1.7888,-1.8407,-1.8603,-1.8414,-1.6484,-1.5984,-1.6657,-1.8323,-1.9635,-2.0777,-2.2239,-2.3466,-2.4096,-2.1793,-2.0119,-1.8808,-1.758,-1.5712,-1.3764,-1.2947,-1.2103,-1.1233,-1.0365,-1.05,-1.1445,-1.3747,-1.5173,-1.6657,-1.925,-2.137,-2.297,-2.3562,-2.4519,0.0,0.0,0.0,0.0,0.0,0.0,0.0,0.0,0.0,0.0,0.0,0.0,0.0,0.0,0.0,0.0,0.0,0.0,0.0,0.0,0.0,0.0,-3.0898,-3.0898,-3.0898,-3.0898,-3.0898,-3.1426,-3.248,-3.3105,-3.4277,-3.5996,-3.5996,-3.5996,-3.5996,-3.5996,-3.5996,-3.5996,-3.5996,-3.5996,-3.5996,-3.5996,-3.5996,-3.5996,-3.5974,-3.6326,-3.6855,-3.7067,-3.751,-3.8127,0.0,0.0,0.0,0.0,0.0,0.0,0.0,0.0,-2.411,-2.411,0.0,0.0,0.0,0.0,-2.0062,-1.9488,-1.9165,-1.9242,-1.9831,-1.985,-1.9735,-1.9446,-1.9427,-1.8754,-1.7334,-1.7295,-1.6465,-1.4766,-1.4187,-1.4497,-1.5635,-1.5635,-1.5945,-1.6506,-1.6445,-1.7064,-1.8087,-1.6968,-1.6638,-1.7122,-1.9677,-2.1019,-2.1754,-2.4048,-2.5082,0.0,0.0,0.0,0.0,0.0,-1.833,-1.6151,-1.4506,-1.2582,-1.0848,-1.0269,-1.0519,-1.1214,-1.2325,-1.3673,-1.533,-1.7596,-1.9426,-2.1136,-2.284,0.0,0.0,0.0,0.0,0.0,0.0,0.0,0.0,0.0,0.0,0.0,0.0,0.0,0.0,0.0,0.0,0.0,0.0,0.0,0.0,0.0,0.0,0.0,-3.0898,-3.0898,-3.0898,-3.0898,-3.0898,-3.1699,-3.3379,-3.3398,-3.4277,-3.5996,-3.5996,-3.5996,-3.5996,-3.5996,-3.5996,-3.5996,-3.5996,-3.5996,-3.5996,-3.5996,-3.5996,-3.6035,-3.6328,-3.6797,-3.7343,-3.7807,-3.8337,-3.8959,0.0,0.0,0.0,0.0,0.0,0.0,-2.5308,-2.462,-2.411,-2.411,0.0,0.0,0.0,0.0,0.0,-2.0308,-1.9546,-1.9049,-1.8992,-1.8992,-1.8607,-1.7738,-1.7699,-1.7314,-1.6526,-1.6506,-1.5654,-1.3898,-1.3879,-1.386,-1.386,-1.3841,-1.4747,-1.6314,-1.4632,-1.4824,-1.6487,-1.8126,-1.8376,-1.8065,-2.2224,-2.297,-2.212,-2.7126,0.0,0.0,-2.4567,-2.4245,0.0,-2.2216,0.0,0.0,0.0,-1.3464,-1.0094,-1.0094,-1.0113,-1.0133,0.0,0.0,0.0,-1.5564,0.0,0.0,-2.2784,0.0,0.0,0.0,0.0,0.0,0.0,0.0,0.0,0.0,0.0,0.0,0.0,0.0,0.0,0.0,0.0,0.0,0.0,0.0,0.0,0.0,0.0,-3.0898,-3.0898,-3.0898,-3.0898,-3.0898,-3.0898,-3.1699,-3.3379,-3.3398,-3.4277,-3.5996,-3.5996,-3.5996,-3.5996,-3.5996,-3.5996,-3.5996,-3.5996,-3.5996,-3.5996,-3.5996,-3.5996,-3.6094,-3.6953,-3.7324,-3.7539,-3.9115,-3.9702,-3.983,0.0,0.0,0.0,0.0,0.0,-2.5308,-2.5308,-2.462,-2.411,0.0,0.0,0.0,-2.1562,-2.1293,-2.0923,-2.0346,-2.0619,-2.0296,-1.9088,-1.8992,-1.8607,-1.7738,-1.7699,-1.7314,-1.6526,-1.6506,-1.5654,-1.3898,-1.3329,-1.3024,-1.3024,-1.2387,-1.2697,-1.3758,-1.3863,-1.3846,-1.3777,-1.4258,-1.5701,-1.7795,-1.8988,-2.1047,0.0,0.0,0.0,0.0,0.0,-2.7467,-2.5832,0.0,-2.2312,-1.8065,0.0,-1.156,-1.0094,-1.0094,-1.0558,-1.0906,-1.0269,0.0,0.0,0.0,0.0,0.0,0.0,0.0,0.0,0.0,0.0,0.0,0.0,0.0,0.0,0.0,0.0,0.0,0.0,0.0,0.0,0.0,0.0,0.0,0.0,0.0,0.0,0.0,0.0,-3.0898,-3.0898,-3.0898,-3.0898,-3.0898,-3.0898,-3.1699,-3.3379,-3.3398,-3.4277,-3.5996,-3.5996,-3.5996,-3.5996,-3.5996,-3.5996,-3.5996,-3.5996,-3.5996,-3.5996,-3.5996,-3.5996,-3.6094,-3.6953,-3.7695,-3.8358,-3.9287,-3.9997,-4.0512,0.0,0.0,-2.5308,-2.5308,-2.5308,-2.5308,-2.5308,-2.462,-2.411,0.0,0.0,0.0,-2.21,-2.237,-2.2254,-2.1427,-2.1446,-2.0792,-1.9107,-1.8665,-1.7911,-1.6715,-1.6657,-1.6445,-1.5965,-1.5965,-1.5118,-1.3404,-1.2931,-1.2334,-1.1601,-1.1098,-1.1312,-1.2161,-1.2269,-1.2462,-1.2644,-1.193,-1.3563,0.0,-1.9373,0.0,0.0,-2.6467,-2.7909,0.0,0.0,0.0,-2.6755,-2.7827,-2.4216,0.0,0.0,0.0,-1.1118,-1.0752,-1.1254,-1.1831,-1.1312,-1.193,-1.2863,0.0,0.0,0.0,0.0,0.0,0.0,0.0,0.0,0.0,0.0,0.0,0.0,0.0,0.0,0.0,0.0,0.0,0.0,0.0,0.0,0.0,0.0,0.0,0.0,0.0,-3.0898,-3.0898,-3.0898,-3.0898,-3.0898,-3.0898,-3.0898,-3.1699,-3.3379,-3.3398,-3.4277,-3.5996,-3.5996,-3.5996,-3.5996,-3.5996,-3.5996,-3.5996,-3.5996,-3.5996,-3.5996,-3.5996,-3.6211,-3.6621,-3.75,-3.8379,-3.9238,-3.9923,-4.0487,-4.088,0.0,0.0,-2.5308,-2.5308,-2.5308,-2.5308,-2.5308,-2.4697,-2.4221,0.0,-2.3567,-2.3144,-2.3355,-2.3894,-2.3913,-2.3144,-2.2197,-2.0889,-1.9126,-1.8184,-1.6946,-1.5269,-1.5192,-1.5192,-1.5192,-1.5192,-1.4387,-1.2702,-1.2702,-1.1812,-1.0094,-1.0094,-1.0519,-1.1214,-1.0442,-1.0964,-1.2315,-1.0964,-1.2308,-1.5808,-2.1124,-2.2663,0.0,0.0,-2.7582,0.0,-2.8429,-2.8294,-2.7327,-2.9308,-2.6385,0.0,0.0,0.0,0.0,0.0,-1.243,-1.3318,-1.2931,-1.2969,-1.3453,-1.4858,0.0,0.0,0.0,0.0,0.0,0.0,0.0,0.0,0.0,0.0,0.0,0.0,0.0,0.0,0.0,0.0,0.0,0.0,0.0,0.0,0.0,0.0,0.0,-3.0742,-3.0859,-3.0898,-3.0898,-3.0898,-3.0898,-3.0898,-3.0996,-3.1797,-3.3379,-3.3496,-3.4375,-3.5996,-3.5996,-3.5996,-3.5996,-3.5996,-3.5996,-3.5996,-3.5996,-3.5996,-3.6016,-3.6094,-3.6601,-3.7383,-3.8262,-3.9121,-4.0,-4.074,-4.0996,-4.0959,-2.5269,-2.5308,-2.5308,-2.5308,-2.5308,-2.5308,-2.5308,-2.5173,-2.5077,-2.5077,-2.4923,-2.5346,-2.676,-2.5793,-2.5,-2.4827,-2.3428,-2.1547,-1.9165,-1.8184,-1.6946,-1.5269,-1.5192,-1.5192,-1.5192,-1.5192,-1.4387,-1.2702,-1.2702,-1.1812,-1.0094,-1.0094,-1.019,-1.0346,-1.0173,-1.0288,-1.0675,-1.1735,0.0,-1.6349,-1.7507,0.0,-2.3855,-2.6197,-2.8038,-2.9462,-2.9962,-2.9942,-2.9423,0.0,-2.6096,-2.3827,0.0,0.0,0.0,-1.37,0.0,-1.7164,-1.4404,-1.4692,-1.5675,0.0,0.0,0.0,0.0,0.0,0.0,0.0,0.0,0.0,0.0,0.0,0.0,0.0,0.0,0.0,0.0,0.0,0.0,0.0,0.0,0.0,0.0,0.0,-2.9744,-2.9844,-3.0508,-3.0898,-3.0898,-3.0898,-3.0898,-3.0898,-3.1582,-3.2402,-3.3398,-3.4101,-3.4961,-3.5996,-3.5996,-3.5996,-3.5996,-3.5996,-3.5996,-3.5996,-3.5996,-3.5996,-3.6055,-3.6758,-3.7148,-3.7383,-3.8262,-3.9121,-4.0,-4.074,-4.0996,-4.0986,-2.5308,-2.5308,-2.5308,-2.5308,-2.5308,-2.5308,-2.5308,-2.5308,-2.5462,-2.5885,-2.6678,-2.7217,-2.7255,-2.6851,-2.625,-2.5385,-2.3774,-2.2066,-2.0354,-1.8642,-1.716,-1.5907,-1.5423,-1.5192,-1.5192,-1.5192,-1.4387,-1.2702,-1.2702,-1.1812,-1.0094,-1.0094,-1.1017,-1.2577,-1.0863,-1.1288,-1.3233,-1.2409,-1.3272,-1.5462,-1.8446,0.0,-2.5587,-2.7698,-2.9288,-3.0404,-3.0404,-3.0404,-3.0135,-2.8429,-2.6717,0.0,0.0,-2.1216,-2.0158,0.0,-1.7007,-1.8446,0.0,0.0,0.0,-1.6494,0.0,0.0,0.0,0.0,0.0,0.0,0.0,0.0,0.0,0.0,0.0,0.0,0.0,0.0,0.0,0.0,0.0,0.0,0.0,0.0,0.0,0.0,-2.9712,-3.0215,-3.0644,-3.0898,-3.0898,-3.0898,-3.0898,-3.0898,-3.1758,-3.2598,-3.3398,-3.4258,-3.5137,-3.5996,-3.5996,-3.5996,-3.5996,-3.5996,-3.5996,-3.5996,-3.5996,-3.625,-3.668,-3.7129,-3.7812,-3.8633,-3.9082,-3.9785,-4.0586,-4.0951,-4.1103,-4.108,-2.5308,-2.5308,-2.5308,-2.5308,-2.5308,-2.5308,-2.5308,-2.5308,-2.5673,-2.6717,-2.8025,-2.8492,-2.7448,-2.7967,-2.7755,-2.6173,-2.4659,-2.3197,-2.1831,-1.9677,-1.8065,-1.7273,-1.6099,-1.5596,-1.5923,-1.5288,-1.4214,-1.2702,-1.2529,-1.1639,-1.0094,-1.0094,-1.1575,-1.4135,-1.2019,-1.2829,-1.5621,-1.3351,0.0,-1.6269,0.0,-2.3735,-2.5481,-2.8692,-2.9923,-3.0,-3.0654,-3.0885,-3.0712,-2.9698,0.0,-2.6135,-2.5327,-2.4101,0.0,0.0,0.0,0.0,0.0,0.0,0.0,0.0,0.0,-1.7432,0.0,0.0,0.0,0.0,0.0,0.0,0.0,0.0,0.0,0.0,0.0,0.0,0.0,0.0,0.0,0.0,0.0,0.0,0.0,0.0,-2.9189,-3.0781,-3.043,-3.0371,-3.0879,-3.0898,-3.0898,-3.0898,-3.1894,-3.2734,-3.3398,-3.4434,-3.5293,-3.5996,-3.5996,-3.5996,-3.5996,-3.5996,-3.5996,-3.5996,-3.5996,-3.6484,-3.7305,-3.748,-3.8476,-3.9902,-3.9902,-4.043,-4.1191,-4.1191,-4.1191,-4.1172,-2.5308,-2.5308,-2.5308,-2.5308,-2.5308,-2.5308,-2.5308,-2.5308,-2.5885,-2.7544,-2.7915,-2.8525,-2.9827,-3.0058,-2.9731,-2.8761,-2.7838,-2.5991,-2.2855,-2.1658,-2.0716,-1.9904,-1.7619,-1.7058,-1.8535,-1.559,-1.3615,-1.2702,-1.193,-1.1041,-1.0094,-1.0094,-1.0306,-1.0786,-1.3442,-1.406,-1.3258,0.0,-1.8642,0.0,-2.2836,-2.162,0.0,-2.6063,-2.8179,-2.8563,-3.1545,-3.2622,-3.2372,0.0,-3.0058,-2.9173,0.0,-2.6087,-2.7145,-2.162,0.0,0.0,0.0,0.0,0.0,0.0,-1.9357,0.0,0.0,0.0,0.0,0.0,0.0,0.0,0.0,0.0,0.0,0.0,0.0,0.0,0.0,0.0,0.0,0.0,0.0,0.0,0.0,0.0,0.0,-3.0605,-2.875,-2.8457,-3.0781,-3.0898,-3.0898,-3.0898,-3.2441,-3.3301,-3.3398,-3.5039,-3.5898,-3.5996,-3.5996,-3.5996,-3.5996,-3.5996,-3.5996,-3.5996,-3.5996,-3.6484,-3.7363,-3.8125,-3.9023,-3.9902,-3.9902,-4.043,-4.1191,-4.1191,-4.1191,-4.1191,-2.5308,-2.5308,-2.5308,-2.5308,-2.5308,-2.5308,-2.5308,-2.6538,-2.7601,-2.7876,-2.9179,-3.0179,-3.0385,-2.9948,-2.9698,-2.9833,0.0,-2.7087,0.0,0.0,-2.2197,-2.0385,-1.8796,-1.7815,-1.7558,-1.5654,-1.4,-1.2702,-1.1831,-1.0944,-1.0094,-1.0094,-1.1423,-1.3849,-1.4788,-1.6445,-1.8526,0.0,-1.8888,0.0,0.0,0.0,0.0,-2.7794,-3.0794,-3.0987,-3.2391,-3.2891,-3.2795,0.0,-3.0871,0.0,0.0,0.0,0.0,0.0,0.0,0.0,0.0,0.0,0.0,0.0,0.0,0.0,-1.6658,0.0,-1.5864,0.0,0.0,0.0,0.0,0.0,0.0,0.0,0.0,0.0,0.0,0.0,0.0,0.0,0.0,0.0,0.0,0.0,0.0,0.0,0.0,-2.8144,-3.0762,-3.0898,-3.1133,-3.1641,-3.2793,-3.3633,-3.4141,-3.5371,-3.5996,-3.5996,-3.5996,-3.5996,-3.5996,-3.5996,-3.5996,-3.6035,-3.6523,-3.7246,-3.8125,-3.8984,-3.9863,-4.0644,-4.0644,-4.0879,-4.1191,-4.1191,-4.1191,-4.1191,-2.5308,-2.5308,-2.5308,-2.5308,-2.5308,-2.5308,-2.5308,-2.6871,-2.8025,-2.7915,-2.9506,-3.0679,-3.075,-3.039,-3.039,-3.1019,-3.0198,-2.9063,0.0,0.0,-2.4413,-2.2774,-2.0566,-1.9007,-1.8238,-1.6,-1.4137,-1.2702,-1.1581,-1.0714,-1.0094,-1.0094,-1.1769,-1.4772,-1.5541,-1.8061,-2.1701,0.0,-2.085,-2.1662,-2.3024,-2.3558,-2.4149,-3.0,-3.2795,-3.3603,-3.3603,-3.3603,-3.3545,-3.3064,-3.166,0.0,-3.1775,0.0,0.0,0.0,0.0,0.0,-2.3793,0.0,0.0,0.0,0.0,0.0,0.0,0.0,0.0,0.0,0.0,0.0,0.0,0.0,0.0,0.0,0.0,0.0,0.0,0.0,0.0,0.0,0.0,0.0,0.0,0.0,0.0,0.0,0.0,0.0,-3.0723,-3.0898,-3.1309,-3.2168,-3.2988,-3.3828,-3.4687,-3.5566,-3.5996,-3.5996,-3.5996,-3.5996,-3.5996,-3.5996,-3.6133,-3.6387,-3.7031,-3.793,-3.9004,-3.9648,-4.041,-4.1191,-4.1191,-4.1191,-4.1191,-4.1191,-4.1191,-4.1191,-2.5308,-2.5308,-2.5308,-2.5308,-2.5308,-2.5308,-2.5308,-2.5365,-2.6019,0.0,0.0,0.0,0.0,0.0,0.0,0.0,0.0,-3.2929,-3.0442,0.0,-2.8088,-2.88,-2.3312,-2.0985,0.0,-1.6904,-1.3538,-1.2702,-1.0983,-1.0133,-1.0094,-1.0094,-1.0171,-1.0519,-1.5426,-1.818,-1.9338,-2.2571,-2.678,-3.1102,-2.9511,-3.1314,-3.4635,0.0,-3.2538,-3.5423,-3.5423,0.0,0.0,-3.3468,-3.2852,0.0,0.0,0.0,0.0,0.0,0.0,0.0,0.0,0.0,0.0,-2.1538,0.0,0.0,0.0,0.0,-1.7186,0.0,0.0,0.0,0.0,0.0,0.0,0.0,0.0,0.0,0.0,0.0,0.0,0.0,0.0,0.0,0.0,0.0,0.0,0.0,0.0,0.0,-3.0625,-3.0898,-3.1309,-3.2168,-3.2988,-3.3828,-3.4687,-3.5566,-3.5996,-3.5996,-3.5996,-3.5996,-3.5996,-3.5996,-3.6465,-3.7266,-3.7285,-3.8262,-3.9863,-3.9883,-4.041,-4.1191,-4.1191,-4.1191,-4.1191,-4.1191,-4.1191,-4.1191,-2.5308,-2.5308,-2.5135,-2.4601,-2.4509,-2.4697,-2.5212,-2.6269,0.0,0.0,0.0,0.0,0.0,-3.3112,-3.3383,0.0,0.0,-3.3583,-3.216,-3.0487,0.0,0.0,0.0,-2.2816,0.0,-1.86,-1.5465,-1.35,-1.1791,-1.0964,-1.0944,-1.0365,-1.0998,-1.2764,-1.6176,-1.9474,0.0,0.0,0.0,0.0,0.0,-3.0987,-3.3776,0.0,0.0,-3.55,-3.55,-3.55,0.0,-3.4827,-3.3853,-3.3006,-3.3596,-3.2423,-3.1,-3.1814,-3.1481,0.0,0.0,0.0,-2.9313,-2.475,0.0,0.0,0.0,0.0,0.0,0.0,0.0,0.0,0.0,0.0,0.0,0.0,0.0,0.0,0.0,0.0,0.0,0.0,0.0,0.0,0.0,0.0,0.0,0.0,0.0,0.0,0.0,-3.0898,-3.1543,-3.2949,-3.3262,-3.4101,-3.5547,-3.5859,-3.5996,-3.5996,-3.5996,-3.5996,-3.6016,-3.6601,-3.7012,-3.7363,-3.8516,-3.9355,-3.9941,-4.0527,-4.0937,-4.1191,-4.1191,-4.1191,-4.1191,-4.1191,-4.1191,-4.1191,-2.5326,-2.5091,-2.4793,-2.4567,-2.4529,-2.4697,0.0,0.0,0.0,0.0,-3.0685,0.0,-3.4184,0.0,-3.3986,0.0,-3.5032,-3.416,-3.2987,-3.1891,0.0,-3.0063,-2.7357,0.0,0.0,0.0,-1.7965,-1.5712,-1.3404,-1.2137,-1.1831,-1.0964,-1.1596,-1.3577,-1.5811,-1.9558,-2.4332,-2.625,-2.8473,0.0,0.0,-3.2352,0.0,0.0,-3.5115,0.0,0.0,-3.55,-3.55,-3.55,-3.475,-3.4026,-3.5154,-3.3981,-3.2423,-3.3506,-3.3058,-3.2077,-3.1462,-3.1698,0.0,-2.7212,-2.5832,0.0,-2.0027,0.0,0.0,0.0,0.0,0.0,0.0,0.0,0.0,0.0,0.0,0.0,0.0,0.0,0.0,0.0,0.0,0.0,0.0,0.0,0.0,0.0,0.0,0.0,0.0,0.0,-3.168,-3.3359,-3.3398,-3.4238,-3.5976,-3.5996,-3.5996,-3.5996,-3.5996,-3.6152,-3.6484,-3.7031,-3.7637,-3.8281,-3.9414,-4.0078,-4.041,-4.0976,-4.1191,-4.1191,-4.1191,-4.1191,-4.1191,-4.1191,-4.1191,-4.1191,-2.5399,-2.4732,-2.4412,-2.5164,-2.5274,0.0,0.0,0.0,-2.8334,0.0,-3.0873,-3.2631,-3.4377,-3.4454,-3.4705,-3.5524,-3.5527,0.0,-3.3141,-3.2949,0.0,0.0,-3.014,-2.9184,-2.9223,0.0,0.0,0.0,-1.5596,-1.35,-1.2683,-1.1851,-1.193,-1.2834,-1.4503,0.0,-2.4438,-2.6872,-3.0871,-3.5585,-3.5528,-3.5442,-3.5385,-3.5462,0.0,-3.3122,-3.4865,-3.55,-3.55,-3.55,-3.55,-3.55,-3.55,-3.55,-3.55,-3.55,-3.55,-3.5135,-3.3487,-3.3026,-3.2237,-2.8948,0.0,0.0,0.0,0.0,-2.3509,0.0,0.0,0.0,0.0,0.0,0.0,0.0,0.0,0.0,0.0,0.0,0.0,0.0,0.0,0.0,0.0,0.0,0.0,0.0,0.0,0.0,0.0,0.0,0.0,-3.334,-3.3398,-3.4238,-3.5976,-3.5996,-3.5996,-3.5996,-3.5996,-3.6465,-3.7305,-3.7344,-3.8281,-3.9902,-3.9941,-4.043,-4.1191,-4.1191,-4.1191,-4.1191,-4.1191,-4.1191,-4.1191,-4.1191,-4.1191,-4.1191,-2.5395,-2.5269,-2.5185,0.0,-2.4838,-2.4601,0.0,0.0,0.0,0.0,-3.1744,-3.3543,-3.5355,-3.5387,-3.5379,-3.564,-3.5574,0.0,0.0,0.0,0.0,-3.4481,-3.1654,-3.0371,-3.1025,-2.5409,0.0,-1.9965,0.0,0.0,-1.2702,-1.2469,-1.2793,-1.367,-1.5407,-1.956,-2.5366,-2.7134,-3.0862,-3.5528,-3.552,-3.4712,0.0,0.0,-3.4423,-3.3122,-3.4865,-3.55,-3.55,-3.55,-3.55,-3.55,-3.55,-3.55,-3.55,-3.55,-3.55,-3.5404,-3.4942,-3.4827,-3.4308,-3.216,-3.0679,-2.9135,0.0,0.0,0.0,0.0,0.0,0.0,0.0,0.0,0.0,0.0,0.0,0.0,0.0,0.0,0.0,0.0,0.0,0.0,0.0,0.0,0.0,0.0,0.0,0.0,0.0,0.0,0.0,-3.3281,-3.3398,-3.4238,-3.5976,-3.5996,-3.5996,-3.5996,-3.5996,-3.6465,-3.7324,-3.7969,-3.8867,-3.9941,-4.0586,-4.0996,-4.1191,-4.1191,-4.1191,-4.1191,-4.1191,-4.1191,-4.1191,-4.1191,-4.1191,-4.1191,-2.5391,-2.5703,0.0,-2.5467,0.0,0.0,-2.646,0.0,0.0,-3.0417,-3.2186,0.0,-3.4694,-3.5304,-3.5663,-3.57,-3.5577,0.0,0.0,0.0,0.0,-3.4346,-3.325,-3.2865,-3.3346,-2.8986,0.0,-2.2481,0.0,0.0,-1.3775,-1.3406,-1.3462,-1.3975,0.0,-1.9046,-2.3609,-2.7822,-3.1248,-3.3942,-3.5058,0.0,0.0,-3.5135,-3.4885,-3.418,-3.5154,-3.55,-3.55,-3.55,-3.55,-3.55,-3.55,-3.55,-3.55,-3.55,-3.55,-3.55,-3.55,-3.55,-3.525,-3.4269,-3.3327,-3.2096,-3.0025,-2.9179,-2.8352,0.0,0.0,0.0,0.0,0.0,0.0,0.0,0.0,0.0,0.0,0.0,0.0,0.0,0.0,0.0,0.0,0.0,0.0,0.0,0.0,0.0,0.0,0.0,0.0,-3.3301,-3.3066,-3.3887,-3.5976,-3.5234,-3.5254,-3.5996,-3.6387,-3.7012,-3.7891,-3.8769,-3.9648,-4.0508,-4.0996,-4.1191,-4.1191,-4.1191,-4.1191,-4.1191,-4.1191,-4.1191,-4.1191,-4.1191,-4.1191,-4.1191,-2.5573,-2.6159,0.0,0.0,0.0,0.0,0.0,-2.8647,0.0,-3.0937,0.0,-3.373,-3.373,-3.4911,-3.5707,-3.5707,0.0,-3.4865,-3.3333,-3.4654,-3.4827,-3.3314,-3.4692,-3.55,-3.55,-3.2885,0.0,0.0,0.0,0.0,-1.4865,-1.4209,-1.3841,-1.3824,0.0,0.0,0.0,-2.8788,-3.1946,0.0,-3.4615,-3.55,-3.55,-3.55,-3.55,-3.55,-3.55,-3.55,-3.55,-3.55,-3.55,-3.55,-3.55,-3.55,-3.55,-3.55,-3.55,-3.55,-3.55,-3.55,-3.55,-3.55,-3.55,-3.4923,-3.2692,-3.2102,-3.1602,-3.0088,-2.7889,0.0,0.0,0.0,0.0,0.0,0.0,0.0,0.0,0.0,0.0,0.0,0.0,0.0,0.0,0.0,0.0,0.0,0.0,0.0,0.0,0.0,0.0,0.0,-3.2832,0.0,-3.5801,0.0,-3.4492,-3.6016,-3.6875,-3.7812,-3.8809,-3.9551,-4.0371,-4.1191,-4.1191,-4.1191,-4.1191,-4.1191,-4.1191,-4.1191,-4.1191,-4.1269,-4.1367,-4.1367,-4.1426,-4.1504,-2.6533,-2.6672,-2.6495,0.0,0.0,-2.8828,-3.012,-3.1498,-3.252,-3.2813,-3.4431,-3.5547,-3.5547,-3.5635,-3.5707,-3.5707,-3.5577,0.0,0.0,0.0,0.0,-3.5058,-3.5346,-3.55,-3.55,-3.2308,-2.8885,0.0,0.0,-1.7984,-1.3142,-1.3651,-1.3558,-1.2986,0.0,0.0,-2.5788,-3.0021,0.0,-3.4865,-3.5327,-3.55,-3.55,-3.55,-3.55,-3.55,-3.55,-3.55,-3.55,-3.55,-3.55,-3.55,-3.55,-3.55,-3.55,-3.55,-3.55,-3.55,-3.55,-3.55,-3.55,-3.55,-3.55,-3.5385,-3.4942,-3.4276,-3.3686,-3.3378,-3.1864,-3.0147,-2.8623,0.0,0.0,0.0,0.0,0.0,0.0,0.0,0.0,0.0,0.0,0.0,0.0,0.0,0.0,0.0,0.0,0.0,0.0,0.0,0.0,0.0,0.0,0.0,0.0,0.0,0.0,-3.6016,-3.6875,-3.8125,-3.9687,-3.9824,-4.0371,-4.1191,-4.1191,-4.1191,-4.1191,-4.1191,-4.1191,-4.1191,-4.1191,-4.1601,-4.2187,-4.2187,-4.2637,-4.3164,-2.7353,-2.7404,-2.7592,0.0,0.0,0.0,0.0,-3.4957,0.0,-3.4195,-3.4394,-3.4824,-3.5273,-3.5945,-3.619,-3.5746,-3.5963,-3.5942,-3.5538,-3.55,-3.55,-3.55,-3.55,0.0,-3.55,-3.3885,-3.0712,-2.5962,0.0,-2.0077,-1.4659,-1.4596,-1.4135,-1.3445,0.0,-2.0369,0.0,0.0,0.0,-3.3635,-3.4962,-3.55,-3.55,-3.55,-3.55,-3.55,-3.55,-3.55,-3.55,-3.55,-3.55,-3.55,-3.55,-3.55,-3.55,-3.55,-3.55,-3.55,-3.55,-3.55,-3.55,-3.55,-3.55,-3.55,-3.55,-3.5173,-3.4757,-3.4302,-3.3571,-3.1941,-2.8539,-2.5168,0.0,0.0,0.0,0.0,0.0,0.0,0.0,0.0,0.0,0.0,0.0,0.0,0.0,0.0,0.0,0.0,0.0,0.0,0.0,0.0,0.0,0.0,0.0,0.0,0.0,-3.6699,-3.8027,-3.9082,-3.9922,-4.0371,-4.0801,-4.1191,-4.1191,-4.1191,-4.1191,-4.1191,-4.1191,-4.1191,-4.1191,-4.1699,-4.2402,-4.2402,-4.3242,-4.4258,-2.866,-2.8776,0.0,0.0,-3.2691,0.0,-3.5781,-3.748,-3.7851,-3.5801,-3.4922,-3.4766,-3.5449,-3.6569,-3.7003,-3.6307,-3.6698,-3.6712,-3.6077,-3.6019,-3.6019,-3.6019,-3.5846,-3.575,-3.575,-3.5596,-3.2846,0.0,0.0,0.0,0.0,-1.5772,-1.5112,0.0,0.0,0.0,0.0,0.0,-3.2006,-3.2673,-3.4692,-3.55,-3.5519,-3.5692,-3.5654,-3.5519,-3.5692,-3.5654,-3.55,-3.55,-3.55,-3.55,-3.55,-3.55,-3.55,-3.55,-3.55,-3.55,-3.55,-3.55,-3.55,-3.55,-3.55,-3.55,-3.55,-3.55,-3.5308,-3.4622,-3.434,-3.2955,-2.8896,-2.6309,0.0,0.0,0.0,0.0,0.0,0.0,0.0,0.0,0.0,0.0,0.0,0.0,0.0,0.0,0.0,0.0,0.0,0.0,0.0,0.0,0.0,0.0,-3.5176,0.0,-3.5937,0.0,-3.9062,-4.0,-4.0195,-4.0898,-4.1191,-4.1191,-4.1191,-4.1191,-4.1191,-4.1191,-4.1308,-4.1465,-4.1465,-4.207,-4.2949,-4.2949,-4.3945,-4.5176,0.0,0.0,0.0,0.0,0.0,0.0,0.0,-3.748,-3.8516,-3.8262,-3.8164,-3.8144,-3.8223,-3.8192,-3.8155,-3.8054,-3.7955,-3.7853,-3.7777,-3.7777,-3.7777,-3.7777,-3.7007,-3.6596,-3.6596,-3.5865,-3.3712,0.0,0.0,0.0,0.0,-1.6311,0.0,0.0,0.0,0.0,0.0,-3.1141,-3.3019,-3.5173,-3.5404,-3.55,-3.5577,-3.6308,-3.6135,-3.5596,-3.6327,-3.6115,-3.55,-3.55,-3.55,-3.55,-3.55,-3.55,-3.55,-3.55,-3.55,-3.55,-3.55,-3.55,-3.55,-3.55,-3.55,-3.55,-3.55,-3.55,-3.5481,-3.5404,-3.4757,-3.3128,-2.9627,-3.0012,-2.9624,0.0,0.0,0.0,0.0,0.0,0.0,0.0,0.0,0.0,0.0,0.0,0.0,0.0,0.0,0.0,0.0,0.0,0.0,-3.2324,0.0,-3.3125,-3.2559,-3.5547,0.0,-3.7324,-3.9062,-4.0312,-4.1074,-4.1152,-4.1191,-4.1191,-4.1191,-4.1191,-4.1191,-4.1191,-4.1621,-4.2285,-4.2285,-4.3301,-4.4766,-4.4766,-4.5351,-4.6172,0.0,0.0,0.0,0.0,0.0,0.0,0.0,-3.9707,-4.0156,-4.0156,-3.9258,-3.8809,-3.9316,-3.9202,-3.8871,-3.8346,-3.8593,-3.8565,-3.8027,-3.8007,-3.8007,-3.8007,-3.768,-3.7488,-3.7488,-3.718,-3.5584,0.0,0.0,0.0,0.0,0.0,0.0,0.0,0.0,-2.8481,-3.0558,-3.2962,-3.4577,-3.55,-3.55,-3.5788,-3.625,-3.6577,-3.6827,-3.6969,-3.6769,-3.6481,-3.6154,-3.5654,-3.55,-3.55,-3.55,-3.55,-3.55,-3.55,-3.55,-3.55,-3.55,-3.55,-3.55,-3.55,-3.55,-3.55,-3.55,-3.55,-3.55,-3.55,-3.4814,-3.3782,-3.2416,-3.105,-3.0127,0.0,0.0,0.0,0.0,0.0,0.0,0.0,0.0,0.0,0.0,0.0,0.0,0.0,0.0,0.0,0.0,0.0,0.0,-3.1328,0.0,-3.4551,-3.3711,-3.6601,-3.834,-3.8887,-4.0098,-4.0859,-4.1191,-4.1191,-4.1191,-4.1191,-4.1191,-4.1191,-4.1191,-4.1191,-4.168,-4.2402,-4.2402,-4.3476,-4.5,-4.5,-4.5547,-4.6308,-3.6336,0.0,-3.6502,0.0,-3.8826,-3.9062,-4.0918,-4.1191,-4.1191,-4.1191,-4.0137,-3.9609,-4.0215,-4.0099,-3.9704,-3.9085,-3.9411,-3.94,-3.8777,-3.8738,-3.8738,-3.8738,-3.8507,0.0,-3.8373,-3.8123,-3.7123,-3.5321,-3.1589,0.0,0.0,0.0,0.0,0.0,-2.9942,-3.1558,-3.2404,-3.4827,-3.6,-3.6231,-3.6231,-3.6577,-3.7123,-3.7373,-3.77,-3.795,-3.7584,-3.7296,-3.7007,-3.6423,-3.6231,-3.6154,-3.5654,-3.55,-3.55,-3.55,-3.55,-3.55,-3.55,-3.55,-3.55,-3.55,-3.55,-3.55,-3.55,-3.55,-3.55,-3.55,-3.5007,-3.4584,-3.4584,-3.2397,-3.1067,-3.2523,0.0,0.0,0.0,0.0,0.0,0.0,-3.0293,-2.9648,0.0,0.0,0.0,0.0,0.0,0.0,0.0,0.0,0.0,0.0,0.0,0.0,0.0,0.0,-3.9043,-3.9902,-4.0781,-4.1191,-4.1191,-4.1191,-4.1191,-4.1191,-4.1191,-4.1191,-4.1211,-4.1465,-4.2031,-4.2812,-4.3066,-4.4062,-4.5371,-4.5371,-4.5762,-4.6308,-3.8085,-3.8454,-3.9029,-4.0859,-4.1152,-4.1152,-4.1191,-4.1191,-4.1191,-4.1191,-4.1172,-4.1172,-4.1172,-4.0959,-4.0778,-4.0778,-4.0591,-4.0477,-4.0477,-4.0477,-4.0477,0.0,0.0,-3.9284,-3.9284,-3.843,-3.7988,-3.795,0.0,0.0,-3.2737,-3.0204,-2.9929,-3.166,-3.2506,-3.4276,-3.6635,-3.6673,-3.718,-3.7969,-3.7969,-3.7988,-3.8084,-3.8931,-3.8738,-3.8104,-3.895,-3.8719,-3.7988,-3.7969,-3.7969,-3.768,-3.6019,-3.55,-3.55,-3.55,-3.55,-3.55,-3.55,-3.55,-3.55,-3.55,-3.55,-3.55,-3.55,-3.55,-3.55,-3.55,-3.5481,-3.5481,-3.5481,-3.4757,-3.3609,-3.1974,0.0,0.0,0.0,0.0,0.0,0.0,-2.582,-2.5234,-3.0371,0.0,0.0,0.0,0.0,0.0,0.0,0.0,0.0,-3.3262,-3.3418,0.0,-3.4687,-3.7285,-3.9043,-3.9902,-4.0781,-4.1191,-4.1191,-4.1191,-4.1191,-4.1191,-4.1191,-4.1191,-4.1269,-4.2051,-4.2891,-4.3769,-4.4629,-4.5508,-4.6289,-4.6289,-4.6289,-4.6308,-4.0051,-4.0281,-4.0526,-4.1094,-4.1191,-4.1191,-4.1191,-4.1191,-4.1191,-4.1191,-4.1191,-4.1191,-4.1191,-4.0959,-4.0797,0.0,-4.061,-4.0496,0.0,-4.0496,-4.0496,-4.0496,-4.0246,-4.0112,-4.0112,-3.9861,-3.9708,-3.9708,0.0,0.0,0.0,-3.2955,-3.3795,-3.6007,-3.6257,-3.6834,-3.7584,-3.7584,-3.7757,-3.8007,-3.8007,-3.8354,-3.8911,-3.9188,-3.9477,-3.9669,-3.94,-3.913,-3.8796,-3.82,-3.8007,-3.7911,-3.7373,-3.6788,-3.6327,-3.6327,-3.5923,-3.55,-3.55,-3.55,-3.55,-3.55,-3.55,-3.55,-3.55,-3.55,-3.55,-3.55,-3.55,-3.55,-3.55,-3.5269,-3.4931,-3.4447,-3.4667,0.0,0.0,0.0,0.0,0.0,0.0,-3.1894,0.0,0.0,0.0,0.0,0.0,0.0,0.0,0.0,0.0,0.0,-3.4531,0.0,-3.5586,-3.8184,-3.9922,-4.0781,-4.1074,-4.1191,-4.1191,-4.1191,-4.1191,-4.1191,-4.1191,-4.1191,-4.1269,-4.207,-4.291,-4.3789,-4.4668,-4.5527,-4.6308,-4.6308,-4.6308,-4.6308,-4.1049,-4.1149,-4.1191,-4.1191,-4.1191,-4.1191,-4.1191,-4.1191,-4.1191,-4.1191,-4.1191,-4.1171,-4.1128,-4.0925,0.0,-4.0797,-4.061,-4.0496,-4.0496,-4.0496,-4.0496,-4.0496,-4.0496,-4.0496,-4.0496,0.0,0.0,-4.0496,-3.8392,-3.7103,-3.6572,-3.6572,-3.7245,-3.8488,-3.8488,-3.8488,-3.8488,-3.8488,-3.8661,-3.8931,-3.8931,-3.9265,-3.9746,-3.9746,-4.0054,-4.0439,-3.9938,-3.9746,-3.9669,-3.9123,-3.8931,-3.8931,-3.8931,-3.8354,-3.7546,-3.6885,-3.6135,-3.55,-3.55,-3.55,-3.55,-3.55,-3.55,-3.55,-3.55,-3.55,-3.55,-3.55,-3.55,-3.55,-3.55,-3.55,-3.5521,-3.557,-3.5648,-3.5548,-3.5083,0.0,0.0,0.0,0.0,0.0,0.0,-3.2637,0.0,0.0,0.0,0.0,0.0,0.0,0.0,-3.3262,-3.5898,0.0,-3.7461,-3.9082,-4.0332,-4.1191,-4.1191,-4.1191,-4.1191,-4.1191,-4.1191,-4.1191,-4.1191,-4.1367,-4.1719,-4.2558,-4.3398,-4.4277,-4.5156,-4.582,-4.6308,-4.6308,-4.6308,-4.6308,-4.1148,-4.1191,0.0,0.0,-4.1191,0.0,-4.1191,-4.1191,-4.1191,-4.1191,-4.1191,-4.1148,-4.0996,-4.0867,-4.0789,-4.0789,0.0,0.0,0.0,-4.0496,-4.0496,-4.0496,-4.0496,0.0,-4.0496,-4.0496,-4.0496,-4.0496,-4.0496,-4.0496,-4.0496,-4.0496,-4.0092,-3.9381,-3.9381,-3.9381,-3.9381,-3.9381,-3.9823,-4.0496,-4.0496,-4.0496,-4.0496,-4.0496,-4.0496,-4.0496,-4.0496,-4.0496,-4.0496,-4.0496,-4.0496,-4.0496,-4.0496,-3.9958,-3.8977,-3.7276,-3.6212,-3.5577,-3.5519,-3.55,-3.55,-3.55,-3.55,-3.55,-3.55,-3.55,-3.55,-3.55,-3.55,-3.55,-3.55,-3.55,-3.55,-3.55,-3.5606,-3.5696,-3.5703,0.0,0.0,0.0,0.0,0.0,0.0,-3.2461,-3.3379,0.0,0.0,0.0,0.0,0.0,-3.2305,-3.7226,-3.7441,-3.8262,-3.9883,-3.9961,-4.0391,-4.1191,-4.1191,-4.1191,-4.1191,-4.1191,-4.1191,-4.1191,-4.1269,-4.1719,-4.2461,-4.3418,-4.4277,-4.5098,-4.5957,-4.6308,-4.6308,-4.6308,-4.6308,-4.6308,0.0,0.0,-4.1191,-4.1191,-4.1191,-4.1191,-4.1191,-4.1191,-4.1151,-4.1055,-4.1051,-4.0994,-4.0864,-4.0776,-4.0715,-4.0715,-4.0589,-4.0496,-4.0496,-4.0496,-4.0496,-4.0496,-4.0496,-4.0496,-4.0496,-4.0496,-4.0496,-4.0496,-4.0496,-4.0496,-4.0496,-4.0496,-4.04,-4.0227,-4.0227,-4.0227,-4.0227,-4.0227,-4.0323,-4.0496,-4.0496,-4.0496,-4.0496,-4.0496,-4.0496,-4.0496,-4.0496,-4.0496,-4.0496,-4.0496,-4.0496,-4.0496,-4.0496,-3.9958,-3.9092,-3.8007,-3.7084,-3.6269,-3.5673,-3.55,-3.55,-3.55,-3.55,-3.55,-3.55,-3.55,-3.55,-3.55,-3.55,-3.55,-3.55,-3.55,-3.55,-3.55,-3.556,-3.5633,-3.5696,-3.5821,0.0,0.0,-3.5098,-3.5098,-3.5098,-3.5098,-3.4531,0.0,0.0,0.0,0.0,0.0,-3.5644,-3.8203,-3.8945,-3.9473,-3.9902,-4.0566,-4.0996,-4.1191,-4.1191,-4.1191,-4.1191,-4.1191,-4.1191,-4.123,-4.1855,-4.2226,-4.2519,-4.4062,-4.4805,-4.5098,-4.5957,-4.6308,-4.6308,-4.6308,-4.6308,-4.6308,-4.2147,-4.1931,-4.1712,-4.1738,-4.1445,-4.1191,-4.1191,-4.1191,-4.115,-4.1021,-4.0996,-4.0942,-4.0776,-4.0729,-4.0687,-4.0616,-4.0537,-4.0496,-4.0496,-4.0496,-4.0496,-4.0496,-4.0496,-4.0496,-4.0496,-4.0496,-4.0496,-4.0496,-4.0496,-4.0496,-4.0496,-4.0496,-4.0496,-4.0496,-4.0496,-4.0496,-4.0496,-4.0496,-4.0496,-4.0496,-4.0496,-4.0496,-4.0496,-4.0496,-4.0496,-4.0496,-4.0496,-4.0496,-4.0496,-4.0496,-4.0496,-4.0496,-4.0496,-4.0208,-3.9688,-3.8834,-3.77,-3.6596,-3.6173,-3.5788,-3.55,-3.55,-3.55,-3.55,-3.55,-3.55,-3.55,-3.55,-3.55,-3.55,-3.55,-3.55,-3.55,-3.55,-3.5588,-3.5663,-3.5696,-3.5834,0.0,-3.5996,-3.5996,-3.5996,-3.5996,-3.5996,-3.5586,-3.4609,0.0,0.0,-3.6348,-3.7266,-3.8223,-3.916,-3.9648,-4.0098,-4.0488,-4.0957,-4.1191,-4.1191,-4.1191,-4.1191,-4.1191,-4.1191,-4.1406,-4.1777,-4.2207,-4.2851,-4.3652,-4.4609,-4.5234,-4.5644,-4.6113,-4.6308,-4.6308,-4.6308,-4.6308,-4.6308,-4.3568,-4.3008,-4.2537,-4.2597,-4.2031,-4.1562,-4.1562,-4.1561,-4.1515,-4.1347,-4.1337,-4.1259,-4.1079,-4.1067,-4.1009,-4.0897,-4.09,-4.0785,-4.0516,-4.0496,-4.0496,-4.0496,-4.0496,-4.0496,-4.0496,-4.0496,-4.0496,-4.0496,-4.0496,-4.0496,-4.0496,-4.0496,-4.0496,-4.0496,-4.0496,-4.0496,-4.0496,-4.0496,-4.0496,-4.0496,-4.0496,-4.0496,-4.0496,-4.0496,-4.0496,-4.0496,-4.0496,-4.0496,-4.0496,-4.0496,-4.0496,-4.0496,-4.0496,-4.0496,-4.0362,-3.9688,-3.8354,-3.7058,-3.6923,-3.6308,-3.5673,-3.5673,-3.5596,-3.55,-3.55,-3.55,-3.55,-3.55,-3.55,-3.55,-3.55,-3.55,-3.5411,-3.5161,-3.5432,-3.5596,-3.5369,0.0,-3.5995,-3.5996,-3.5996,-3.6055,-3.6172,-3.6191,-3.6562,-3.7422,-3.7617,0.0,0.0,-4.0019,-4.0098,-4.0098,-4.0098,-4.0449,-4.1191,-4.1191,-4.1191,-4.1191,-4.1191,-4.1191,-4.1191,-4.1328,-4.1758,-4.2402,-4.2676,-4.3633,-4.5019,-4.5137,-4.5625,-4.6308,-4.6308,-4.6308,-4.6308,-4.6308,-4.6308,-4.6308,-4.3591,-4.3543,-4.3495,-4.3496,-4.3398,-4.3299,-4.3235,-4.3228,-4.3148,-4.2886,-4.2854,-4.2821,-4.2734,-4.273,-4.2714,-4.2701,-4.2701,-4.2066,-4.0593,-4.0496,-4.0496,-4.0496,-4.0496,-4.0496,-4.0496,-4.0496,-4.0496,-4.0496,-4.0496,-4.0496,-4.0496,-4.0496,-4.0496,-4.0496,-4.0496,-4.0496,-4.0496,-4.0496,-4.0496,-4.0496,-4.0496,-4.0496,-4.0496,-4.0496,-4.0496,-4.0496,-4.0496,-4.0496,-4.0496,-4.0496,-4.0496,-4.0496,-4.0496,-4.0496,-4.0477,-4.0342,-3.965,-3.8738,-3.8007,-3.718,-3.65,-3.65,-3.6,-3.55,-3.55,-3.55,-3.55,-3.55,-3.55,-3.55,-3.55,-3.55,-3.5033,-3.3619,-3.4647,-3.5161,-3.3862,0.0,-3.5942,-3.5996,-3.5996,-3.6289,-3.7031,-3.7109,-3.7461,-3.832,-3.9082,-3.9609,-3.9883,-4.0605,-4.0996,-4.0996,-4.0996,-4.1055,-4.1191,-4.1191,-4.1191,-4.1191,-4.1191,-4.1191,-4.1211,-4.1894,-4.2285,-4.248,-4.3965,-4.4746,-4.5058,-4.5781,-4.6172,-4.6308,-4.6308,-4.6308,-4.6308,-4.6308,-4.6308,-4.6308,-4.4933,-4.4585,-4.4327,-4.4394,-4.3981,-4.3633,-4.3591,-4.3606,-4.3497,-4.3251,-4.3266,-4.3251,-4.3118,-4.3104,-4.3104,-4.3104,-4.3138,-4.2806,-4.1958,-4.1893,-4.1893,-4.1893,-4.145,-4.0969,-4.0516,-4.0496,-4.0496,-4.0496,-4.0496,-4.0496,-4.0496,-4.0496,-4.0496,-4.0496,-4.0496,-4.0496,-4.0496,-4.0496,-4.0496,-4.0496,-4.0496,-4.0496,-4.0496,-4.0496,-4.0496,-4.0496,-4.0496,-4.0496,-4.0496,-4.0496,-4.0496,-4.0496,-4.0496,-4.0496,-4.0496,-4.0496,-3.9938,-3.9111,-3.8238,-3.7719,-3.7296,-3.6808,-3.6423,-3.6038,-3.5596,-3.55,-3.55,-3.55,-3.55,-3.55,-3.55,-3.55,-3.5251,-3.4462,-3.5073,0.0,0.0,-3.5772,-3.6675,-3.6699,-3.7109,-3.7559,-3.7969,-3.8008,-3.8359,-3.9238,-3.9668,-4.0098,-4.0586,-4.0976,-4.1191,-4.1191,-4.1191,-4.1191,-4.1191,-4.1191,-4.1191,-4.1191,-4.1191,-4.1426,-4.1855,-4.2226,-4.291,-4.3848,-4.4648,-4.5273,-4.5723,-4.6133,-4.6308,-4.6308,-4.6308,-4.6308,-4.6308,-4.6308,-4.6308,-4.6308,-4.6138,-4.5618,-4.5178,-4.5273,-4.4673,-4.4168,-4.4133,-4.4131,-4.4051,-4.3795,-4.3892,-4.3898,-4.3692,-4.3721,-4.374,-4.3724,-4.3768,-4.3789,-4.3743,-4.3701,-4.3508,-4.3124,-4.247,-4.17,-4.0823,-4.0804,-4.0708,-4.0496,-4.0496,-4.0496,-4.0496,-4.0496,-4.0496,-4.0496,-4.0496,-4.0496,-4.0496,-4.0496,-4.0496,-4.0496,-4.0496,-4.0496,-4.0496,-4.0496,-4.0496,-4.0496,-4.0496,-4.0496,-4.0496,-4.0496,-4.0496,-4.0496,-4.0496,-4.0496,-4.0496,-4.0496,-4.0054,-3.9438,-3.8757,-3.843,-3.8142,-3.7469,-3.7161,-3.6846,-3.6212,-3.6077,-3.6077,-3.6077,-3.6077,-3.6077,-3.6077,-3.6077,-3.5956,-3.5579,0.0,0.0,0.0,-3.6817,-3.7598,-3.7598,-3.8184,-3.8672,-3.8887,-3.8906,-3.9258,-4.0137,-4.0195,-4.0488,-4.1152,-4.1191,-4.1191,-4.1191,-4.1191,-4.1191,-4.1191,-4.1191,-4.1191,-4.1191,-4.1387,-4.1797,-4.2402,-4.2812,-4.373,-4.5019,-4.5215,-4.5683,-4.6308,-4.6308,-4.6308,-4.6308,-4.6308,-4.6308,-4.6308,-4.6308,-4.6308,-4.6308,-4.6289,-4.623,-4.6191,-4.6191,-4.6041,-4.5874,-4.5753,-4.5737,-4.5666,-4.5439,-4.5595,-4.5645,-4.5453,-4.5576,-4.5672,-4.5602,-4.5622,-4.5626,-4.5692,-4.552,-4.4729,-4.3162,-4.3047,-4.2604,-4.1712,-4.1692,-4.1316,-4.0496,-4.0496,-4.0496,-4.0496,-4.0496,-4.0496,-4.0496,-4.0496,-4.0496,-4.0496,-4.0496,-4.0496,-4.0496,-4.0496,-4.0496,-4.0496,-4.0496,-4.0496,-4.0496,-4.0496,-4.0496,-4.0496,-4.0496,-4.0496,-4.0496,-4.0496,-4.0496,-4.0496,-4.0496,-4.0458,-4.04,-4.0323,-3.9765,-3.9188,-3.913,-3.8507,-3.7892,-3.7834,-3.7815,-3.7815,-3.7815,-3.7815,-3.7815,-3.7815,-3.7815,-3.7338,-3.5832,0.0,0.0,-3.6096,-3.7393,-3.8496,-3.8496,-3.8555,-3.8926,-3.9726,-3.9805,-4.0176,-4.1035,-4.1094,-4.1133,-4.1191,-4.1191,-4.1191,-4.1191,-4.1191,-4.1191,-4.1191,-4.1191,-4.1191,-4.1211,-4.1953,-4.2344,-4.2441,-4.4062,-4.4883,-4.5039,-4.5859,-4.623,-4.6308,-4.6308,-4.6308,-4.6308,-4.6308,-4.6308,-4.6308,-4.6308,-4.6308,-4.6308,-4.6308,-4.6308,-4.6308,-4.6308,-4.6198,-4.6082,-4.6036,-4.6011,-4.5967,-4.5811,-4.5927,-4.5963,-4.5805,-4.5842,-4.5881,-4.5852,-4.5938,-4.5938,-4.5842,-4.5813,-4.5201,-4.391,-4.3835,-4.3451,-4.2624,-4.2604,-4.2431,-4.2104,-4.2104,-4.1835,-4.1316,-4.1316,-4.1008,-4.0496,-4.0496,-4.0496,-4.0496,-4.0496,-4.0496,-4.0496,-4.0496,-4.0496,-4.0496,-4.0496,-4.0496,-4.0496,-4.0496,-4.0496,-4.0496,-4.0496,-4.0496,-4.0496,-4.0496,-4.0496,-4.0496,-4.0496,-4.0496,-4.0496,-4.0496,-4.0285,-3.9919,-3.9419,-3.9053,-3.8661,-3.8123,-3.8007,-3.8007,-3.8007,-3.8007,-3.8007,-3.8007,-3.8007,-3.7791,-3.7192,0.0,-3.8091,-3.7472,-3.8556,-3.9414,-3.9414,-3.9883,-4.0332,-4.0664,-4.0703,-4.084,-4.1172,-4.1191,-4.1191,-4.1191,-4.1191,-4.1191,-4.1191,-4.1191,-4.1191,-4.1191,-4.1191,-4.1445,-4.1953,-4.2246,-4.2969,-4.4023,-4.4707,-4.5293,-4.582,-4.6152,-4.6308,-4.6308,-4.6308,-4.6308,-4.6308,-4.6308,-4.6308,-4.6308,-4.6308,-4.6308,-4.6308,-4.6308,-4.6308,-4.6308,-4.6308,-4.6198,-4.6108,-4.6108,-4.6108,-4.6047,-4.5916,-4.6047,-4.6106,-4.5916,-4.5978,-4.6001,-4.5974,-4.6001,-4.6001,-4.5896,-4.5876,-4.5517,-4.4737,-4.4701,-4.4316,-4.3489,-4.347,-4.3355,-4.3104,-4.3104,-4.2797,-4.222,-4.222,-4.1893,-4.1324,-4.1324,-4.1324,-4.1324,-4.1324,-4.1324,-4.1285,-4.1008,-4.0912,-4.0873,-4.0593,-4.0496,-4.0496,-4.0496,-4.0496,-4.0496,-4.0496,-4.0496,-4.0496,-4.0496,-4.0496,-4.0496,-4.0496,-4.0496,-4.0496,-4.0496,-4.0496,-4.0362,-3.9804,-3.9688,-3.9515,-3.8911,-3.8796,-3.8796,-3.8796,-3.8796,-3.8796,-3.8796,-3.8796,-3.8796,-3.8796,-3.8949,-3.9069,-3.9081,-3.9745,-4.0251,-4.0293,-4.084,-4.1191,-4.1191,-4.1191,-4.1191,-4.1191,-4.1191,-4.1191,-4.1191,-4.1191,-4.1191,-4.1191,-4.1191,-4.1328,-4.1562,-4.1582,-4.1855,-4.2402,-4.2949,-4.3848,-4.5019,-4.5273,-4.5723,-4.6308,-4.6308,-4.6308,-4.6308,-4.6308,-4.6308,-4.6308,-4.6308,-4.6308,-4.6308,-4.6308,-4.6308,-4.6308,-4.6308,-4.6308,-4.6308,-4.6308,-4.6198,-4.611,-4.611,-4.611,-4.6047,-4.5916,-4.6122,-4.62,-4.5928,-4.6144,-4.6247,-4.6115,-4.5981,-4.5967,-4.6084,-4.5911,-4.5733,-4.5603,-4.5594,-4.521,-4.4335,-4.4316,-4.3912,-4.3124,-4.3124,-4.3124,-4.3104,-4.3104,-4.3104,-4.3104,-4.3104,-4.3104,-4.3104,-4.3104,-4.3104,-4.3028,-4.2162,-4.1808,-4.172,-4.0843,-4.0516,-4.0496,-4.0496,-4.0496,-4.0496,-4.0496,-4.0496,-4.0496,-4.0496,-4.0496,-4.0496,-4.0496,-4.0496,-4.0496,-4.0496,-4.0496,-4.0496,-4.0496,-4.0496,-4.0496,-4.0496,-4.0496,-4.0496,-4.0496,-4.0496,-4.0496,-4.0496,-4.0496,-4.0496,-4.0496,-4.0616,-4.0715,-4.0785,-4.0917,-4.1052,-4.1172,-4.1191,-4.1191,-4.1191,-4.1191,-4.1191,-4.1191,-4.1191,-4.1191,-4.1191,-4.1191,-4.1191,-4.1191,-4.1211,-4.1582,-4.2383,-4.2402,-4.2402,-4.2441,-4.418,-4.5,-4.5039,-4.5918,-4.6308,-4.6308,-4.6308,-4.6308,-4.6308,-4.6308,-4.6308,-4.6308,-4.6308,-4.6308,-4.6308,-4.6308,-4.6308,-4.6308,-4.6308,-4.6308,-4.6308,-4.6308,-4.6268,-4.6246,-4.6246,-4.6246,-4.6224,-4.6196,-4.6247,-4.6268,-4.6198,-4.6248,-4.6289,-4.6247,-4.6117,-4.6001,-4.589,-4.5742,-4.5643,-4.5594,-4.5594,-4.5479,-4.5229,-4.521,-4.5094,-4.4863,-4.4863,-4.4528,-4.3932,-4.3932,-4.3643,-4.3104,-4.3104,-4.3104,-4.3104,-4.3104,-4.3104,-4.3085,-4.2816,-4.2354,-4.1769,-4.1508,-4.1027,-4.0496,-4.0496,-4.0496,-4.0496,-4.0496,-4.0496,-4.0496,-4.0496,-4.0496,-4.0496,-4.0496,-4.0496,-4.0496,-4.0496,-4.0496,-4.0496,-4.0496,-4.0496,-4.0496,-4.0496,-4.0496,-4.0496,-4.0496,-4.0496,-4.0496,-4.0496,-4.0496,-4.0496,-4.0496,-4.0653,-4.0779,-4.0793,-4.0994,-4.115,-4.1191,-4.1191,-4.1191,-4.1191,-4.1191,-4.1191,-4.1191,-4.1191,-4.1191,-4.1191,-4.1191,-4.1191,-4.1191,-4.1758,-4.2168,-4.2402,-4.2402,-4.3008,-4.4238,-4.4746,-4.5312,-4.5918,-4.6172,-4.6308,-4.6308,-4.6308,-4.6308,-4.6308,-4.6308,-4.6308,-4.6308,-4.6308,-4.6308,-4.6308,-4.6308,-4.6308,-4.6308,-4.6308,-4.6308,-4.6308,-4.6308,-4.6308,-4.6308,-4.6308,-4.6308,-4.6308,-4.6308,-4.6308,-4.6308,-4.6308,-4.6308,-4.6289,-4.6224,-4.6064,-4.5915,-4.5733,-4.5651,-4.5594,-4.5594,-4.5594,-4.5594,-4.5594,-4.5594,-4.5594,-4.5594,-4.5594,-4.5325,-4.4797,-4.4797,-4.4547,-4.4085,-4.4085,-4.4085,-4.4085,-4.4085,-4.4085,-4.4066,-4.3701,-4.3258,-4.2758,-4.245,-4.1777,-4.1008,-4.1008,-4.0785,-4.0496,-4.0496,-4.0496,-4.0496,-4.0496,-4.0496,-4.0496,-4.0496,-4.0496,-4.0496,-4.0496,-4.0496,-4.0496,-4.0496,-4.0496,-4.0496,-4.0496,-4.0496,-4.0496,-4.0496,-4.0537,-4.0566,-4.0512,-4.0537,-4.0588,-4.0588,-4.0682,-4.0784,-4.0864,-4.1023,-4.1149,-4.1191,-4.1191,-4.1191,-4.1191,-4.1191,-4.1191,-4.1191,-4.1191,-4.1191,-4.1191,-4.1504,-4.168,-4.168,-4.248,-4.3086,-4.3437,-4.3437,-4.3965,-4.5,-4.5351,-4.5781,-4.6308,-4.6308,-4.6308,-4.6308,-4.6308,-4.6308,-4.6308,-4.6308,-4.6308,-4.6308,-4.6308,-4.6308,-4.6308,-4.6308,-4.6308,-4.6308,-4.6308,-4.6308,-4.6308,-4.6308,-4.6308,-4.6308,-4.6308,-4.6308,-4.6308,-4.6308,-4.6289,-4.6289,-4.6289,-4.6268,-4.6222,-4.6087,-4.5911,-4.574,-4.5612,-4.5594,-4.5594,-4.5594,-4.5594,-4.5594,-4.5594,-4.5594,-4.5594,-4.5594,-4.5594,-4.5594,-4.5594,-4.5594,-4.5594,-4.5594,-4.5594,-4.5594,-4.5594,-4.5594,-4.5594,-4.5537,-4.4739,-4.4374,-4.422,-4.3489,-4.2681,-4.1904,-4.1827,-4.1296,-4.0593,-4.0535,-4.0496,-4.0496,-4.0496,-4.0496,-4.0496,-4.0496,-4.0496,-4.0496,-4.0496,-4.0496,-4.0496,-4.0496,-4.0496,-4.0496,-4.0496,-4.0512,-4.0519,-4.0519,-4.063,-4.068,-4.054,-4.0623,-4.0721,-4.0721,-4.0713,-4.0786,-4.0962,-4.1019,-4.1056,-4.1191,-4.1191,-4.1191,-4.1191,-4.1191,-4.1191,-4.1191,-4.1269,-4.1308,-4.1308,-4.207,-4.2519,-4.2519,-4.3359,-4.4199,-4.498,-4.5078,-4.5117,-4.5137,-4.5918,-4.6308,-4.6308,-4.6308,-4.6308,-4.6308,-4.6308,-4.6308,-4.6308,-4.6308,-4.6308,-4.6308,-4.6308,-4.6308,-4.6308,-4.6308,-4.6308,-4.6308,-4.6308,-4.6308,-4.6308,-4.6308,-4.6308,-4.6308,-4.6308,-4.6308,-4.6308,-4.6308,-4.6202,-4.6145,-4.6145,-4.6045,-4.5978,-4.5955,-4.5853,-4.574,-4.5612,-4.5594,-4.5594,-4.5594,-4.5594,-4.5594,-4.5594,-4.5594,-4.5594,-4.5594,-4.5594,-4.5594,-4.5594,-4.5594,-4.5594,-4.5594,-4.5594,-4.5594,-4.5594,-4.5594,-4.5594,-4.5575,-4.5402,-4.4913,-4.4278,-4.4105,-4.3528,-4.2739,-4.2047,-4.1681,-4.1412,-4.0727,-4.0496,-4.0496,-4.0496,-4.0496,-4.0496,-4.0496,-4.0496,-4.0496,-4.0496,-4.0496,-4.0496,-4.0496,-4.0496,-4.0496,-4.0496,-4.0568,-4.0668,-4.0668,-4.0712,-4.0775,-4.0747,-4.0766,-4.0784,-4.0784,-4.087,-4.0944,-4.0992,-4.1082,-4.1171,-4.1191,-4.1191,-4.1191,-4.1191,-4.1191,-4.1191,-4.1191,-4.1777,-4.2148,-4.2148,-4.2949,-4.3418,-4.3418,-4.4258,-4.4805,-4.5,-4.5683,-4.6016,-4.6016,-4.6211,-4.6308,-4.6308,-4.6308,-4.6308,-4.6308,-4.6308,-4.6308,-4.6308,-4.6308,-4.6308,-4.6308,-4.6308,-4.6308,-4.6308,-4.6308,-4.6308,-4.6308,-4.6308,-4.6308,-4.6308,-4.6308,-4.6308,-4.6308,-4.6308,-4.6308,-4.6308,-4.6308,-4.6177,-4.6108,-4.6108,-4.5981,-4.5896,-4.585,-4.5757,-4.568,-4.5603,-4.5594,-4.5594,-4.5594,-4.5594,-4.5594,-4.5594,-4.5594,-4.5594,-4.5594,-4.5594,-4.5594,-4.5594,-4.5594,-4.5594,-4.5594,-4.5594,-4.5594,-4.5594,-4.5594,-4.5594,-4.5594,-4.5594,-4.5325,-4.4921,-4.4921,-4.4393,-4.3605,-4.3162,-4.2489,-4.1681,-4.0785,-4.0496,-4.0496,-4.0496,-4.0496,-4.0496,-4.0496,-4.0496,-4.0496,-4.0496,-4.0496,-4.0496,-4.0496,-4.0496,-4.0519,-4.0568,-4.0596,-4.063,-4.0736,-4.0775,-4.0797,-4.0797,-4.0857,-4.0905,-4.0905,-4.0957,-4.1023,-4.1081,-4.115,-4.1191,-4.1191,-4.1191,-4.1191,-4.1191,-4.1191,-4.1367,-4.1738,-4.2168,-4.2578,-4.3008,-4.3848,-4.4316,-4.4316,-4.5176,-4.5625,-4.5625,-4.6074,-4.6308,-4.6308,-4.6308,-4.6308,-4.6308,-4.6308,-4.6308,-4.6308,-4.6308,-4.6308,-4.6308,-4.6308,-4.6308,-4.6308,-4.6308,-4.6308,-4.6289,-4.6225,-4.6201,-4.6201,-4.6268,-4.6268,-4.6268,-4.6245,-4.6247,-4.6268,-4.6268,-4.6289,-4.6308,-4.6308,-4.6152,-4.6072,-4.6072,-4.5939,-4.5828,-4.5769,-4.5665,-4.5594,-4.5594,-4.5594,-4.5594,-4.5594,-4.5594,-4.5594,-4.5594,-4.5594,-4.5594,-4.5594,-4.5594,-4.5594,-4.5594,-4.5594,-4.5594,-4.5594,-4.5594,-4.5594,-4.5594,-4.5594,-4.5594,-4.5594,-4.5594,-4.5594,-4.5594,-4.5594,-4.5152,-4.4489,-4.4355,-4.3316,-4.1912,-4.1181,-4.0843,-4.0727,-4.0727,-4.0631,-4.0496,-4.0496,-4.0496,-4.0496,-4.0496,-4.0496,-4.0496,-4.0496,-4.0496,-4.0549,-4.0661,-4.0616,-4.0577,-4.0747,-4.0785,-4.0805,-4.082,-4.0922,-4.1017,-4.1026,-4.1028,-4.1077,-4.1172,-4.1191,-4.1191,-4.1191,-4.1191,-4.125,-4.1386,-4.1406,-4.1738,-4.2558,-4.2754,-4.3164,-4.3887,-4.4746,-4.5215,-4.5215,-4.5918,-4.6308,-4.6308,-4.6308,-4.6308,-4.6308,-4.6308,-4.6308,-4.6308,-4.6308,-4.6308,-4.6308,-4.6308,-4.6308,-4.6308,-4.6308,-4.6308,-4.6308,-4.6308,-4.6308,-4.6289,-4.6147,-4.6108,-4.6108,-4.6147,-4.614,-4.6084,-4.5978,-4.6045,-4.614,-4.614,-4.6224,-4.6308,-4.6308,-4.6082,-4.5924,-4.5924,-4.5764,-4.5632,-4.5618,-4.5612,-4.5594,-4.5594,-4.5594,-4.5594,-4.5594,-4.5594,-4.5594,-4.5594,-4.5594,-4.5594,-4.5594,-4.5594,-4.5594,-4.5594,-4.5594,-4.5594,-4.5594,-4.5594,-4.5594,-4.5594,-4.5594,-4.5594,-4.5594,-4.5594,-4.5594,-4.5594,-4.5594,-4.5537,-4.5325,-4.4566,-4.3701,-4.2912,-4.2797,-4.2258,-4.1623,-4.1623,-4.1104,-4.0496,-4.0496,-4.0496,-4.0496,-4.0496,-4.0496,-4.0496,-4.0496,-4.0496,-4.0549,-4.0661,-4.068,-4.068,-4.0701,-4.0767,-4.0847,-4.0955,-4.099,-4.1048,-4.115,-4.1171,-4.1171,-4.1191,-4.1191,-4.1191,-4.1191,-4.1191,-4.1443,-4.2084,-4.2203,-4.2598,-4.3457,-4.4219,-4.4707,-4.4824,-4.5644,-4.6113,-4.6113,-4.623,-4.6308,-4.6308,-4.6308,-4.6308,-4.6308,-4.6308,-4.6308,-4.6308,-4.6308,-4.6308,-4.6308,-4.6308,-4.6308,-4.6308,-4.6308,-4.6308,-4.6308,-4.6308,-4.6308,-4.6289,-4.6147,-4.6108,-4.6082,-4.6115,-4.6039,-4.5974,-4.5907,-4.6001,-4.6108,-4.6108,-4.6203,-4.6269,-4.62,-4.6027,-4.5896,-4.5859,-4.5703,-4.5594,-4.5594,-4.5594,-4.5594,-4.5594,-4.5594,-4.5594,-4.5594,-4.5594,-4.5594,-4.5594,-4.5594,-4.5594,-4.5594,-4.5594,-4.5594,-4.5594,-4.5594,-4.5594,-4.5594,-4.5594,-4.5594,-4.5594,-4.5594,-4.5594,-4.5594,-4.5594,-4.5594,-4.5594,-4.5594,-4.5594,-4.5498,-4.4605,-4.4066,-4.3701,-4.3258,-4.2835,-4.2527,-4.2527,-4.1931,-4.1239,-4.1239,-4.0873,-4.0496,-4.0496,-4.0496,-4.0496,-4.0496,-4.0496,-4.0519,-4.0561,-4.0582,-4.0617,-4.0727,-4.0747,-4.0776,-4.0864,-4.0955,-4.1023,-4.108,-4.115,-4.1191,-4.1191,-4.1191,-4.1367,-4.1816,-4.1875,-4.2187,-4.3001,-4.3104,-4.3496,-4.4355,-4.4785,-4.5215,-4.5703,-4.6094,-4.6308,-4.6308,-4.6308,-4.6308,-4.6308,-4.6308,-4.6308,-4.6308,-4.6308,-4.6308,-4.6308,-4.6308,-4.6308,-4.6308,-4.6308,-4.6308,-4.6308,-4.6308,-4.6308,-4.6308,-4.6308,-4.6248,-4.6174,-4.6039,-4.5988,-4.5974]},{"header":{"parameterUnit":"m.s-1","parameterCategory":1,"la1":30.6,"la2":28.766,"lo1":-90.7593,"lo2":-88.6598,"dx":0.0162,"dy":0.0183,"nx":116,"ny":114,"refTime":"2023-01-06T18:00:00:Z","depth":0,"parameterNumber":3,"parameterNumberName":"V-component_of_WINDS"},"data":[0.0,0.0,0.0,0.0,0.0,0.0,0.0,0.0,0.0,0.0,0.0,0.0,0.0,0.0,0.0,0.0,0.0,0.0,0.0,0.0,0.0,0.0,0.0,0.0,0.0,0.0,0.0,0.0,0.0,0.0,0.0,0.0,0.0,0.0,0.0,0.0,0.0,0.0,0.0,0.0,0.0,0.0,0.0,0.0,0.0,0.0,0.0,0.0,0.0,0.0,0.0,0.0,0.0,0.0,0.0,0.0,0.0,0.0,0.0,0.0,0.0,0.0,0.0,0.0,0.0,0.0,0.0,0.0,0.0,0.0,0.0,0.0,0.0,0.0,0.0,0.0,0.0,0.0,0.0,0.0,0.0,0.0,0.0,0.0,0.0,0.0,0.0,0.0,0.0,0.0,0.0,0.0,0.0,0.0,0.0,0.0,0.0,0.0,0.0,0.0,0.0,0.0,0.0,0.0,0.0,0.0,0.0,0.0,0.0,0.0,0.0,0.0,0.0,0.0,0.0,0.0,0.0,0.0,0.0,0.0,0.0,0.0,0.0,0.0,0.0,0.0,0.0,0.0,0.0,0.0,0.0,0.0,0.0,0.0,0.0,0.0,0.0,0.0,0.0,0.0,0.0,0.0,0.0,0.0,0.0,0.0,0.0,0.0,0.0,0.0,0.0,0.0,0.0,0.0,0.0,0.0,0.0,0.0,0.0,0.0,0.0,0.0,0.0,0.0,0.0,0.0,0.0,0.0,0.0,0.0,0.0,0.0,0.0,0.0,0.0,0.0,0.0,0.0,0.0,0.0,0.0,0.0,0.0,0.0,0.0,0.0,0.0,0.0,0.0,0.0,0.0,0.0,0.0,0.0,0.0,0.0,0.0,0.0,0.0,0.0,0.0,0.0,0.0,0.0,0.0,0.0,0.0,0.0,0.0,0.0,0.0,0.0,0.0,0.0,0.0,0.0,0.0,0.0,0.0,0.0,0.0,0.0,0.0,0.0,0.0,0.0,0.0,0.0,0.0,0.0,0.0,0.0,0.0,0.0,0.0,0.0,0.0,0.0,0.0,0.0,0.0,0.0,0.0,0.0,0.0,0.0,0.0,0.0,0.0,0.0,0.0,0.0,0.0,0.0,0.0,0.0,0.0,0.0,0.0,0.0,0.0,0.0,0.0,0.0,0.0,0.0,0.0,0.0,0.0,0.0,0.0,0.0,0.0,0.0,0.0,0.0,0.0,0.0,0.0,0.0,0.0,0.0,0.0,0.0,0.0,0.0,0.0,0.0,0.0,0.0,0.0,0.0,0.0,0.0,0.0,0.0,0.0,0.0,0.0,0.0,0.0,0.0,0.0,0.0,0.0,0.0,0.0,0.0,0.0,0.0,0.0,0.0,0.0,0.0,0.0,0.0,0.0,0.0,0.0,0.0,0.0,0.0,0.0,0.0,0.0,0.0,0.0,0.0,0.0,0.0,0.0,0.0,0.0,0.0,0.0,0.0,0.0,0.0,0.0,0.0,0.0,0.0,0.0,0.0,0.0,0.0,0.0,0.0,0.0,0.0,0.0,0.0,0.0,0.0,0.0,0.0,0.0,0.0,0.0,0.0,0.0,0.0,0.0,0.0,0.0,0.0,0.0,0.0,0.0,0.0,0.0,0.0,0.0,0.0,0.0,0.0,0.0,0.0,0.0,0.0,0.0,0.0,0.0,0.0,0.0,0.0,0.0,0.0,0.0,0.0,0.0,0.0,0.0,0.0,0.0,0.0,0.0,0.0,0.0,0.0,0.0,0.0,0.0,0.0,0.0,0.0,0.0,0.0,0.0,0.0,0.0,0.0,0.0,0.0,0.0,0.0,0.0,0.0,0.0,0.0,0.0,0.0,0.0,0.0,0.0,0.0,0.0,0.0,0.0,0.0,0.0,0.0,0.0,0.0,0.0,0.0,0.0,0.0,0.0,0.0,0.0,0.0,0.0,0.0,0.0,0.0,0.0,0.0,0.0,0.0,0.0,0.0,0.0,0.0,0.0,0.0,0.0,0.0,0.0,0.0,0.0,0.0,0.0,0.0,0.0,0.0,0.0,0.0,0.0,0.0,0.0,0.0,0.0,0.0,0.0,0.0,0.0,0.0,0.0,0.0,0.0,0.0,0.0,0.0,0.0,0.0,0.0,0.0,0.0,0.0,0.0,0.0,0.0,0.0,0.0,0.0,0.0,0.0,0.0,0.0,0.0,0.0,0.0,0.0,0.0,0.0,0.0,0.0,0.0,0.0,0.0,0.0,0.0,0.0,0.0,0.0,0.0,0.0,0.0,0.0,0.0,0.0,0.0,0.0,0.0,0.0,0.0,0.0,0.0,0.0,0.0,0.0,0.0,0.0,0.0,0.0,0.0,0.0,0.0,0.0,0.0,0.0,0.0,0.0,0.0,0.0,0.0,0.0,0.0,0.0,0.0,0.0,0.0,0.0,0.0,0.0,0.0,0.0,0.0,0.0,0.0,0.0,0.0,0.0,0.0,0.0,0.0,0.0,0.0,0.0,0.0,0.0,0.0,0.0,0.0,0.0,0.0,0.0,0.0,0.0,0.0,0.0,0.0,0.0,0.0,0.0,0.0,0.0,0.0,0.0,0.0,0.0,0.0,0.0,0.0,0.0,0.0,0.0,0.0,0.0,0.0,0.0,0.0,0.0,0.0,0.0,0.0,0.0,0.0,0.0,0.0,0.0,0.0,0.0,0.0,0.0,0.0,0.0,0.0,0.0,0.0,0.0,0.0,0.0,0.0,0.0,0.0,0.0,0.0,0.0,0.0,0.0,0.0,0.0,0.0,0.0,0.0,0.0,0.0,0.0,0.0,0.0,0.0,0.0,0.0,0.0,0.0,0.0,0.0,0.0,0.0,0.0,0.0,0.0,0.0,0.0,0.0,0.0,0.0,0.0,0.0,0.0,0.0,0.0,0.0,0.0,0.0,0.0,0.0,0.0,0.0,0.0,0.0,0.0,0.0,0.0,0.0,0.0,0.0,0.0,0.0,0.0,0.0,0.0,0.0,0.0,0.0,0.0,0.0,0.0,0.0,0.0,0.0,0.0,0.0,0.0,0.0,0.0,0.0,0.0,0.0,0.0,0.0,0.0,0.0,0.0,0.0,0.0,0.0,0.0,0.0,0.0,0.0,0.0,0.0,0.0,0.0,0.0,0.0,0.0,0.0,0.0,0.0,0.0,0.0,0.0,0.0,0.0,0.0,0.0,0.0,0.0,0.0,0.0,0.0,0.0,0.0,0.0,0.0,0.0,0.0,0.0,0.0,0.0,0.0,0.0,0.0,0.0,0.0,0.0,0.0,0.0,0.0,0.0,0.0,0.0,0.0,0.0,0.0,0.0,0.0,0.0,0.0,0.0,0.0,0.0,0.0,0.0,0.0,0.0,0.0,0.0,0.0,0.0,0.0,0.0,0.0,0.0,0.0,0.0,0.0,0.0,0.0,0.0,0.0,0.0,0.0,0.0,0.0,0.0,0.0,0.0,0.0,0.0,0.0,0.0,0.0,0.0,0.0,0.0,0.0,0.0,0.0,0.0,0.0,0.0,0.0,0.0,0.0,0.0,0.0,0.0,0.0,0.0,0.0,0.0,0.0,0.0,0.0,0.0,0.0,0.0,0.0,0.0,0.0,0.0,0.0,0.0,0.0,0.0,0.0,0.0,0.0,0.0,0.0,0.0,0.0,0.0,0.0,0.0,0.0,0.0,0.0,0.0,0.0,0.0,0.0,0.0,0.0,0.0,0.0,0.0,0.0,0.0,0.0,0.0,0.0,0.0,0.0,0.0,0.0,0.0,0.0,0.0,0.0,0.0,0.0,0.0,0.0,0.0,0.0,0.0,0.0,0.0,0.0,0.0,0.0,0.0,0.0,0.0,0.0,0.0,0.0,0.0,0.0,0.0,0.0,0.0,0.0,0.0,0.0,0.0,0.0,0.0,0.0,0.0,0.0,0.0,0.0,0.0,0.0,0.0,0.0,0.0,0.0,0.0,0.0,0.0,0.0,0.0,0.0,0.0,0.0,0.0,0.0,0.0,0.0,0.0,0.0,0.0,0.0,0.0,0.0,0.0,0.0,0.0,0.0,0.0,0.0,0.0,0.0,0.0,0.0,0.0,0.0,0.0,0.0,0.0,0.0,0.0,0.0,0.0,0.0,0.0,0.0,0.0,0.0,0.0,0.0,0.0,0.0,0.0,0.0,0.0,0.0,0.0,0.0,0.0,0.0,0.0,0.0,0.0,0.0,0.0,0.0,0.0,0.0,0.0,0.0,0.0,0.0,0.0,0.0,0.0,0.0,0.0,0.0,0.0,0.0,0.0,0.0,0.0,0.0,0.0,0.0,0.0,0.0,0.0,0.0,0.0,0.0,0.0,0.0,0.0,0.0,0.0,0.0,0.0,0.0,0.0,0.0,0.0,0.0,0.0,0.0,0.0,0.0,0.0,0.0,0.0,0.0,0.0,0.0,0.0,0.0,0.0,0.0,0.0,0.0,0.0,0.0,0.0,0.0,0.0,0.0,0.0,0.0,0.0,0.0,0.0,0.0,0.0,0.0,0.0,0.0,0.0,0.0,0.0,0.0,0.0,0.0,0.0,0.0,0.0,0.0,0.0,0.0,0.0,0.0,0.0,0.0,0.0,0.0,0.0,0.0,0.0,0.0,0.0,0.0,0.0,0.0,0.0,0.0,0.0,0.0,0.0,0.0,0.0,0.0,0.0,0.0,0.0,0.0,0.0,0.0,0.0,0.0,0.0,0.0,0.0,0.0,0.0,0.0,0.0,0.0,0.0,0.0,0.0,0.0,0.0,0.0,0.0,0.0,0.0,0.0,0.0,0.0,0.0,0.0,0.0,0.0,0.0,0.0,0.0,0.0,0.0,0.0,0.0,0.0,0.0,0.0,0.0,0.0,0.0,0.0,0.0,0.0,0.0,0.0,0.0,0.0,0.0,0.0,0.0,0.0,0.0,0.0,0.0,0.0,0.0,0.0,0.0,0.0,0.0,0.0,0.0,0.0,0.0,0.0,0.0,0.0,0.0,0.0,0.0,0.0,0.0,0.0,0.0,0.0,0.0,0.0,0.0,0.0,0.0,0.0,0.0,0.0,0.0,0.0,0.0,0.0,0.0,0.0,0.0,0.0,0.0,0.0,0.0,0.0,0.0,0.0,0.0,0.0,0.0,0.0,0.0,0.0,0.0,0.0,0.0,0.0,0.0,0.0,0.0,0.0,0.0,0.0,0.0,0.0,0.0,0.0,0.0,0.0,0.0,0.0,0.0,0.0,0.0,0.0,0.0,0.0,0.0,0.0,0.0,0.0,0.0,0.0,0.0,0.0,0.0,0.0,0.0,0.0,0.0,0.0,0.0,0.0,0.0,0.0,0.0,0.0,0.0,0.0,0.0,0.0,0.0,0.0,0.0,0.0,0.0,0.0,0.0,0.0,0.0,0.0,0.0,0.0,0.0,0.0,0.0,0.0,0.0,0.0,0.0,0.0,0.0,0.0,0.0,0.0,0.0,0.0,0.0,0.0,0.0,0.0,0.0,0.0,0.0,0.0,0.0,0.0,0.0,0.0,0.0,0.0,0.0,0.0,0.0,0.0,0.0,0.0,0.0,0.0,0.0,0.0,0.0,0.0,0.0,0.0,0.0,0.0,0.0,0.0,0.0,0.0,0.0,0.0,0.0,0.0,0.0,0.0,0.0,0.0,0.0,0.0,0.0,0.0,0.0,0.0,0.0,0.0,0.0,0.0,0.0,0.0,0.0,0.0,0.0,0.0,0.0,0.0,0.0,0.0,0.0,0.0,0.0,0.0,0.0,0.0,0.0,0.0,0.0,0.0,0.0,0.0,0.0,0.0,0.0,0.0,0.0,0.0,0.0,0.0,0.0,0.0,0.0,0.0,0.0,0.0,0.0,0.0,0.0,0.0,0.0,0.0,0.0,0.0,0.0,0.0,0.0,0.0,0.0,0.0,0.0,0.0,0.0,0.0,0.0,0.0,0.0,0.0,0.0,0.0,0.0,0.0,0.0,0.0,0.0,0.0,0.0,0.0,0.0,0.0,0.0,0.0,0.0,0.0,0.0,0.0,0.0,0.3307,0.0,0.0,0.0,0.0,0.0,0.0,0.0,0.0,0.0,0.0,0.0,0.0,0.0,0.0,0.0,0.0,0.0,0.0,0.0,0.0,0.0,0.0,0.0,0.0,0.0,0.0,0.0,0.0,0.0,0.0,0.0,0.0,0.0,0.0,0.0,0.0,0.0,0.3503,0.3911,0.4056,0.4521,0.5244,0.4487,0.3918,0.3502,0.0,0.0,0.0,0.0,0.0,0.0,0.0,0.0,0.0,0.0,0.0,0.0,0.0,0.0,0.0,0.0,0.0,0.0,0.0,0.0,0.0,0.0,0.0,0.0,0.0,0.0,0.0,0.0,0.0,0.0,0.0,0.0,0.0,0.0,0.0,0.0,0.0,0.0,0.0,0.0,0.0,0.0,0.0,0.0,0.0,0.0,0.0,0.0,0.0,0.0,0.0,0.0,0.0,0.0,0.0,0.0,0.0,0.0,0.0,0.0,0.0,0.0,0.0,0.0,0.0,0.0,0.0,0.0,0.0,0.0,0.0,0.3466,0.0,0.0,0.0,0.0,0.0,0.0,0.0,0.0,0.0,0.0,0.0,0.0,0.0,0.0,0.0,0.0,0.0,0.0,0.0,0.0,0.0,0.0,0.0,0.1833,0.1843,0.187,0.1846,0.1833,0.0,0.0,0.0,0.0,0.0,0.0,0.3089,0.3423,0.3984,0.4807,0.5113,0.5698,0.6486,0.622,0.5701,0.4969,0.3991,0.0,0.0,0.0,0.0,0.0,0.0,0.0,0.0,0.0,0.0,0.0,0.0,0.0,0.0,0.0,0.0,0.0,0.0,0.0,0.0,0.0,0.0,0.0,0.0,0.0,0.0,0.0,0.0,0.0,0.0,0.0,0.0,0.0,0.0,0.0,0.0,0.0,0.0,0.0,0.0,0.0,0.0,0.0,0.0,0.0,0.0,0.0,0.0,0.0,0.0,0.0,0.0,0.0,0.0,0.0,0.0,0.0,0.0,0.0,0.0,0.0,0.0,0.0,0.0,0.5327,0.4253,0.4253,0.4404,0.4626,0.4026,0.386,0.3979,0.0,0.0,0.0,0.0,0.0,0.0,0.0,0.0,0.0,0.0,0.0,0.0,0.0,0.0,0.0,0.0,0.0,0.0,0.0,0.0,0.0,0.0,0.1981,0.2019,0.214,0.2046,0.1981,0.1981,0.0,0.0,0.0,0.0,0.0,0.3089,0.365,0.4215,0.4807,0.6373,0.7315,0.7672,0.7626,0.7557,0.737,0.5977,0.5352,0.5321,0.0,0.0,0.0,0.0,0.0,0.0,0.0,0.0,0.0,0.0,0.0,0.0,0.0,0.0,0.0,0.0,0.0,0.0,0.0,0.0,0.0,0.0,0.0,0.0,0.0,0.0,0.0,0.0,0.0,0.0,0.0,0.0,0.0,0.0,0.0,0.0,0.0,0.0,0.0,0.0,0.0,0.3193,0.3286,0.0,0.0,0.0,0.0,0.0,0.0,0.0,0.0,0.0,0.0,0.0,0.0,0.0,0.0,0.706,0.6893,0.647,0.574,0.5628,0.5186,0.4452,0.4452,0.4473,0.4508,0.4415,0.0,0.4124,0.3487,0.0,0.0,0.0,0.0,0.0,0.0,0.0,0.0,0.0,0.0,0.0,0.0,0.0,0.0,0.0,0.0,0.0,0.0,0.0,0.0,0.0,0.2208,0.2334,0.2472,0.2706,0.2713,0.2412,0.2625,0.0,0.0,0.0,0.3295,0.3598,0.4343,0.5253,0.6313,0.7595,0.829,0.8398,0.8398,0.8618,0.8927,0.8294,0.7326,0.6181,0.5759,0.0,0.0,0.0,0.0,0.0,0.0,0.0,0.0,0.0,0.0,0.0,0.0,0.0,0.0,0.0,0.0,0.0,0.0,0.0,0.0,0.0,0.0,0.0,0.0,0.0,0.0,0.0,0.0,0.0,0.0,0.0,0.0,0.0,0.0,0.0,0.0,0.0,0.0,0.0,0.3252,0.3385,0.3871,0.4146,0.4453,0.0,0.0,0.0,0.0,0.0,0.0,0.0,0.0,0.0,0.7493,0.7102,0.7039,0.7376,0.6932,0.6339,0.564,0.5542,0.5136,0.4491,0.4491,0.4491,0.4491,0.4491,0.4453,0.4331,0.3974,0.3393,0.2716,0.0,0.0,0.0,0.0,0.0,0.0,0.0,0.0,0.0,0.0,0.0,0.0,0.0,0.0,0.0,0.0,0.0,0.0,0.2301,0.2632,0.2884,0.3018,0.3496,0.3612,0.3207,0.3384,0.3447,0.3341,0.3442,0.3688,0.4094,0.5179,0.6352,0.7605,0.8404,0.8804,0.8804,0.8982,0.9309,0.9814,0.9987,0.9174,0.7637,0.7223,0.6644,0.5953,0.0,0.0,0.0,0.0,0.0,0.0,0.0,0.0,0.0,0.0,0.0,0.0,0.0,0.0,0.0,0.0,0.0,0.0,0.0,0.0,0.0,0.0,0.0,0.0,0.0,0.0,0.0,0.0,0.0,0.0,0.0,0.0,0.0,0.0,0.0,0.0,0.0,0.368,0.4012,0.457,0.4968,0.5454,0.0,0.0,0.0,0.0,0.0,0.0,0.841,0.8085,0.7875,0.7837,0.7136,0.6963,0.7423,0.6691,0.6036,0.5487,0.5324,0.4976,0.4491,0.4491,0.4491,0.4491,0.4491,0.4491,0.4481,0.4345,0.3818,0.3024,0.2323,0.1554,0.0744,0.0194,0.0,0.0,0.0,0.0,0.0,0.0,0.0,0.0,0.0,0.0,0.0,0.0,0.0,0.2308,0.2645,0.3313,0.3796,0.3918,0.4305,0.453,0.4504,0.3873,0.3636,0.3942,0.3662,0.3774,0.4362,0.6041,0.7233,0.7879,0.8485,0.8804,0.8804,0.9458,0.9762,0.984,1.0466,1.0688,1.0532,0.9701,0.93,0.9077,0.7039,0.0,0.0,0.0,0.0,0.0,0.0,0.0,0.0,0.0,0.0,0.0,0.0,0.0,0.0,0.0,0.0,0.0,0.0,0.0,0.0,0.0,0.0,0.0,0.0,0.0,0.0,0.0,0.0,0.0,0.0,0.0,0.0,0.0,0.0,0.0,0.0,0.0,0.0,0.5238,0.6552,0.0,0.0,0.0,0.0,0.9414,0.9046,0.8971,0.9311,0.8071,0.7457,0.7703,0.6983,0.6617,0.6669,0.5923,0.5542,0.5487,0.4866,0.4543,0.4491,0.4491,0.4491,0.4491,0.4491,0.4491,0.4491,0.4484,0.3596,0.2244,0.2214,0.1317,0.0051,0.0026,0.0,0.0,0.0,0.0,0.0,0.1803,0.1803,0.1803,0.1803,0.1877,0.1947,0.1992,0.231,0.2742,0.3342,0.3802,0.4329,0.5033,0.5572,0.5814,0.5633,0.5389,0.5286,0.5415,0.5096,0.5467,0.6633,0.7266,0.7872,0.8465,0.8704,0.9008,0.9439,0.9692,1.0261,1.1091,1.1341,1.1699,1.207,1.0845,1.0,0.9423,0.8672,0.7471,0.0,0.0,0.0,0.0,0.0,0.0,0.0,0.0,0.0,0.0,0.0,0.0,0.0,0.0,0.0,0.0,0.0,0.0,0.0,0.0,0.0,0.0,0.0,0.0,0.0,0.0,0.0,0.0,0.0,0.0,0.0,0.0,0.0,0.0,0.0,0.0,0.0,0.7674,0.8228,0.0,0.8904,0.9752,1.0388,1.0686,1.0346,1.0171,1.0299,0.8976,0.8052,0.7717,0.6524,0.59,0.59,0.5191,0.4866,0.4866,0.4625,0.4491,0.4491,0.4491,0.4491,0.4491,0.4491,0.4208,0.3732,0.3732,0.3432,0.2873,0.189,0.1171,0.0649,0.0164,0.0,0.0,0.0,0.0,0.0,0.1803,0.1803,0.1803,0.1803,0.1913,0.2045,0.216,0.2525,0.2986,0.3562,0.4069,0.4736,0.5629,0.6286,0.6669,0.6631,0.6448,0.6297,0.6196,0.6077,0.6593,0.7879,0.8005,0.8317,0.8804,0.8804,0.9035,0.9458,0.9917,1.061,1.1491,1.1956,1.2452,1.2832,1.19,1.119,1.0597,1.0175,0.9092,0.7654,0.0,0.0,0.0,0.0,0.0,0.0,0.0,0.0,0.0,0.0,0.0,0.0,0.0,0.0,0.0,0.0,0.0,0.0,0.0,0.0,0.0,0.0,0.0,0.0,0.0,0.0,0.0,0.0,0.0,0.0,0.0,0.0,0.0,0.0,0.0,0.8633,0.9325,0.9683,1.0019,1.0375,1.0904,1.1324,1.1522,1.1079,1.0577,1.011,0.8757,0.7661,0.6983,0.5787,0.5164,0.5164,0.4732,0.4491,0.4491,0.4491,0.4491,0.4491,0.4208,0.4098,0.4125,0.3846,0.3428,0.2899,0.2649,0.2593,0.251,0.1507,0.095,0.0671,0.0168,0.0,0.0,0.0,0.0,0.1803,0.1803,0.1803,0.1803,0.1803,0.1916,0.212,0.246,0.274,0.301,0.3303,0.4147,0.4977,0.5698,0.6394,0.7025,0.7486,0.6961,0.6512,0.625,0.6512,0.7068,0.7912,0.8243,0.8549,0.8804,0.8804,0.8804,0.8857,1.0167,1.0788,1.0889,1.2255,1.2881,1.2905,1.2905,1.2905,1.2779,1.1548,1.0845,1.0351,0.0,0.0,0.0,0.0,0.0,0.0,0.0,0.0,0.0,0.0,0.0,0.0,0.0,0.0,0.0,0.0,0.0,0.0,0.0,0.0,0.0,0.0,0.0,0.0,0.0,0.0,0.0,0.0,0.0,0.0,0.0,0.0,0.0,0.9606,0.9792,0.9993,1.0078,1.0868,1.142,1.142,1.2272,1.2535,1.1814,1.1141,1.0161,0.8783,0.7374,0.6258,0.5515,0.4842,0.4491,0.4491,0.4491,0.4491,0.446,0.446,0.446,0.4405,0.3622,0.3287,0.3317,0.2538,0.2174,0.212,0.1396,0.109,0.1062,0.1062,0.0615,0.0,0.0,0.0,0.0,0.1829,0.1803,0.1803,0.1803,0.1803,0.1803,0.1803,0.1995,0.2228,0.2473,0.2826,0.3312,0.4022,0.4465,0.5278,0.6745,0.7039,0.7449,0.8105,0.7584,0.7209,0.715,0.7809,0.831,0.8538,0.8644,0.8731,0.8804,0.8804,0.9061,0.9536,0.9891,1.0585,1.1541,1.1922,1.2393,1.2905,1.2905,1.2905,1.2861,1.2522,1.1777,1.0811,0.0,0.0,0.0,0.0,0.0,0.0,0.0,0.0,0.0,0.0,0.0,0.0,0.0,0.0,0.0,0.0,0.0,0.0,0.0,0.0,0.0,0.0,0.0,0.0,0.0,0.0,0.0,0.0,0.0,0.0,0.0,0.0,1.0761,1.0607,1.1134,1.171,1.2059,1.1849,1.1676,1.1676,1.1513,1.13,1.1091,1.044,0.9662,0.8757,0.7374,0.6258,0.5515,0.4842,0.4491,0.4491,0.4491,0.4236,0.3707,0.3707,0.34,0.2815,0.2591,0.2508,0.2508,0.2286,0.1898,0.1396,0.1174,0.0783,0.0308,0.0308,0.0168,0.0,0.0,0.0,0.0,0.1815,0.1803,0.1803,0.1803,0.1803,0.1803,0.1803,0.2029,0.2299,0.2551,0.2883,0.3377,0.4084,0.4307,0.5076,0.6763,0.6971,0.7335,0.8129,0.7759,0.7627,0.7859,0.8375,0.8684,0.8804,0.8804,0.8804,0.8804,0.8804,0.9008,0.9387,0.9666,1.0218,1.099,1.1541,1.2055,1.2452,1.2774,1.2905,1.2905,1.2905,1.2449,1.1759,1.1579,1.0786,0.9759,0.9616,0.9207,0.8661,0.8202,0.0,0.0,0.0,0.0,0.0,0.0,0.0,0.0,0.0,0.0,0.0,0.0,0.0,0.0,0.0,0.0,0.0,0.0,0.0,0.0,0.0,0.0,0.0,0.0,1.0722,1.1333,1.1333,1.1733,1.2129,1.2399,1.1798,1.1391,1.1391,1.104,1.0686,1.0389,0.974,0.8901,0.7874,0.6757,0.5819,0.5109,0.4708,0.4491,0.4491,0.4491,0.4125,0.3345,0.3345,0.2954,0.2202,0.187,0.173,0.0,0.1424,0.1034,0.0643,0.0643,0.0392,0.0,0.0,0.0,0.0,0.0,0.0,0.0,0.1826,0.1826,0.1826,0.1819,0.1805,0.1803,0.1803,0.2029,0.2315,0.2658,0.2937,0.328,0.3768,0.3938,0.4634,0.6164,0.6473,0.699,0.7896,0.7745,0.7832,0.8375,0.8435,0.8544,0.8798,0.8804,0.8804,0.8804,0.8804,0.8804,0.8804,0.9413,0.9744,0.9865,1.104,1.1616,1.174,1.2378,1.27,1.2774,1.2774,1.2832,1.2842,1.2451,1.1973,1.1524,1.1224,1.0584,0.9856,0.959,0.0,0.0,0.0,0.0,0.0,0.0,0.0,0.0,0.0,0.0,0.0,0.0,0.0,0.0,0.0,0.0,0.0,0.0,0.0,0.0,0.0,0.0,0.0,0.0,1.1404,1.1765,1.169,1.1616,1.1591,1.169,1.1091,1.0695,1.0695,1.0534,1.0202,0.9607,0.8875,0.7894,0.6556,0.0,0.0,0.0,0.0,0.4491,0.4491,0.4405,0.3956,0.3176,0.3093,0.2676,0.1924,0.1284,0.0978,0.095,0.028,0.0,0.0,0.0,0.0,0.0,0.0,0.0,0.0,0.0,0.0,0.0,0.1959,0.1959,0.1958,0.1962,0.1877,0.1803,0.1803,0.2029,0.2315,0.2658,0.2937,0.332,0.389,0.3977,0.4455,0.5565,0.6234,0.7088,0.8235,0.8255,0.8275,0.8395,0.8597,0.8751,0.8804,0.8804,0.8804,0.8804,0.8804,0.8804,0.8804,0.8929,0.929,0.9814,1.0064,1.0491,1.099,1.1149,1.1525,1.1996,1.1996,1.2369,1.2895,1.2807,1.2696,1.2604,1.2535,1.2405,1.2154,1.1498,1.0481,0.9352,0.8757,0.7724,0.0,0.0,0.0,0.0,0.0,0.0,0.0,0.0,0.0,0.0,0.0,0.0,0.0,0.0,0.0,0.0,0.0,0.0,0.0,1.0176,1.1063,1.1616,1.1065,1.0542,1.0389,1.0939,1.0389,0.9987,0.9987,0.8967,0.8243,0.8117,0.7412,0.6627,0.576,0.5569,0.0,0.4515,0.4491,0.4491,0.4491,0.3846,0.3148,0.2397,0.0,0.0,0.042,0.028,0.0224,0.0196,0.0056,0.0,0.0,0.0,0.0,0.0,0.0,0.0,0.0,0.0,0.0,0.0,0.2252,0.2167,0.2097,0.21,0.2049,0.1999,0.1999,0.2201,0.2452,0.2757,0.3034,0.3384,0.3856,0.3907,0.4255,0.5132,0.6132,0.7064,0.7892,0.8245,0.8462,0.8584,0.8731,0.8804,0.8804,0.8804,0.8804,0.8804,0.8804,0.8804,0.8804,0.8804,0.8982,0.9309,0.9658,0.9994,1.0312,1.0661,1.099,1.1291,1.1291,1.1525,1.1925,1.2618,1.2905,1.2856,1.2476,1.2344,1.2295,1.1913,1.1164,1.0301,0.9947,0.9095,0.8056,0.0,0.0,0.0,0.0,0.0,0.0,0.0,0.0,0.0,0.0,0.0,0.0,0.0,0.0,0.9458,0.0,0.0,1.0725,1.0839,1.0829,1.0551,0.9846,0.9169,0.9131,1.0185,0.9718,0.9152,0.8797,0.8117,0.7563,0.7182,0.6475,0.59,0.5515,0.5191,0.4842,0.4519,0.4491,0.4491,0.4491,0.3735,0.2954,0.2204,0.1449,0.0717,0.0,0.0,0.0,0.0,0.0,0.0,0.0,0.0,0.0,0.0,0.0,0.0,0.0,0.0,0.0,0.0,0.2536,0.2405,0.2284,0.2258,0.2227,0.2197,0.2197,0.2375,0.2582,0.2829,0.3101,0.3387,0.3699,0.3757,0.406,0.4821,0.5856,0.6754,0.7452,0.798,0.8429,0.8798,0.8804,0.8804,0.8804,0.8804,0.8804,0.8804,0.8804,0.8804,0.8804,0.8804,0.8804,0.8831,0.9361,0.9614,0.964,1.0192,1.0491,1.0618,1.0618,1.0686,1.0922,1.2049,1.2486,1.2412,1.1823,1.1616,1.1641,1.1765,1.1258,1.0628,1.0762,1.0199,0.9264,0.8198,0.8293,0.0,0.0,0.0,0.0,0.0,0.0,0.0,0.0,0.0,1.0047,1.0015,1.0194,1.0563,1.1247,1.0998,1.0865,1.1488,1.0593,0.9496,0.8639,0.8051,0.8057,0.9053,0.8699,0.8129,0.753,0.7369,0.7015,0.6421,0.571,0.53,0.53,0.4787,0.4491,0.4491,0.4491,0.4491,0.4491,0.3624,0.2852,0.2198,0.1304,0.0561,0.0,0.0,0.0,0.0,0.0,0.0,0.0,0.0,0.0,0.0,0.0,0.0,0.0,0.0,0.0,0.0,0.2661,0.2658,0.2604,0.2482,0.2323,0.2197,0.2197,0.2375,0.256,0.2699,0.2961,0.3212,0.3423,0.3546,0.3965,0.4835,0.5148,0.5913,0.7413,0.7683,0.8098,0.8778,0.8804,0.8804,0.8804,0.8804,0.8804,0.8804,0.8804,0.8804,0.8804,0.8804,0.8804,0.8804,0.8883,0.891,0.891,0.8982,0.9361,0.9909,0.9909,1.0269,1.0813,1.0973,1.1023,1.1015,1.0939,1.0914,1.099,1.1591,1.0956,1.001,1.0602,1.0308,0.9685,0.9303,0.946,0.9593,0.894,0.8616,0.8753,0.9897,1.0567,1.1256,0.0,0.0,1.3499,1.3301,1.331,1.3185,1.2763,1.2119,1.1488,1.0981,1.0295,0.934,0.8004,0.775,0.7503,0.7015,0.688,0.6804,0.6723,0.614,0.5701,0.5624,0.5003,0.4598,0.4598,0.4546,0.4491,0.4491,0.4491,0.4491,0.4491,0.3065,0.2292,0.2187,0.0792,0.009,0.0,0.0,0.0,0.0,0.0,0.0,0.0,0.0,0.0,0.0,0.0,0.0,0.0,0.0,0.0,0.0,0.2669,0.264,0.2589,0.2613,0.2553,0.2496,0.2496,0.2563,0.2675,0.2795,0.2973,0.3125,0.3208,0.3202,0.3366,0.382,0.448,0.5222,0.6061,0.7099,0.783,0.8156,0.856,0.8804,0.8804,0.8804,0.8804,0.8804,0.8804,0.8804,0.8804,0.8804,0.8804,0.8804,0.8804,0.8804,0.8804,0.8804,0.8956,0.9211,0.9211,0.9387,0.964,0.964,0.964,0.9692,1.009,1.0218,0.0,1.0542,1.0254,0.9835,1.0133,0.9918,0.9475,0.8962,0.9456,1.0328,1.1045,1.1175,1.127,0.0,1.2605,1.3216,1.3157,1.3547,1.3802,1.3365,1.3286,1.306,1.2393,1.1699,1.099,0.0,0.9666,0.8699,0.7262,0.7074,0.6642,0.55,0.5391,0.5523,0.5928,0.5678,0.5324,0.4948,0.4653,0.4491,0.4491,0.4491,0.4491,0.4491,0.4491,0.4306,0.3872,0.2754,0.1984,0.1538,0.0493,0.0,0.0,0.0,0.0,0.0,0.0,0.0,0.0,0.0,0.0,0.0,0.0,0.0,0.0,0.0,0.0,0.0,0.2675,0.2623,0.2582,0.2679,0.2696,0.2696,0.2696,0.2696,0.2737,0.2832,0.2953,0.3044,0.3044,0.2934,0.2903,0.303,0.3871,0.4582,0.5016,0.6323,0.7176,0.7396,0.791,0.8289,0.848,0.8295,0.8401,0.8804,0.8593,0.8586,0.8804,0.8804,0.8804,0.8804,0.8804,0.8804,0.8804,0.8804,0.8804,0.8804,0.8804,0.8804,0.8804,0.8804,0.8752,0.8758,0.9235,0.9405,0.9408,0.9425,0.9438,0.9426,0.9442,0.9424,0.9298,0.8822,0.9532,1.0771,1.2153,1.2602,0.0,1.3022,1.3788,1.4277,1.3679,1.3804,1.3815,1.3035,1.2876,1.2598,1.169,1.099,1.0364,0.9891,0.9073,0.8049,0.6777,0.6421,0.585,0.4653,0.4491,0.4677,0.5164,0.5218,0.503,0.4546,0.4491,0.4491,0.4491,0.4491,0.4508,0.4552,0.4297,0.3934,0.347,0.2404,0.163,0.1091,0.0351,0.0,0.0,0.0,0.0,0.0,0.0,0.0,0.0,0.0,0.0,0.0,0.0,0.0,0.0,0.0,0.0,0.0,0.2696,0.2692,0.2692,0.2696,0.2696,0.2696,0.2696,0.2696,0.2699,0.2703,0.2822,0.2899,0.2899,0.2778,0.2768,0.2903,0.3344,0.3995,0.4844,0.5311,0.59,0.6615,0.6642,0.6993,0.7723,0.702,0.7369,0.8804,0.8076,0.8103,0.8804,0.8804,0.8804,0.8804,0.8804,0.8804,0.8804,0.8804,0.8804,0.8804,0.8804,0.8804,0.8804,0.8804,0.8633,0.8416,0.8426,0.8441,0.8449,0.8531,0.8496,0.8456,0.8532,0.8936,0.9397,0.9371,0.9951,1.0745,1.146,1.1636,1.189,1.2859,1.3478,1.398,1.4526,1.4664,1.4318,1.3062,1.2798,1.241,1.1057,1.0287,0.9814,0.9814,0.8639,0.7477,0.6696,0.5982,0.5273,0.457,0.4491,0.4519,0.0,0.4515,0.4515,0.4491,0.4491,0.4491,0.4491,0.4491,0.4559,0.4677,0.3801,0.3416,0.3587,0.1965,0.1123,0.1093,0.0355,0.0,0.0,0.0,0.0,0.0,0.0,0.0,0.0,0.0,0.0,0.0,0.0,0.0,0.0,0.0,0.0,0.0,0.2696,0.2696,0.2696,0.2696,0.2696,0.2696,0.2696,0.2696,0.2733,0.2818,0.2939,0.0,0.0,0.0,0.0,0.0,0.3134,0.3486,0.401,0.4796,0.5388,0.5733,0.6294,0.6723,0.6966,0.7208,0.7343,0.7343,0.8076,0.8049,0.7348,0.783,0.8076,0.8076,0.8076,0.8342,0.8804,0.8804,0.8804,0.8804,0.8804,0.8804,0.8831,0.8991,0.8644,0.8071,0.0,0.796,0.775,0.7377,0.7222,0.7194,0.7013,0.7245,0.7718,0.8548,0.9363,1.0231,1.1196,1.2021,1.2738,1.3399,1.3655,1.3679,1.349,1.3066,1.2469,1.1639,1.1474,1.1199,1.0312,0.9961,0.9666,0.9211,0.8335,0.745,0.6696,0.5955,0.5242,0.457,0.4491,0.0,0.0,0.0,0.0,0.4491,0.4491,0.4491,0.4491,0.4586,0.4665,0.4691,0.3919,0.3284,0.288,0.1679,0.087,0.0365,0.0133,0.0,0.0,0.0,0.0,0.0,0.0,0.0,0.0,0.0,0.0,0.0,0.0,0.0,0.0,0.0,-0.037,-0.0772,0.0,0.2839,0.2822,0.2788,0.2778,0.0,0.0,0.0,0.0,0.0,0.0,0.0,0.0,0.0,0.0,0.0,0.0,0.3185,0.3402,0.4146,0.465,0.4839,0.5332,0.5762,0.6122,0.6283,0.6414,0.6521,0.7477,0.7471,0.6615,0.7616,0.7937,0.7723,0.7963,0.8348,0.8804,0.8804,0.8925,0.9105,0.8891,0.8857,0.8945,0.8911,0.8429,0.0,0.7509,0.7271,0.6967,0.6439,0.648,0.6685,0.6301,0.6533,0.717,0.8429,0.9215,0.9998,1.1324,1.2053,1.2533,1.2972,1.286,1.2551,1.2181,1.1729,1.1207,1.0559,1.037,1.012,0.954,0.9372,0.9104,0.8514,0.7853,0.7138,0.6322,0.5633,0.5044,0.455,0.4491,0.4491,0.0,0.0,0.0,0.4491,0.4491,0.4515,0.4569,0.4665,0.4738,0.4843,0.3768,0.3008,0.2575,0.134,0.0463,0.0,0.0,0.0,0.0,0.0,0.0,0.0,0.0,0.0,0.0,0.0,0.0,0.0,0.0,-0.0202,-0.0471,-0.0471,-0.1041,-0.1675,0.0,0.0,0.306,0.0,0.0,0.0,0.0,0.0,0.0,0.0,0.0,0.0,0.0,0.0,0.0,0.0,0.0,0.0,0.3091,0.3392,0.369,0.396,0.3866,0.4243,0.5203,0.4469,0.4785,0.6283,0.635,0.6415,0.6519,0.7957,0.8289,0.767,0.8374,0.8725,0.8804,0.8804,0.9118,0.9573,0.8964,0.8895,0.9068,0.8566,0.8001,0.741,0.683,0.6435,0.6145,0.5805,0.6257,0.6884,0.6432,0.6854,0.7772,0.8968,0.9528,1.0077,1.1686,1.1649,1.1283,1.165,1.1216,1.0686,1.0686,1.0636,1.0399,0.9758,0.9444,0.9176,0.0,0.0,0.8178,0.7717,0.7191,0.6506,0.5618,0.5031,0.4655,0.0,0.0,0.0,0.0,0.0,0.0,0.4491,0.0,0.4556,0.468,0.4697,0.4833,0.509,0.3471,0.261,0.2709,0.0908,0.0,0.0,0.0,0.0,0.0,0.0,0.0,0.0,0.0,0.0,0.0,0.0,0.0,0.0,0.0,-0.0504,-0.124,-0.124,-0.1809,-0.2509,0.0,0.0,0.0,0.0,0.0,0.0,0.0,0.0,0.0,0.0,0.0,0.0,0.0,0.0,0.0,0.0,0.0,0.0,0.2936,0.3114,0.3375,0.368,0.3754,0.3976,0.4321,0.4651,0.475,0.4623,0.5817,0.5843,0.4832,0.5855,0.6524,0.6885,0.7074,0.7777,0.8804,0.8804,0.8771,0.8678,0.8069,0.7992,0.8197,0.7863,0.7477,0.7106,0.6953,0.6603,0.6146,0.5817,0.6005,0.6545,0.7363,0.7757,0.8172,0.9389,0.9971,1.0303,1.0738,1.0865,1.0922,1.1015,1.0136,0.9226,0.9226,0.8423,0.7582,0.7324,0.7575,0.7647,0.0,0.0,0.0,0.6825,0.6245,0.0,0.5546,0.4958,0.0,0.4494,0.0,0.4491,0.4491,0.4491,0.0,0.0,0.4491,0.4556,0.468,0.4799,0.4914,0.5093,0.4126,0.3323,0.2711,0.0908,0.0,0.0,0.0,0.0,0.0,0.0,0.0,0.0,0.0,0.0,0.0,0.0,0.0,0.0,0.0,-0.0135,-0.0337,-0.0337,-0.0906,-0.1608,0.0,0.0,0.0,0.0,0.0,0.0,0.0,0.0,0.0,0.0,0.0,0.0,0.0,0.0,0.0,0.0,0.0,0.0,0.0,0.2883,0.3063,0.3364,0.3395,0.3507,0.3724,0.4059,0.413,0.3921,0.5004,0.5076,0.422,0.5238,0.5789,0.5961,0.6267,0.6885,0.7669,0.7647,0.7715,0.0,0.0,0.7484,0.7721,0.7559,0.7207,0.681,0.6686,0.681,0.7021,0.695,0.7052,0.7355,0.818,0.8665,0.9098,1.0245,1.0473,1.0486,1.0914,1.0689,1.0279,0.9956,0.9051,0.8167,0.7776,0.7085,0.6482,0.6329,0.6476,0.6517,0.6237,0.6496,0.0,0.0,0.0,0.0,0.512,0.4793,0.4566,0.0,0.4491,0.0,0.4491,0.4491,0.4491,0.0,0.4491,0.4586,0.4779,0.487,0.5013,0.5223,0.4446,0.338,0.2108,0.0706,0.0,0.0,0.0,0.0,0.0,0.0,0.0,0.0,0.0,0.0,0.0,0.0,0.0,0.0,0.0,-0.0236,-0.0572,-0.0572,-0.1141,-0.1909,0.0,0.0,0.0,0.0,0.0,0.0,0.0,0.0,0.0,0.0,0.3037,0.3101,0.3101,0.2993,0.0,0.0,0.0,0.0,0.0,0.0,0.2835,0.3087,0.3003,0.3096,0.3416,0.3229,0.3323,0.3734,0.4086,0.421,0.4099,0.5183,0.5466,0.5101,0.5756,0.6133,0.632,0.6218,0.6441,0.6864,0.6806,0.6959,0.7218,0.0,0.6929,0.6533,0.6358,0.7014,0.8006,0.8318,0.8587,0.8866,0.9175,0.968,1.0309,1.121,1.0976,1.062,1.1354,1.0618,0.9503,0.8875,0.8125,0.7361,0.6587,0.6252,0.6055,0.5926,0.5721,0.5612,0.5825,0.5862,0.5696,0.5212,0.0,0.5369,0.4619,0.4604,0.4641,0.4505,0.4491,0.4491,0.4491,0.4508,0.4522,0.4522,0.4539,0.4665,0.4874,0.4908,0.5074,0.5385,0.4486,0.3178,0.1507,0.0605,0.0101,0.0,0.0,0.0,0.0,0.0,0.0,0.0,0.0,0.0,0.0,0.0,0.0,0.0,0.0,-0.0471,-0.114,-0.114,-0.1642,-0.2344,0.0,0.0,0.0,0.0,0.0,0.0,0.0,0.0,0.0,0.0,0.3145,0.3101,0.0,0.0,0.0,0.0,0.0,0.0,0.0,0.0,0.0,0.3094,0.3179,0.3337,0.3559,0.3367,0.3306,0.3383,0.3521,0.3528,0.3463,0.3843,0.4346,0.4943,0.5059,0.5808,0.6905,0.6291,0.587,0.559,0.5241,0.5342,0.5677,0.5684,0.0,0.0,0.6722,0.6996,0.7278,0.7823,0.9063,1.05,1.11,1.1387,1.1503,1.1672,1.1271,1.0638,1.0246,0.9562,0.8929,0.8824,0.7771,0.6716,0.6458,0.5457,0.0,0.4267,0.4575,0.4707,0.4142,0.4633,0.489,0.4328,0.4517,0.4685,0.4522,0.4511,0.4518,0.0,0.4491,0.4491,0.4491,0.4604,0.0,0.0,0.0,0.0,0.4884,0.4999,0.5176,0.5388,0.4486,0.3513,0.2477,0.1542,0.0706,0.0,0.0,0.0,0.0,0.0,0.0,0.0,0.0,0.0,0.0,0.0,0.0,0.0,0.0,-0.0101,-0.0236,-0.0236,-0.0337,-0.0471,0.0,0.0,0.0,0.0,0.0,0.0,0.0,0.3155,0.3306,0.3633,0.3658,0.3596,0.3385,0.3195,0.3131,0.0,0.0,0.0,0.0,0.0,0.0,0.3098,0.3172,0.3246,0.3341,0.3249,0.329,0.3448,0.0,0.3351,0.3556,0.3475,0.3734,0.4217,0.4217,0.4556,0.5108,0.4736,0.4465,0.4265,0.4387,0.4591,0.4908,0.5529,0.0,0.0,0.6698,0.7121,0.7644,0.8074,0.9023,1.012,1.0596,1.099,1.1291,1.1291,1.0788,1.0218,0.9891,0.9309,0.8699,0.8321,0.7396,0.6445,0.5853,0.4879,0.0,0.3744,0.393,0.4021,0.3658,0.401,0.4263,0.403,0.418,0.4375,0.4481,0.4491,0.4491,0.4491,0.4491,0.4491,0.4491,0.4631,0.0,0.0,0.0,0.0,0.4999,0.5169,0.5284,0.5392,0.4486,0.358,0.2711,0.1775,0.0873,0.0,0.0,0.0,0.0,0.0,0.0,0.0,0.0,0.0,0.0,0.0,0.0,0.0,0.0,0.0,0.0,0.0,0.0,0.0,0.0,0.0,0.0,0.0,0.0,0.0,0.0,0.336,0.3583,0.4056,0.4193,0.4122,0.3765,0.3476,0.3313,0.0,0.0,0.0,0.0,0.0,0.0,0.0,0.0,0.0,0.3199,0.0,0.0,0.3531,0.3236,0.0,0.0,0.0,0.0,0.0,0.3497,0.3449,0.3364,0.325,0.3281,0.0,0.0,0.4066,0.0,0.0,0.0,0.0,0.0,0.712,0.7741,0.7997,0.8289,0.8598,0.8919,0.9723,1.0577,1.0585,1.021,0.9762,0.9614,0.9211,0.8672,0.8076,0.7375,0.6574,0.5575,0.4775,0.4129,0.3688,0.3604,0.3604,0.3604,0.372,0.3843,0.3971,0.4122,0.4271,0.447,0.4491,0.4491,0.4491,0.4491,0.0,0.4491,0.4658,0.0,0.0,0.0,0.0,0.5179,0.5327,0.5395,0.5395,0.4486,0.358,0.2711,0.1775,0.0873,0.0,0.0,0.0,0.0,0.0,0.0,0.0,0.0,0.0,0.0,0.0,0.0,0.0,0.0,0.0,0.0,0.0,0.0,0.0,0.0,0.0,0.0,0.0,0.0,0.0,0.0,0.3556,0.391,0.4392,0.446,0.4375,0.418,0.4011,0.3836,0.0,0.0,0.0,0.0,0.0,0.0,0.0,0.0,0.0,0.0,0.0,0.0,0.3329,0.3182,0.0,0.0,0.0,0.0,0.0,0.0,0.331,0.3552,0.311,0.0,0.0,0.0,0.0,0.0,0.0,0.0,0.0,0.0,0.6706,0.6413,0.6673,0.6441,0.6094,0.6433,0.8041,0.9823,0.9876,0.984,0.9666,0.9061,0.8857,0.8778,0.8725,0.8156,0.7346,0.6318,0.5527,0.4722,0.3797,0.3604,0.3604,0.3604,0.372,0.3843,0.3971,0.4122,0.4271,0.447,0.4491,0.4491,0.4491,0.0,0.0,0.4491,0.0,0.0,0.0,0.0,0.0,0.0,0.5388,0.5395,0.5395,0.4486,0.358,0.2711,0.1775,0.0873,0.0,0.0,0.0,0.0,0.0,0.0,0.0,0.0,0.0,0.0,0.0,0.0,0.0,0.0,0.0,0.0,0.0,0.0,0.0,0.0,0.0,0.0,0.0,0.0,0.0,0.2928,0.3366,0.401,0.4923,0.472,0.4464,0.4402,0.4221,0.3977,0.3634,0.0,0.0,0.0,0.0,0.0,0.0,0.0,0.0,0.0,0.0,0.3593,0.3593,0.3554,0.0,0.0,0.0,0.0,0.0,0.0,0.3249,0.329,0.309,0.0,0.0,0.0,0.0,0.0,0.0,0.0,0.0,0.0,0.0,0.6153,0.5897,0.5508,0.5195,0.5737,0.6371,0.7029,0.7591,0.8131,0.8481,0.8203,0.8129,0.8129,0.8129,0.7257,0.6219,0.567,0.4972,0.4271,0.3707,0.3604,0.3604,0.3604,0.3648,0.3741,0.3957,0.4045,0.4166,0.4457,0.4491,0.4491,0.4491,0.4491,0.0,0.0,0.0,0.0,0.0,0.0,0.0,0.0,0.509,0.5126,0.4586,0.4184,0.3311,0.1876,0.1474,0.0873,0.0,0.0,0.0,0.0,0.0,0.0,0.0,0.0,0.0,0.0,0.0,0.0,0.0,0.0,0.0,-0.0067,-0.0605,-0.0442,-0.0173,0.0,0.0,0.0,0.0,0.0,0.2898,0.2835,0.3312,0.4007,0.4921,0.479,0.459,0.4515,0.438,0.4108,0.3638,0.3644,0.0,0.0,0.0,0.0,0.0,0.0,0.0,0.0,0.0,0.3792,0.3792,0.3812,0.3836,0.0,0.0,0.0,0.0,0.0,0.0,0.0,0.0,0.0,0.0,0.0,0.0,0.0,0.0,0.0,0.0,0.0,0.0,0.0,0.0,0.0,0.4459,0.4929,0.49,0.4934,0.6066,0.6832,0.7327,0.7353,0.7369,0.7369,0.7369,0.6605,0.5686,0.5202,0.4701,0.4198,0.3707,0.3604,0.3604,0.3604,0.3464,0.342,0.3645,0.3717,0.384,0.4142,0.4349,0.4491,0.4491,0.0,0.4181,0.0,0.0,0.0,0.0,0.0,0.0,0.0,0.4788,0.4553,0.3647,0.3347,0.2576,0.1307,0.104,0.0605,0.0,0.0,0.0,0.0,0.0,0.0,0.0,0.0,0.0,0.0,0.0,0.0,0.0,0.0,0.0,-0.0068,-0.068,-0.0519,-0.0213,0.0,0.0,0.0,0.0,0.0,0.0,0.3064,0.3543,0.3968,0.4197,0.4605,0.4802,0.4515,0.4505,0.4248,0.3646,0.3729,0.0,0.0,0.0,0.0,0.0,0.0,0.0,0.0,0.0,0.3792,0.3792,0.3868,0.3864,0.3792,0.3668,0.3596,0.3593,0.0,0.0,0.0,0.0,0.0,0.0,0.0,0.0,0.0,0.0,0.0,0.0,0.0,0.0,0.0,0.0,0.0,0.0,0.0,0.3703,0.4159,0.5895,0.6406,0.6432,0.6582,0.6615,0.6615,0.6615,0.6588,0.634,0.5327,0.5091,0.4795,0.3797,0.3604,0.3604,0.3604,0.3103,0.2748,0.2879,0.3016,0.3169,0.3396,0.4042,0.4491,0.0,0.0,0.34,0.0,0.0,0.0,0.0,0.0,0.0,0.0,0.4519,0.3613,0.2744,0.1809,0.1307,0.1307,0.0437,0.0,0.0,0.0,0.0,0.0,0.0,0.0,0.0,0.0,0.0,0.0,0.0,0.0,0.0,0.0,0.0,0.0,0.0,0.0,0.0,0.0,0.0,0.0,0.0,0.0,0.0,0.0,0.3581,0.3873,0.4332,0.4171,0.3993,0.3885,0.424,0.4248,0.3649,0.3757,0.0,0.0,0.0,0.0,0.0,0.0,0.0,0.0,0.3822,0.3949,0.4078,0.4232,0.4312,0.4256,0.3815,0.3671,0.3786,0.3459,0.3534,0.0,0.0,0.0,0.0,0.0,0.0,0.0,0.0,0.0,0.0,0.0,0.0,0.0,0.0,0.0,0.0,0.0,0.0,0.0,0.4447,0.5098,0.5646,0.5594,0.5651,0.5697,0.5587,0.52,0.4712,0.4314,0.4217,0.4087,0.3686,0.3604,0.3604,0.3604,0.3101,0.2748,0.2876,0.2588,0.2577,0.3229,0.3566,0.0,0.4436,0.3812,0.3374,0.0,0.0,0.0,0.0,0.0,0.0,0.0,0.328,0.2978,0.2711,0.1775,0.1006,0.0404,0.0135,0.0,0.0,0.0,0.0,0.0,0.0,0.0,0.0,0.0,0.0,0.0,0.0,0.0,0.0,0.0,0.0,-0.0072,-0.0683,-0.0512,-0.0187,0.0,0.0,0.0,0.0,0.0,0.0,0.0,0.3658,0.3846,0.4236,0.3975,0.3751,0.3748,0.4007,0.4,0.3622,0.3916,0.0,0.0,0.0,0.0,0.0,0.0,0.0,0.3788,0.3892,0.407,0.4301,0.4528,0.4609,0.4492,0.4105,0.3902,0.3855,0.3598,0.3623,0.0,0.0,0.0,0.0,0.0,0.0,0.3684,0.0,0.0,0.0,0.0,0.0,0.0,0.0,0.0,0.0,0.0,0.0,0.0,0.0,0.4216,0.4736,0.4688,0.4735,0.479,0.4704,0.4338,0.3954,0.3826,0.3792,0.3751,0.3631,0.3604,0.3604,0.3604,0.2923,0.2393,0.2483,0.2018,0.1848,0.2389,0.3012,0.3566,0.4042,0.0,0.0,0.0,0.0,0.0,0.0,0.0,0.0,0.0,0.0,0.2711,0.2711,0.1475,0.0538,0.0,0.0,0.0,0.0,0.0,0.0,0.0,0.0,0.0,0.0,0.0,0.0,0.0,0.0,0.0,0.0,0.0,0.0,-0.0074,-0.0628,-0.045,-0.0192,0.0,0.0,0.0,0.0,0.0,0.0,0.0,0.3761,0.3872,0.3872,0.3945,0.3978,0.3972,0.374,0.3625,0.3672,0.0,0.0,0.0,0.0,0.0,0.0,0.0,0.0,0.3778,0.3899,0.4139,0.4491,0.4791,0.4794,0.4532,0.4505,0.4276,0.3839,0.3819,0.3643,0.3423,0.4024,0.4324,0.4425,0.4606,0.424,0.0,0.0,0.0,0.0,0.0,0.0,0.0,0.0,0.0,0.0,0.0,0.0,0.0,0.0,0.0,0.0,0.0,0.3971,0.3974,0.3967,0.3964,0.3951,0.3809,0.3775,0.0,0.3628,0.3604,0.3607,0.3614,0.2662,0.1858,0.1829,0.1405,0.1098,0.1086,0.2431,0.3403,0.0,0.3459,0.0,0.0,0.0,0.0,0.0,0.0,0.0,0.0,0.0,0.2678,0.2611,0.0908,0.0,0.0,0.0,0.0,0.0,0.0,0.0,0.0,0.0,0.0,0.0,0.0,0.0,0.0,0.0,0.0,0.0,0.0,0.0,0.0,0.0,0.0,0.0,0.0,0.0,0.0,0.0,0.0,0.0,0.0,0.0,0.0,0.0,0.3674,0.3691,0.3703,0.3627,0.3797,0.0,0.0,0.0,0.0,0.0,0.0,0.0,0.0,0.0,0.3658,0.367,0.3952,0.4491,0.5026,0.5093,0.4726,0.4665,0.4545,0.432,0.4066,0.403,0.4177,0.4779,0.4785,0.4417,0.4459,0.4131,0.0,0.0,0.0,0.0,0.4347,0.4609,0.0,0.0,0.0,0.0,0.0,0.0,0.0,0.0,0.3624,0.3662,0.3696,0.0,0.3819,0.371,0.3683,0.3696,0.0,0.3651,0.3645,0.361,0.3604,0.3634,0.3744,0.3052,0.2376,0.2014,0.1377,0.0979,0.1096,0.2386,0.3378,0.3525,0.2949,0.0,0.0,0.0,0.0,0.0,0.0,0.0,0.0,0.0,0.2376,0.1641,0.0572,0.0,0.0,0.0,0.0,0.0,0.0,0.0,0.0,0.0,0.0,0.0,0.0,0.0,0.0,0.0,0.0,0.0,0.0,0.0,0.0,0.0,0.0,0.0,0.0,0.0,0.0,0.0,0.0,0.0,0.0,0.0,0.0,0.0,0.0,0.3698,0.361,0.3605,0.0,0.0,0.0,0.0,0.0,0.0,0.0,0.0,0.0,0.3668,0.3782,0.3944,0.4199,0.4597,0.4948,0.4991,0.4749,0.472,0.4575,0.4351,0.405,0.3949,0.4049,0.4377,0.4334,0.403,0.403,0.0,0.0,0.0,0.0,0.0,0.4631,0.4679,0.0,0.4434,0.4242,0.4015,0.0,0.0,0.0,0.0,0.3419,0.3451,0.3451,0.3581,0.3699,0.3621,0.3604,0.3604,0.3604,0.3604,0.3583,0.349,0.3531,0.3604,0.3566,0.3154,0.2719,0.2451,0.189,0.1524,0.1608,0.2007,0.2455,0.2893,0.0,0.0,0.0,0.0,0.0,0.0,0.0,0.0,0.0,0.0,0.2277,0.134,0.0471,0.0,0.0,0.0,0.0,0.0,0.0,0.0,0.0,0.0,0.0,0.0,0.0,0.0,0.0,0.0,0.0,0.0,0.0,0.0,0.0,0.0,0.0,-0.0079,0.0,0.0,0.0,0.0,0.0,0.0,0.0,0.0,0.0,0.0,0.0,0.0,0.0,0.0,0.0,0.0,0.0,0.0,0.0,0.0,0.0,0.0,0.3737,0.3717,0.3987,0.4328,0.4554,0.4657,0.4816,0.4836,0.4724,0.4772,0.4599,0.4184,0.3955,0.3734,0.3604,0.3604,0.3604,0.3604,0.3604,0.0,0.0,0.0,0.0,0.0,0.0,0.0,0.0,0.4234,0.4056,0.3669,0.3531,0.0,0.0,0.0,0.0,0.0,0.3299,0.3441,0.3604,0.3604,0.3604,0.3604,0.3604,0.3604,0.3544,0.3391,0.349,0.3554,0.3423,0.3205,0.3029,0.2986,0.2541,0.0,0.2055,0.1601,0.1475,0.1988,0.0,0.0,0.0,0.0,0.0,0.0,0.0,0.0,0.0,0.0,0.0,0.114,0.037,0.0,0.0,0.0,0.0,0.0,0.0,0.0,0.0,0.0,0.0,0.0,0.0,0.0,0.0,0.0,0.0,0.0,0.0,0.0,0.0,0.0,0.0,-0.0157,0.0,0.0,0.0,0.0,0.0,0.0,0.0,0.0,0.0,0.0,0.0,0.0,0.0,0.0,0.0,0.0,0.0,0.0,0.0,0.0,0.0,0.3991,0.3737,0.3717,0.3987,0.4328,0.4499,0.4525,0.5065,0.5161,0.4891,0.5173,0.4897,0.4187,0.4038,0.3832,0.3604,0.3604,0.3604,0.3604,0.3604,0.0,0.0,0.0,0.0,0.0,0.0,0.0,0.0,0.4237,0.4075,0.4078,0.3951,0.0,0.0,0.0,0.0,0.0,0.3273,0.3441,0.3604,0.3604,0.3604,0.3604,0.3604,0.3604,0.3593,0.3551,0.3587,0.3672,0.3853,0.3775,0.3596,0.3356,0.2692,0.1969,0.0,0.0,0.1891,0.0,0.0,0.0,0.0,0.0,0.0,0.0,0.0,0.0,0.0,0.0,0.0,0.0269,0.0067,0.0,0.0,0.0,0.0,0.0,0.0,0.0,0.0,0.0,0.0,0.0,0.0,0.0,0.0,0.0,0.0,0.0,0.0,0.0,0.0,0.0,0.0,-0.0157,0.0,0.0,0.0,0.0,0.0,0.0,0.0,0.0,0.0,0.0,0.0,0.0,0.0,0.0,0.0,0.0,0.0,0.0,0.0,0.0,0.3935,0.3897,0.3846,0.388,0.3991,0.4337,0.4576,0.4707,0.5058,0.5164,0.5002,0.4955,0.4609,0.4092,0.394,0.3778,0.3604,0.3604,0.3604,0.3604,0.0,0.0,0.0,0.0,0.0,0.0,0.0,0.0,0.0,0.0,0.3873,0.3674,0.3475,0.0,0.0,0.0,0.0,0.0,0.3074,0.3199,0.3371,0.3559,0.37,0.3819,0.3819,0.3819,0.3795,0.371,0.3758,0.3832,0.3887,0.395,0.4003,0.3999,0.0,0.2704,0.2343,0.0,0.0,0.0,0.0,0.0,0.0,0.0,0.0,0.0,0.0,0.0,0.0,0.0,0.0,0.0,0.0,0.0,0.0,0.0,0.0,0.0,0.0,0.0,0.0,0.0,0.0,0.0,0.0,0.0,0.0,0.0,0.0,0.0,0.0,0.0,0.0,0.0,-0.0706,-0.176,0.0,0.0,0.0,0.0,0.0,0.0,0.0,0.0,0.0,0.0,0.0,0.0,0.0,0.0,0.0,0.0,0.0,0.0,0.0,0.3809,0.3894,0.3846,0.3958,0.4028,0.4121,0.4409,0.4663,0.4938,0.515,0.5221,0.5176,0.4754,0.4338,0.3987,0.386,0.3737,0.3604,0.3604,0.3604,0.3604,0.0,0.0,0.0,0.0,0.0,0.0,0.0,0.0,0.0,0.0,0.0,0.0,0.0,0.0,0.0,0.2774,0.2781,0.2862,0.29,0.2993,0.3165,0.3459,0.367,0.3822,0.3964,0.3944,0.3904,0.3856,0.3938,0.3971,0.3914,0.4092,0.4334,0.447,0.4015,0.3566,0.0,0.0,0.0,0.0,0.0,0.0,0.0,0.0,0.0,0.0,0.0,0.0,0.0,0.0,0.0,0.0,0.0,0.0,0.0,0.0,0.0,0.0,0.0,0.0,0.0,0.0,0.0,0.0,0.0,0.0,0.0,0.0,0.0,0.0,0.0,0.0,0.0,0.0,-0.1175,-0.2773,0.0,0.0,0.0,0.0,0.0,0.0,0.0,0.0,0.0,0.0,0.0,0.0,0.0,0.0,0.0,0.0,0.0,0.0,0.0,0.3696,0.3731,0.3967,0.3991,0.4148,0.4453,0.4617,0.4819,0.5083,0.5542,0.5613,0.5368,0.4914,0.444,0.3987,0.386,0.3737,0.3604,0.3604,0.3604,0.3604,0.3604,0.0,0.0,0.0,0.0,0.0,0.0,0.0,0.0,0.0,0.0,0.0,0.0,0.0,0.2893,0.2744,0.2706,0.2744,0.2869,0.2993,0.3138,0.3283,0.3236,0.331,0.3869,0.3809,0.3709,0.3923,0.3987,0.4035,0.414,0.4341,0.4477,0.4487,0.446,0.0,0.0,0.0,0.0,0.0,0.0,0.0,0.0,0.0,0.0,0.0,0.0,0.0,0.0,0.0,0.0,0.0,0.0,0.0,0.0,0.0,0.0,0.0,0.0,0.0,0.0,0.0,0.0,0.0,0.0,0.0,0.0,0.0,0.0,0.0,0.0,0.0,0.0,0.0,-0.0706,-0.1841,0.0,0.0,0.0,0.0,0.0,0.0,0.0,0.0,0.0,0.0,0.0,0.0,0.0,0.0,0.0,0.0,0.0,0.0,0.0,0.3716,0.3761,0.3873,0.4035,0.419,0.4301,0.4715,0.5114,0.5416,0.5586,0.5515,0.5206,0.4638,0.4247,0.3984,0.3768,0.3651,0.3604,0.3604,0.3604,0.3604,0.3604,0.3853,0.0,0.0,0.0,0.0,0.0,0.0,0.0,0.0,0.2781,0.2883,0.2744,0.2784,0.2879,0.2744,0.2696,0.271,0.2768,0.294,0.3138,0.3269,0.3357,0.3514,0.3903,0.3984,0.4028,0.4253,0.432,0.4314,0.4372,0.4453,0.4491,0.4491,0.4491,0.0,0.0,0.0,0.0,0.0,0.0,0.0,0.0,0.0,0.0,0.0,0.0,0.0,0.0,0.0,0.0,0.0,0.0,0.0,0.0,0.0,0.0,0.0,0.0,0.0,0.0,0.0,0.0,0.0,0.0,0.0,0.0,0.0,0.0,0.0,0.0,0.0,0.0,0.0,-0.1058,-0.2579,0.0,0.0,0.0,0.0,0.0,0.0,0.0,0.0,0.0,0.0,0.0,0.0,0.0,0.0,0.0,0.0,0.0,0.0,0.3529,0.3598,0.3673,0.3724,0.3944,0.4146,0.4284,0.4732,0.5138,0.5443,0.5494,0.5362,0.5022,0.4523,0.421,0.4055,0.3782,0.3668,0.3665,0.3621,0.3604,0.3604,0.3604,0.3691,0.0,0.0,0.0,0.0,0.0,0.0,0.0,0.0,0.2768,0.2818,0.273,0.2771,0.2815,0.273,0.2764,0.2818,0.2818,0.2968,0.3151,0.335,0.3466,0.3621,0.3917,0.4075,0.4206,0.445,0.4491,0.4491,0.4491,0.4491,0.0,0.0,0.0,0.0,0.0,0.0,0.0,0.0,0.0,0.0,0.0,0.0,0.0,0.0,0.0,0.0,0.0,0.0,0.0,0.0,0.0,0.0,0.0,0.0,0.0,0.0,0.0,0.0,0.0,0.0,0.0,0.0,0.0,0.0,0.0,0.0,0.0,0.0,0.0,0.0,0.0,0.0,-0.1331,-0.3085,0.0,0.0,0.0,0.0,0.0,0.0,0.0,0.0,0.4274,0.447,0.4487,0.0,0.0,0.0,0.0,0.0,0.0,0.0,0.3392,0.333,0.3398,0.3593,0.374,0.4023,0.447,0.4634,0.483,0.51,0.5284,0.5238,0.4881,0.4631,0.4382,0.418,0.3927,0.3788,0.3778,0.3662,0.36,0.36,0.36,0.3395,0.3159,0.0,0.0,0.0,0.0,0.0,0.0,0.0,0.2696,0.2696,0.2696,0.2699,0.2699,0.2696,0.289,0.3101,0.3098,0.3101,0.3178,0.3525,0.3512,0.3523,0.3921,0.3998,0.4107,0.4429,0.4491,0.4491,0.4491,0.4491,0.0,0.0,0.0,0.0,0.0,0.0,0.0,0.0,0.0,0.0,0.0,0.0,0.0,0.0,0.0,0.0,0.0,0.0,0.0,0.0,0.0,0.0,0.0,0.0,0.0,0.0,0.0,0.0,0.0,0.0,0.0,0.0,0.0,0.0,0.0,0.0,0.0,0.0,0.0,0.0,0.0,0.0,-0.1292,-0.3085,0.0,0.0,0.0,0.0,0.0,0.0,0.0,0.0,0.4379,0.4294,0.4284,0.0,0.0,0.0,0.0,0.0,0.0,0.0,0.333,0.3306,0.335,0.3458,0.3679,0.3832,0.3866,0.409,0.449,0.51,0.5077,0.4948,0.4752,0.4341,0.4128,0.4055,0.388,0.3699,0.3523,0.3436,0.3419,0.3461,0.3398,0.3276,0.312,0.0,0.0,0.0,0.0,0.0,0.0,0.0,0.0,0.0,0.2696,0.2771,0.2818,0.273,0.2818,0.2947,0.2842,0.312,0.346,0.3464,0.3825,0.4167,0.4146,0.4153,0.421,0.445,0.4491,0.4491,0.4491,0.4491,0.0,0.0,0.0,0.0,0.0,0.0,0.0,0.0,0.0,0.0,0.0,0.0,0.0,0.0,0.0,0.0,0.0,0.0,0.0,0.0,0.0,0.0,0.0,0.0,0.0,0.0,0.0,0.0,0.0,0.0,0.0,0.0,0.0,0.0,0.0,0.0,0.0,0.0,0.0,0.0,0.0,0.0,-0.0862,-0.2152,0.0,0.0,0.0,0.0,0.0,0.0,0.4274,0.4433,0.4436,0.4214,0.4197,0.4142,0.0,0.0,0.0,0.3737,0.3508,0.3351,0.3306,0.3306,0.3354,0.3482,0.3689,0.3782,0.3754,0.4046,0.4358,0.4662,0.4635,0.4544,0.4419,0.4183,0.4085,0.4082,0.3991,0.3805,0.3546,0.3466,0.3405,0.3351,0.3309,0.3216,0.3101,0.0,0.0,0.0,0.0,0.0,0.0,0.0,0.0,0.0,0.2696,0.272,0.2761,0.2829,0.2946,0.3084,0.3188,0.3476,0.3761,0.3835,0.4068,0.4294,0.4328,0.4308,0.4358,0.447,0.4491,0.4491,0.4491,0.0,0.0,0.0,0.0,0.0,0.0,0.0,0.0,0.0,0.0,0.0,0.0,0.0,0.0,0.0,0.0,0.0,0.0,0.0,0.0,0.0,0.0,0.0,0.0,0.0,0.0,0.0,0.0,0.0,0.0,0.0,0.0,0.0,0.0,0.0,0.0,0.0,0.0,0.0,0.0,0.0,0.0,0.0,-0.0667,-0.1762,0.0,0.0,0.0,0.0,0.0,0.0,0.4443,0.4491,0.4433,0.4223,0.4174,0.4085,0.0,0.0,0.0,0.3614,0.3418,0.3306,0.3306,0.3306,0.3398,0.3593,0.3731,0.3877,0.3991,0.4296,0.429,0.3954,0.4119,0.4132,0.3998,0.4136,0.4174,0.4174,0.416,0.4011,0.3764,0.3607,0.3439,0.3266,0.3266,0.3185,0.3081,0.3081,0.0,0.0,0.0,0.0,0.0,0.0,0.0,0.0,0.2682,0.2606,0.2582,0.2944,0.3168,0.3376,0.3802,0.3954,0.4083,0.4382,0.4239,0.4131,0.4426,0.4491,0.4491,0.4491,0.0,0.4491,0.4491,0.0,0.0,0.0,0.0,0.0,0.0,0.0,0.0,0.0,0.0,0.0,0.0,0.0,0.0,0.0,0.0,0.0,0.0,0.0,0.0,0.0,0.0,0.0,0.0,0.0,0.0,0.0,0.0,0.0,0.0,0.0,0.0,0.0,0.0,0.0,0.0,0.0,0.0,0.0,0.0,0.0,0.0,0.0,-0.0628,-0.1606,0.0,0.0,0.0,0.0,0.0,0.0,0.4443,0.4491,0.4395,0.4078,0.4045,0.3933,0.3679,0.3648,0.0,0.3607,0.3418,0.3306,0.3306,0.3306,0.3398,0.3593,0.3832,0.396,0.3994,0.3965,0.3873,0.3676,0.3913,0.4028,0.3994,0.4028,0.4045,0.4038,0.3941,0.3747,0.3471,0.3164,0.3035,0.2986,0.2986,0.2966,0.2936,0.2936,0.2842,0.0,0.0,0.0,0.0,0.0,0.0,0.0,0.2572,0.2592,0.2658,0.2637,0.2869,0.3172,0.3266,0.3637,0.4011,0.41,0.4243,0.4412,0.4477,0.4491,0.4491,0.4491,0.4491,0.0,0.0,0.0,0.0,0.0,0.0,0.0,0.0,0.0,0.0,0.0,0.0,0.0,0.0,0.0,0.0,0.0,0.0,0.0,0.0,0.0,0.0,0.0,0.0,0.0,0.0,0.0,0.0,0.0,0.0,0.0,0.0,0.0,0.0,0.0,0.0,0.0,0.0,0.0,0.0,0.0,0.0,0.0,0.0,0.0,-0.0157,-0.051,0.0,0.0,0.0,0.0,0.0,0.0,0.0,0.0,0.4409,0.4132,0.4041,0.3934,0.3707,0.3645,0.0,0.0,0.3507,0.3438,0.3438,0.3438,0.3558,0.3782,0.4073,0.4165,0.3998,0.387,0.3687,0.3448,0.3526,0.3603,0.3677,0.3751,0.3846,0.3907,0.3826,0.3651,0.3379,0.3107,0.2953,0.2892,0.2892,0.2892,0.2892,0.2892,0.2815,0.2696,0.2696,0.0,0.0,0.0,0.0,0.0,0.0,0.0,0.2496,0.2648,0.2802,0.2988,0.3344,0.3701,0.4028,0.4195,0.4375,0.4491,0.4491,0.4491,0.4491,0.4491,0.4491,0.0,0.0,0.0,0.0,0.0,0.0,0.0,0.0,0.0,0.0,0.0,0.0,0.0,0.0,0.0,0.0,0.0,0.0,0.0,0.0,0.0,0.0,0.0,0.0,0.0,0.0,0.0,0.0,0.0,0.0,0.0,0.0,0.0,0.0,0.0,0.0,0.0,0.0,0.0,0.0,0.0,0.0,0.0,0.0,0.0,0.0,-0.0157,0.0,0.0,0.0,0.0,0.0,0.0,0.0,0.0,0.0,0.4214,0.4089,0.3937,0.3809,0.3686,0.3604,0.0,0.0,0.0,0.3604,0.3624,0.3737,0.3984,0.4256,0.427,0.4001,0.3846,0.3609,0.3269,0.3138,0.3141,0.3273,0.3493,0.3679,0.3788,0.3737,0.3578,0.3358,0.313,0.2978,0.2869,0.2869,0.2869,0.2869,0.2869,0.2791,0.2696,0.2696,0.2696,0.2696,0.2696,0.0,0.0,0.0,0.0,0.2278,0.2636,0.272,0.2832,0.3453,0.3785,0.4056,0.4409,0.4491,0.4491,0.4491,0.4491,0.4491,0.4491,0.0,0.0,0.0,0.0,0.0,0.0,0.0,0.0,0.0,0.0,0.0,0.0,0.0,0.0,0.0,0.0,0.0,0.0,0.0,0.0,0.0,0.0,0.0739,0.0034,0.0,0.0,0.0,0.0,0.0,0.0,0.0,0.0,0.0,0.0,0.0,0.0,0.0,0.0,0.0,0.0,0.0,0.0,-0.0196,-0.0157,-0.0039,-0.0196,-0.0157,-0.0118,0.0,0.0,0.0,0.0,0.0,0.0,0.0,0.0,0.0,0.0,0.4089,0.3937,0.3809,0.3686,0.3604,0.3604,0.3604,0.3604,0.3604,0.0,0.0,0.3987,0.4031,0.4035,0.3994,0.3748,0.3459,0.3131,0.299,0.2993,0.3138,0.3446,0.3679,0.3782,0.3502,0.3343,0.3283,0.2913,0.2744,0.2727,0.2727,0.2727,0.2727,0.2727,0.2716,0.2696,0.2696,0.2696,0.2696,0.2696,0.2696,0.0,0.0,0.0,0.0,0.2137,0.2391,0.272,0.2819,0.3337,0.3924,0.4382,0.4491,0.4491,0.4491,0.4491,0.4491,0.0,0.0,0.0,0.0,0.0,0.0,0.0,0.0,0.0,0.0,0.0,0.0,0.0,0.0,0.0,0.0,0.0,0.0,0.0,0.0,0.0,0.0,0.0168,0.0135,0.0,0.0,0.0,0.0,0.0,0.0,0.0,0.0,0.0,0.0,0.0,0.0,0.0,0.0,0.0,0.0,0.0,0.0,-0.0079,-0.102,-0.0824,-0.0118,-0.1058,-0.0784,-0.0039,0.0,0.0,0.0,0.0,0.0,0.0,0.0,0.0,0.0,0.0,0.0,0.4065,0.3934,0.3788,0.3632,0.3441,0.3531,0.3604,0.3604,0.3737,0.3822,0.3887,0.395,0.3917,0.3778,0.3539,0.3283,0.2983,0.2852,0.2896,0.3108,0.3327,0.3531,0.3682,0.3337,0.3182,0.3159,0.2835,0.2696,0.2696,0.2696,0.2795,0.291,0.2761,0.2798,0.2907,0.2757,0.2696,0.2696,0.2696,0.2696,0.2658,0.244,0.0,0.0,0.0,0.215,0.243,0.2956,0.3501,0.4005,0.4399,0.4491,0.4491,0.4491,0.4491,0.4491,0.0,0.0,0.0,0.0,0.0,0.0,0.0,0.0,0.0,0.0,0.0,0.0,0.0,0.0,0.0,0.0,0.0,0.0,0.0,0.0,0.0,0.0034,0.0,0.0,0.0,0.0,0.0,0.0,0.0,0.0,0.0,0.0,0.0,0.0,0.0,0.0,0.0,0.0,0.0,0.0,0.0,0.0,-0.0039,-0.051,-0.0432,-0.0039,-0.051,-0.0392,0.0,0.0,0.0,0.0,0.0,0.0,0.0,0.0,0.0,0.0,0.0,0.0,0.4119,0.4008,0.0,0.0,0.0,0.349,0.3604,0.3604,0.3703,0.3754,0.3788,0.3866,0.3788,0.3549,0.335,0.3128,0.2852,0.2754,0.2832,0.3104,0.3199,0.3374,0.359,0.3341,0.3172,0.3084,0.2849,0.2757,0.2764,0.2839,0.2981,0.3148,0.3063,0.3158,0.328,0.2927,0.2818,0.2825,0.2689,0.2654,0.263,0.2476,0.2296,0.0,0.0,0.0,0.2133,0.2994,0.3447,0.3778,0.4214,0.4348,0.4399,0.0,0.0,0.0,0.0,0.0,0.0,0.0,0.0,0.0,0.0,0.0,0.0,0.0,0.0,0.0,0.0,0.0,0.0,0.0,0.0,0.0,0.0,0.0,0.0,0.0034,0.0,0.0,0.0,0.0,0.0,0.0,0.0,0.0,0.0,0.0,0.0,0.0,0.0,0.0,0.0,0.0,0.0,0.0,0.0,0.0,-0.0039,-0.0314,-0.0235,-0.0039,-0.0316,-0.0238,0.0,0.0,0.0,0.0,0.0,0.0,0.0,0.0,0.0,0.0,0.0,0.0,0.4004,0.3994,0.3765,0.3524,0.3323,0.349,0.3604,0.3604,0.361,0.3672,0.3785,0.3692,0.0,0.3409,0.3212,0.2969,0.271,0.2699,0.2832,0.3101,0.3111,0.3293,0.3604,0.3587,0.3395,0.3091,0.2943,0.2896,0.292,0.3241,0.3324,0.334,0.3772,0.3937,0.3873,0.3286,0.3172,0.3189,0.2688,0.2511,0.2469,0.2282,0.2117,0.1979,0.0,0.0,0.0,0.2563,0.2751,0.2942,0.3646,0.3934,0.4117,0.0,0.0,0.0,0.0,0.0,0.0,0.0,0.0,0.0,0.0,0.0,0.0,0.0,0.0,0.0,0.0,0.0,0.0,0.0,0.0,0.0,0.0,0.0,0.0,0.0,0.0,0.0,0.0,0.0,0.0,0.0,0.0,0.0,0.0,0.0,0.0,0.0,0.0,0.0,0.0,0.0,0.0,0.0,0.0,0.0,-0.0118,-0.1137,-0.0902,-0.0118,-0.1126,-0.0892,0.0,0.0,0.0,0.0,0.0,0.0,0.0,0.0,0.0,0.0,0.0,0.0,0.0,0.0,0.3697,0.3517,0.3323,0.336,0.3451,0.3593,0.3604,0.3624,0.3675,0.3628,0.3484,0.3208,0.3128,0.2978,0.2696,0.2613,0.2706,0.2966,0.2966,0.3042,0.3154,0.3246,0.3259,0.3206,0.2907,0.2818,0.2937,0.3272,0.3484,0.364,0.3896,0.4138,0.4276,0.3843,0.3548,0.3337,0.31,0.2788,0.2473,0.2268,0.2107,0.1981,0.1839,0.1863,0.2018,0.2455,0.2692,0.2937,0.3416,0.3768,0.4024,0.4155,0.4351,0.0,0.0,0.0,0.0,0.0,0.0,0.0,0.0,0.0,0.0,0.0,0.0,0.0,0.0,0.0,0.0,0.0,0.0,0.0,0.0,0.0,0.0,0.0,0.0,0.0,0.0,0.0,0.0,0.0,0.0,0.0,0.0,0.0,0.0,0.0,0.0,0.0,0.0,0.0,0.0,0.0,0.0,0.0,-0.0039,-0.0432,-0.0357,-0.0121,-0.1294,-0.1474,-0.1165,0.0,0.0,0.0,0.0,0.0,0.0,0.0,0.0,0.4197,0.4197,0.0,0.0,0.0,0.0,0.3537,0.3414,0.3336,0.335,0.3497,0.35,0.348,0.3429,0.3425,0.3307,0.3037,0.303,0.2903,0.2637,0.2549,0.2589,0.2774,0.2774,0.2812,0.2892,0.29,0.299,0.3149,0.2973,0.2934,0.3,0.347,0.373,0.3836,0.4213,0.4423,0.0,0.0,0.0,0.0,0.0,0.3232,0.2884,0.2541,0.2204,0.1913,0.1822,0.1867,0.1977,0.2201,0.2426,0.2703,0.3122,0.3316,0.3513,0.3976,0.0,0.0,0.0,0.0,0.0,0.0,0.0,0.0,0.0,0.0,0.0,0.0,0.0,0.0,0.0,0.0,0.0,0.0,0.0,0.0,0.0,0.0,0.0,0.0,0.0,0.0,0.0,0.0,0.0,0.0,0.0,0.0,0.0,0.0,0.0,0.0,0.0,0.0,0.0,0.0,0.0,0.0,0.0,0.0,0.0,0.0,0.0,-0.0163,-0.1362,-0.18,-0.1871,0.0,0.0,0.0,0.0,0.0,0.0,0.4491,0.4341,0.4197,0.4197,0.0,0.0,0.0,0.0,0.0,0.3604,0.3425,0.3316,0.3306,0.3306,0.3239,0.3108,0.3101,0.3034,0.2895,0.2892,0.2778,0.2498,0.2494,0.2491,0.2491,0.2487,0.2634,0.2858,0.2613,0.2647,0.2889,0.3155,0.3199,0.3165,0.3869,0.4024,0.39,0.4753,0.0,0.0,0.4304,0.422,0.0,0.3917,0.0,0.0,0.0,0.2374,0.1803,0.1803,0.1806,0.1809,0.0,0.0,0.0,0.2727,0.0,0.0,0.3838,0.0,0.0,0.0,0.0,0.0,0.0,0.0,0.0,0.0,0.0,0.0,0.0,0.0,0.0,0.0,0.0,0.0,0.0,0.0,0.0,0.0,0.0,0.0,0.0,0.0,0.0,0.0,0.0,0.0,0.0,0.0,0.0,0.0,0.0,0.0,0.0,0.0,0.0,0.0,0.0,0.0,0.0,0.0,0.0,0.0,0.0,0.0,-0.0164,-0.1409,-0.1864,-0.2044,0.0,0.0,0.0,0.0,0.0,0.4491,0.4491,0.4341,0.4197,0.0,0.0,0.0,0.3802,0.3754,0.3713,0.361,0.3636,0.3556,0.3323,0.3306,0.3239,0.3108,0.3101,0.3034,0.2895,0.2892,0.2778,0.2498,0.235,0.2282,0.2282,0.2184,0.2225,0.2395,0.2476,0.2457,0.2398,0.2482,0.2733,0.3118,0.3327,0.3687,0.0,0.0,0.0,0.0,0.0,0.4843,0.4555,0.0,0.3934,0.3165,0.0,0.2038,0.1803,0.1803,0.1873,0.1923,0.1822,0.0,0.0,0.0,0.0,0.0,0.0,0.0,0.0,0.0,0.0,0.0,0.0,0.0,0.0,0.0,0.0,0.0,0.0,0.0,0.0,0.0,0.0,0.0,0.0,0.0,0.0,0.0,0.0,0.0,0.0,0.0,0.0,0.0,0.0,0.0,0.0,0.0,0.0,0.0,0.0,0.0,0.0,0.0,0.0,0.0,0.0,0.0,0.0,0.0,0.0,0.0,0.0,0.0,-0.0251,-0.2317,-0.3104,-0.3277,0.0,0.0,0.4491,0.4491,0.4491,0.4491,0.4491,0.4341,0.4197,0.0,0.0,0.0,0.3897,0.3944,0.3924,0.3778,0.3782,0.3666,0.3326,0.3249,0.3138,0.2947,0.2937,0.29,0.2815,0.2815,0.2666,0.2379,0.2251,0.2147,0.2032,0.1957,0.1982,0.2117,0.2177,0.2211,0.2187,0.2077,0.2376,0.0,0.3394,0.0,0.0,0.4667,0.4921,0.0,0.0,0.0,0.4718,0.4938,0.427,0.0,0.0,0.0,0.196,0.1896,0.1972,0.2073,0.1982,0.2077,0.2181,0.0,0.0,0.0,0.0,0.0,0.0,0.0,0.0,0.0,0.0,0.0,0.0,0.0,0.0,0.0,0.0,0.0,0.0,0.0,0.0,0.0,0.0,0.0,0.0,0.0,0.0,0.0,0.0,0.0,0.0,0.0,0.0,0.0,0.0,0.0,0.0,0.0,0.0,0.0,0.0,0.0,0.0,0.0,0.0,0.0,0.0,0.0,0.0,0.0,0.0,0.0,-0.0214,-0.2136,-0.2831,-0.3083,0.0,0.0,0.4491,0.4491,0.4491,0.4491,0.4491,0.4355,0.4244,0.0,0.4129,0.4055,0.4092,0.4186,0.419,0.4055,0.3914,0.3683,0.3329,0.3165,0.2988,0.271,0.2696,0.2696,0.2696,0.2696,0.2537,0.2197,0.2197,0.207,0.1803,0.1803,0.1867,0.1977,0.1853,0.1933,0.2144,0.1933,0.2184,0.2805,0.3701,0.3971,0.0,0.0,0.4863,0.0,0.5013,0.4989,0.4849,0.5201,0.4682,0.0,0.0,0.0,0.0,0.0,0.2164,0.2303,0.2251,0.2258,0.2327,0.257,0.0,0.0,0.0,0.0,0.0,0.0,0.0,0.0,0.0,0.0,0.0,0.0,0.0,0.0,0.0,0.0,0.0,0.0,0.0,0.0,0.0,0.0,0.0,0.0134,0.0,0.0,0.0,0.0,0.0,0.0,0.0,0.0,0.0,0.0,0.0,0.0,0.0,0.0,0.0,0.0,0.0,0.0,0.0,0.0,0.0,0.0,0.0,0.0,0.0,0.0,-0.0131,-0.1334,-0.179,-0.2147,0.4484,0.4491,0.4491,0.4491,0.4491,0.4491,0.4491,0.4467,0.445,0.445,0.4423,0.4498,0.4688,0.4548,0.4436,0.4406,0.4131,0.3775,0.3336,0.3165,0.2988,0.271,0.2696,0.2696,0.2696,0.2696,0.2537,0.2197,0.2197,0.207,0.1803,0.1803,0.182,0.1836,0.1805,0.1826,0.1882,0.2056,0.0,0.2883,0.3067,0.0,0.418,0.4619,0.4975,0.5228,0.5317,0.5313,0.5221,0.0,0.4631,0.4228,0.0,0.0,0.0,0.2385,0.0,0.2988,0.2556,0.2607,0.2658,0.0,0.0,0.0,0.0,0.0,0.0,0.0,0.0,0.0,0.0,0.0,0.0,0.0,0.0,0.0,0.0,0.0,0.0,0.0,0.0,0.0,0.0,0.0,0.1136,0.0065,0.0,0.0,0.0,0.0,0.0,0.0,0.0,0.0,0.0,0.0,0.0,0.0,0.0,0.0,0.0,0.0,0.0,0.0,0.0,0.0,0.0,0.0,0.0,0.0,0.0,0.0,-0.0131,-0.1334,-0.179,-0.2013,0.4491,0.4491,0.4491,0.4491,0.4491,0.4491,0.4491,0.4491,0.4518,0.4593,0.4704,0.4799,0.4806,0.4735,0.4658,0.4505,0.4192,0.3866,0.3566,0.3266,0.3007,0.2805,0.2737,0.2696,0.2696,0.2696,0.2537,0.2197,0.2197,0.207,0.1803,0.1803,0.1967,0.2232,0.194,0.2003,0.2333,0.2174,0.234,0.2744,0.3253,0.0,0.4483,0.4884,0.5197,0.5395,0.5395,0.5395,0.5347,0.5013,0.4711,0.0,0.0,0.3741,0.3554,0.0,0.298,0.3253,0.0,0.0,0.0,0.2612,0.0,0.0,0.0,0.0,0.0,0.0,0.0,0.0,0.0,0.0,0.0,0.0,0.0,0.0,0.0,0.0,0.0,0.0,0.0,0.0,0.0,0.0,0.094,0.0066,0.0,0.0,0.0,0.0,0.0,0.0,0.0,0.0,0.0,0.0,0.0,0.0,0.0,0.0,0.0,0.0,0.0,0.0,0.0,0.0,0.0,0.0,0.0,0.0,0.0,0.0,-0.0089,-0.067,-0.0897,-0.1076,0.4491,0.4491,0.4491,0.4491,0.4491,0.4491,0.4491,0.4491,0.4556,0.4711,0.4942,0.4992,0.484,0.4931,0.4894,0.4644,0.4348,0.409,0.3849,0.347,0.3165,0.3046,0.2839,0.2768,0.2826,0.2713,0.2506,0.2197,0.2167,0.2039,0.1803,0.1803,0.2067,0.2508,0.2133,0.2262,0.2737,0.2339,0.0,0.2887,0.0,0.4185,0.4522,0.5092,0.531,0.5324,0.544,0.5481,0.545,0.5237,0.0,0.4638,0.4494,0.425,0.0,0.0,0.0,0.0,0.0,0.0,0.0,0.0,0.0,0.2411,0.0,0.0,0.0,0.0,0.0,0.0,0.0,0.0,0.0,0.0,0.0,0.0,0.0,0.0,0.0,0.0,0.0,0.0,0.0,0.0,0.0764,0.0067,0.0,0.0,0.0,0.0,0.0,0.0,0.0,0.0,0.0,0.0,0.0,0.0,0.0,0.0,0.0,0.0,0.0,0.0,0.0,0.0,0.0,0.0,0.0,0.0,0.0,0.0,0.0,0.0,0.0,-0.0135,0.4491,0.4491,0.4491,0.4491,0.4491,0.4491,0.4491,0.4491,0.4593,0.4857,0.4891,0.503,0.5293,0.5334,0.5276,0.5039,0.4877,0.4554,0.4004,0.3819,0.3653,0.3532,0.3107,0.3027,0.331,0.2802,0.2416,0.2197,0.2077,0.1947,0.1803,0.1803,0.184,0.1926,0.2385,0.2479,0.2308,0.0,0.3266,0.0,0.4001,0.3812,0.0,0.4596,0.4969,0.5036,0.5562,0.5752,0.5708,0.0,0.5334,0.5177,0.0,0.457,0.4756,0.3812,0.0,0.0,0.0,0.0,0.0,0.0,0.337,0.0,0.0,0.0,0.0,0.0,0.0,0.0,0.0,0.0,0.0,0.0,0.0,0.0,0.0,0.0,0.0,0.0,0.0,0.0,0.0,0.0,0.0,0.0,0.0,0.0,0.0,0.0,0.0,0.0,0.0,0.0,0.0,0.0,0.0,0.0,0.0,0.0,0.0,0.0,0.0,0.0,0.0,0.0,0.0,0.0,0.0,0.0,0.0,0.0,0.0,0.0,0.0,0.0,0.4491,0.4491,0.4491,0.4491,0.4491,0.4491,0.4491,0.4709,0.4867,0.4884,0.5145,0.5321,0.5392,0.5281,0.5237,0.526,0.0,0.4746,0.0,0.0,0.3914,0.3617,0.3293,0.3121,0.3116,0.2778,0.2484,0.2197,0.2073,0.193,0.1803,0.1803,0.2027,0.2442,0.2624,0.29,0.3246,0.0,0.3331,0.0,0.0,0.0,0.0,0.4901,0.543,0.5464,0.5711,0.58,0.5783,0.0,0.5443,0.0,0.0,0.0,0.0,0.0,0.0,0.0,0.0,0.0,0.0,0.0,0.0,0.0,0.2694,0.0,0.1895,0.0,0.0,0.0,0.0,0.0,0.0,0.0,0.0,0.0,0.0,0.0,0.0,0.0,0.0,0.0,0.0,0.0,0.0,0.0,0.0,0.0,0.0,0.0,0.0,0.0,0.0,0.0,0.0,0.0,0.0,0.0,0.0,0.0,0.0,0.0,0.0,0.0,0.0,0.0,0.0,0.0,0.0,0.0,0.0,0.0,0.0,0.0,0.0,0.0,0.4491,0.4491,0.4491,0.4491,0.4491,0.4491,0.4491,0.4738,0.4942,0.4891,0.5203,0.541,0.5457,0.5359,0.5359,0.5504,0.5325,0.5125,0.0,0.0,0.4277,0.4016,0.3603,0.333,0.3195,0.2839,0.2493,0.2197,0.2029,0.1889,0.1803,0.1803,0.2088,0.2605,0.274,0.3185,0.3802,0.0,0.3676,0.3795,0.406,0.418,0.4312,0.5324,0.5783,0.5925,0.5925,0.5925,0.5915,0.583,0.5583,0.0,0.5603,0.0,0.0,0.0,0.0,0.0,0.4195,0.0,0.0,0.0,0.0,0.0,0.0,0.0,0.0,0.0,0.0,0.0,0.0,0.0,0.0,0.0,0.0,0.0,0.0,0.0,0.0,0.0,0.0,0.0,0.0,0.0,0.0,0.0,0.0,0.0,0.0,0.0,0.0,0.0,0.0,0.0,0.0,0.0,0.0,0.0,0.0,0.0,0.0,0.0,0.0,0.0,0.0,0.0,0.0,0.0,0.0,0.0,0.0,0.0,0.0,0.0,0.0,0.0,0.4491,0.4491,0.4491,0.4491,0.4491,0.4491,0.4491,0.4501,0.4617,0.0,0.0,0.0,0.0,0.0,0.0,0.0,0.0,0.5806,0.5402,0.0,0.4921,0.5046,0.4111,0.37,0.0,0.3,0.2402,0.2197,0.1937,0.1809,0.1803,0.1803,0.1816,0.1867,0.272,0.3185,0.3366,0.3929,0.4692,0.5484,0.517,0.5521,0.6146,0.0,0.5774,0.6286,0.6286,0.0,0.0,0.5901,0.5793,0.0,0.0,0.0,0.0,0.0,0.0,0.0,0.0,0.0,0.0,0.3822,0.0,0.0,0.0,0.0,0.2857,0.0,0.0,0.0,0.0,0.0,0.0,0.0,0.0,0.0,0.0,0.0,0.0,0.0,0.0,0.0,0.0,0.0,0.0,0.0,0.0,0.0,0.0,0.0,0.0,0.0,0.0,0.0,0.0,0.0,0.0,0.0,0.0,0.0,0.0,0.0,0.0,0.0,0.0,0.0,0.0,0.0,0.0,0.0,0.0,0.0,0.0,0.0,0.0,0.0,0.4491,0.4491,0.446,0.4338,0.4294,0.4355,0.4474,0.4662,0.0,0.0,0.0,0.0,0.0,0.543,0.5586,0.0,0.0,0.5922,0.5671,0.5376,0.0,0.0,0.0,0.3998,0.0,0.328,0.2727,0.2396,0.2079,0.1933,0.193,0.1839,0.1964,0.2294,0.2852,0.3019,0.0,0.0,0.0,0.0,0.0,0.5464,0.5956,0.0,0.0,0.63,0.63,0.63,0.0,0.618,0.5969,0.582,0.5962,0.5754,0.5501,0.561,0.5586,0.0,0.0,0.0,0.5169,0.4392,0.0,0.0,0.0,0.0,0.0,0.0,0.0,0.0,0.0,0.0,0.0,0.0,0.0,0.0,0.0,0.0,0.0,0.0,0.0,0.0,0.0,0.0,0.0,0.0,0.0,0.0,0.0,0.0,0.0,0.0,0.0,0.0,0.0,0.0,0.0,0.0,0.0,0.0,0.0,0.0,0.0,0.0,0.0,0.0,0.0,0.0,0.0,0.0,0.0,0.0,0.0,0.0,0.0,0.0,0.4153,0.4255,0.4372,0.4304,0.4297,0.4355,0.0,0.0,0.0,0.0,0.4517,0.0,0.397,0.0,0.5155,0.0,0.5549,0.6023,0.5817,0.5623,0.0,0.5301,0.4793,0.0,0.0,0.0,0.3168,0.2788,0.2379,0.214,0.2073,0.1933,0.2058,0.2409,0.2788,0.2858,0.2799,0.4187,0.4382,0.0,0.0,0.5705,0.0,0.0,0.6231,0.0,0.0,0.63,0.63,0.63,0.6166,0.6,0.6238,0.603,0.5754,0.5908,0.5866,0.5692,0.5583,0.5589,0.0,0.4829,0.4555,0.0,0.3509,0.0,0.0,0.0,0.0,0.0,0.0,0.0,0.0,0.0,0.0,0.0,0.0,0.0,0.0,0.0,0.0,0.0,0.0,0.0,0.0,0.0,0.0,0.0,0.0,0.0,0.0,0.0,0.0,0.0,0.0,0.0,0.0,0.0,0.0,0.0,0.0,0.0,0.0,0.0,0.0,0.0,0.0,0.0,0.0,0.0,0.0,0.0,0.0,0.0,0.0,0.0,0.3541,0.3779,0.4167,0.4409,0.4457,0.0,0.0,0.0,0.3385,0.0,0.2973,0.2604,0.2819,0.3849,0.4531,0.4598,0.5667,0.0,0.5844,0.581,0.0,0.0,0.5315,0.5113,0.512,0.0,0.0,0.0,0.2768,0.2396,0.2194,0.2076,0.2077,0.2234,0.2557,0.0,0.273,0.4256,0.4855,0.4882,0.5906,0.6289,0.6279,0.6293,0.0,0.584,0.6187,0.63,0.63,0.63,0.63,0.63,0.63,0.63,0.63,0.63,0.63,0.6235,0.5905,0.5823,0.5684,0.5104,0.0,0.0,0.0,0.0,0.4119,0.0,0.0,0.0,0.0,0.0,0.0,0.0,0.0,0.0,0.0,0.0,0.0,0.0,0.0,0.0,0.0,0.0,0.0,0.0,0.0,0.0,0.0,0.0,0.0,0.0,0.0,0.0,0.0,0.0,0.0,0.0,0.0,0.0,0.0,0.0,0.0,0.0,0.0,0.0,0.0,0.0,0.0,0.0,0.0,0.0,0.0,0.0,0.0,0.0,0.3428,0.3019,0.2897,0.0,0.3989,0.4338,0.0,0.0,0.0,0.0,0.3092,0.2456,0.1969,0.3563,0.4344,0.3589,0.5237,0.0,0.0,0.0,0.0,0.6119,0.5617,0.5355,0.5471,0.448,0.0,0.352,0.0,0.0,0.2197,0.2171,0.2241,0.2441,0.2717,0.2402,0.1802,0.3964,0.5268,0.5906,0.6183,0.616,0.0,0.0,0.6108,0.584,0.6187,0.63,0.63,0.63,0.63,0.63,0.63,0.63,0.63,0.63,0.63,0.6282,0.6201,0.618,0.6088,0.5671,0.541,0.517,0.0,0.0,0.0,0.0,0.0,0.0,0.0,0.0,0.0,0.0,0.0,0.0,0.0,0.0,0.0,0.0,0.0,0.0,0.0,0.0,0.0,0.0,0.0,0.0,0.0,0.0,0.0,0.0,0.0,0.0,0.0,0.0,0.0,0.0,0.0,0.0,0.0,0.0,0.0,0.0,0.0,0.0,0.0,0.0,0.0,0.0,0.0,0.0,0.0,0.0,0.0,0.0,0.3456,0.3327,0.0,0.3325,0.0,0.0,0.3984,0.0,0.0,0.2594,0.1969,0.0,0.0946,0.274,0.3748,0.3163,0.5079,0.0,0.0,0.0,0.0,0.6095,0.59,0.5832,0.5917,0.5111,0.0,0.3989,0.0,0.0,0.2413,0.2364,0.2389,0.2511,0.0,0.2423,0.1729,0.3694,0.5089,0.6023,0.6221,0.0,0.0,0.6235,0.619,0.6027,0.6238,0.63,0.63,0.63,0.63,0.63,0.63,0.63,0.63,0.63,0.63,0.63,0.63,0.63,0.6255,0.6081,0.5914,0.5696,0.5294,0.5145,0.4999,0.0,0.0,0.0,0.0,0.0,0.0,0.0,0.0,0.0,0.0,0.0,0.0,0.0,0.0,0.0,0.0,0.0,0.0,0.0,0.0,0.0,0.0,0.0,0.0,0.0,0.0,0.0,0.0,0.0,0.0,0.0,0.0,0.0,0.0,0.0,0.0,0.0,0.0,0.0,0.0,0.0,0.0,0.0,0.0,0.0,0.0,0.0,0.0,0.0,0.3423,0.388,0.0,0.0,0.0,0.0,0.0,0.1909,0.0,0.1114,0.0,0.0,0.0,0.1868,0.3085,0.3085,0.0,0.6187,0.5878,0.6149,0.618,0.5874,0.6156,0.63,0.63,0.5835,0.0,0.0,0.0,0.0,0.2638,0.2537,0.2487,0.2469,0.0,0.0,0.0,0.3535,0.4668,0.0,0.6143,0.63,0.63,0.63,0.63,0.63,0.63,0.63,0.63,0.63,0.63,0.63,0.63,0.63,0.63,0.63,0.63,0.63,0.63,0.63,0.63,0.63,0.63,0.6197,0.5801,0.5661,0.5572,0.5272,0.4573,0.0,0.0,0.0,0.0,0.0,0.0,0.0,0.0,0.0,0.0,0.0,0.0,0.0,0.0,0.0,0.0,0.0,0.0,0.0,0.0,0.0,0.0,0.0,0.0,0.0,0.0,0.0,0.0,0.0,0.0,0.0,0.0,0.0,0.0,0.0,0.0,0.0,0.0,0.0,0.0,0.0,0.0,0.0,0.0,0.0,0.0,0.0,0.2789,0.2774,0.2785,0.0,0.0,0.1511,0.148,0.1272,0.11,0.111,0.0451,0.0,0.0,0.1868,0.3085,0.3085,0.5079,0.0,0.0,0.0,0.0,0.6221,0.6272,0.63,0.63,0.5733,0.5126,0.0,0.0,0.3171,0.2288,0.2438,0.2406,0.2275,0.0,0.0,0.4229,0.4052,0.0,0.6187,0.6269,0.63,0.63,0.63,0.63,0.63,0.63,0.63,0.63,0.63,0.63,0.63,0.63,0.63,0.63,0.63,0.63,0.63,0.63,0.63,0.63,0.63,0.63,0.6279,0.6201,0.6044,0.5902,0.5848,0.5547,0.5045,0.431,0.0,0.0,0.0,0.0,0.0,0.0,0.0,0.0,0.0,0.0,0.0,0.0,0.0,0.0,0.0,0.0,0.0,0.0,0.0,0.0,0.0,0.0,0.0,0.0,0.0,0.0,0.0,0.0,0.0,0.0,0.0,0.0,0.0,0.0,0.0,0.0,0.0,0.0,0.0,0.0,0.0,0.0,0.0,0.0,0.0,0.3814,0.3425,0.2991,0.0,0.0,0.0,0.0,0.0534,0.0,0.0522,0.0225,0.0,0.0,0.1923,0.3166,0.3088,0.5134,0.6378,0.6306,0.63,0.63,0.63,0.63,0.0,0.63,0.6013,0.545,0.4607,0.0,0.3563,0.2568,0.259,0.2508,0.2371,0.0,0.3592,0.0,0.0,0.0,0.5969,0.6204,0.63,0.63,0.63,0.63,0.63,0.63,0.63,0.63,0.63,0.63,0.63,0.63,0.63,0.63,0.63,0.63,0.63,0.63,0.63,0.63,0.63,0.63,0.63,0.63,0.6242,0.6129,0.601,0.5882,0.556,0.4712,0.3902,0.0,0.0,0.0,0.0,0.0,0.0,0.0,0.0,0.0,0.0,0.0,0.0,0.0,0.0,0.0,0.0,0.0,0.0,0.0,0.0,0.0,0.0,0.0,0.0,0.0,0.0,0.0,0.0,0.0,0.0,0.0,0.0,0.0,0.0,0.0,0.0,0.0,0.0,0.0,0.0,0.0,0.0,0.0,0.0,0.47,0.4204,0.0,0.0,0.1678,0.0,0.0117,0.0,0.0,0.0,0.0,0.0,0.0,0.1956,0.3278,0.3176,0.5239,0.6515,0.6402,0.6392,0.6392,0.6392,0.6361,0.6344,0.6344,0.6317,0.5829,0.0,0.0,0.0,0.0,0.2781,0.2699,0.0,0.0,0.0,0.0,0.0,0.5644,0.5798,0.6156,0.63,0.6303,0.6334,0.6327,0.6303,0.6334,0.6327,0.63,0.63,0.63,0.63,0.63,0.63,0.63,0.63,0.63,0.63,0.63,0.63,0.63,0.63,0.63,0.63,0.63,0.63,0.6265,0.6105,0.6016,0.5774,0.5063,0.4314,0.0,0.0,0.0,0.0,0.0,0.0,0.0,0.0,0.0,0.0,0.0,0.0,0.0,0.0,0.0,0.0,0.0,0.0,0.0,0.0,0.0,0.0,0.0,0.0,0.0,0.0,0.0,0.0,0.0,0.0,0.0,0.0,0.0,0.0,0.0,0.0,0.0,0.0,0.0,0.0,0.0,0.0,0.0,0.0,0.0,0.0,0.0,0.0,0.0,0.0,0.0,0.0,0.0,0.0,0.0,0.0,0.0,0.196,0.3338,0.3371,0.5419,0.6675,0.6661,0.6661,0.6661,0.6661,0.6525,0.6494,0.6494,0.6364,0.5982,0.0,0.0,0.0,0.0,0.2876,0.0,0.0,0.0,0.0,0.0,0.5491,0.5859,0.6242,0.6282,0.63,0.6313,0.6443,0.6412,0.6317,0.6446,0.6409,0.63,0.63,0.63,0.63,0.63,0.63,0.63,0.63,0.63,0.63,0.63,0.63,0.63,0.63,0.63,0.63,0.63,0.63,0.6296,0.6282,0.6129,0.5804,0.5191,0.5258,0.4858,0.0,0.0,0.0,0.0,0.0,0.0,0.0,0.0,0.0,0.0,0.0,0.0,0.0,0.0,0.0,0.0,0.0,0.0,0.0,0.0,0.0,0.0,0.0,0.0,0.0,0.0,0.0,0.0,0.0,0.0,0.0,0.0,0.0,0.0,0.0,0.0,0.0,0.0,0.0,0.0,0.0,0.0,0.0,0.0,0.0,0.0,0.0,0.0,0.0,0.0,0.0,0.0,0.0,0.0,0.0,0.0,0.2097,0.3444,0.3397,0.551,0.68,0.6705,0.6702,0.6702,0.6702,0.6644,0.661,0.661,0.6556,0.6274,0.0,0.0,0.0,0.0,0.0,0.0,0.0,0.0,0.5054,0.5423,0.5849,0.6136,0.63,0.63,0.6351,0.6433,0.6491,0.6535,0.6519,0.6525,0.6474,0.6416,0.6327,0.63,0.63,0.63,0.63,0.63,0.63,0.63,0.63,0.63,0.63,0.63,0.63,0.63,0.63,0.63,0.63,0.63,0.63,0.6139,0.5919,0.5679,0.544,0.4805,0.0,0.0,0.0,0.0,0.0,0.0,0.0,0.0,0.0,0.0,0.0,0.0,0.0,0.0,0.0,0.0,0.0,0.0,0.0,0.0,0.0,0.0,0.0,0.0,0.0,0.0,0.0,0.0,0.0,0.0,0.0,0.0,0.0,0.0,0.0,0.0,0.0,0.0,0.0,0.0,0.0,0.0,0.0,0.3699,0.0,0.1235,0.0,0.0424,0.0,0.0,0.0,0.0,0.0,0.0,0.0,0.0,0.2145,0.3561,0.3462,0.5583,0.6903,0.6837,0.6831,0.6831,0.6831,0.679,0.0,0.6766,0.6722,0.6546,0.6188,0.5534,0.0,0.0,0.0,0.0,0.0,0.5313,0.56,0.575,0.618,0.6388,0.6429,0.6429,0.6491,0.6546,0.659,0.6647,0.6692,0.6627,0.6576,0.6525,0.6463,0.6429,0.6416,0.6327,0.63,0.63,0.63,0.63,0.63,0.63,0.63,0.63,0.63,0.63,0.63,0.63,0.63,0.63,0.63,0.6173,0.6098,0.6098,0.5676,0.499,0.3885,0.0,0.0,0.0,0.0,0.0,0.0,0.0,0.0,0.0,0.0,0.0,0.0,0.0,0.0,0.0,0.0,0.0,0.0,0.0,0.0,0.0,0.0,0.0,0.0,0.0,0.0,0.0,0.0,0.0,0.0,0.0,0.0,0.0,0.0,0.0,0.0,0.0,0.0,0.0,0.0,0.0,0.0,0.1746,0.1301,0.1022,0.0178,0.0,0.0,0.0,0.0,0.0,0.0,0.0,0.0,0.0,0.2147,0.3612,0.3612,0.575,0.7092,0.7092,0.7092,0.7092,0.0,0.0,0.6883,0.6883,0.6776,0.6698,0.6692,0.0,0.0,0.5772,0.5292,0.5277,0.5583,0.5732,0.6044,0.6501,0.6508,0.6556,0.6695,0.6695,0.6698,0.6715,0.6865,0.6831,0.6719,0.6868,0.6827,0.6698,0.6695,0.6695,0.6644,0.6392,0.63,0.63,0.63,0.63,0.63,0.63,0.63,0.63,0.63,0.63,0.63,0.63,0.63,0.63,0.63,0.6296,0.6296,0.6296,0.6129,0.5888,0.5602,0.0,0.0,0.0,0.0,0.0,0.0,0.0,0.0,0.0,0.0,0.0,0.0,0.0,0.0,0.0,0.0,0.0,0.0,0.0,0.0,0.0,0.0,0.0,0.0,0.0,0.0,0.0,0.0,0.0,0.0,0.0,0.0,0.0,0.0,0.0,0.0,0.0,0.0,0.0,0.0,0.0,0.0,0.1924,0.0967,0.0309,0.0045,0.0,0.0,0.0,0.0,0.0,0.0,0.0,0.0,0.0,0.2147,0.3614,0.0,0.5753,0.7095,0.0,0.7095,0.7095,0.7095,0.7051,0.7028,0.7028,0.6984,0.6957,0.6957,0.0,0.0,0.0,0.5774,0.5959,0.6349,0.6393,0.6495,0.6627,0.6627,0.6658,0.6702,0.6702,0.6763,0.6861,0.6866,0.6916,0.695,0.6903,0.6856,0.6841,0.6736,0.6702,0.6685,0.659,0.6528,0.6446,0.6446,0.6375,0.63,0.63,0.63,0.63,0.63,0.63,0.63,0.63,0.63,0.63,0.63,0.63,0.63,0.63,0.6259,0.5924,0.511,0.3873,0.0,0.0,0.0,0.0,0.0,0.0,0.0,0.0,0.0,0.0,0.0,0.0,0.0,0.0,0.0,0.0,0.0,0.0,0.0,0.0,0.0,0.0,0.0,0.0,0.0,0.0,0.0,0.0,0.0,0.0,0.0,0.0,0.0,0.0,0.0,0.0,0.0,0.0,0.0,0.0,0.0,0.1433,0.0539,0.0,0.0,0.0,0.0,0.0,0.0,0.0,0.0,0.0,0.018,0.0628,0.2413,0.0,0.3614,0.5753,0.7095,0.7095,0.7095,0.7095,0.7095,0.7095,0.7095,0.7095,0.0,0.0,0.7095,0.677,0.6542,0.6407,0.6407,0.6525,0.6787,0.6787,0.6787,0.6787,0.6787,0.6817,0.6865,0.6865,0.6879,0.6964,0.6964,0.7018,0.7085,0.6997,0.6964,0.695,0.6898,0.6865,0.6865,0.6865,0.6763,0.662,0.6545,0.6412,0.63,0.63,0.63,0.63,0.63,0.63,0.63,0.63,0.63,0.63,0.63,0.63,0.63,0.63,0.63,0.6064,0.5395,0.4062,0.2876,0.2261,0.0,0.0,0.0,0.0,0.0,0.0,0.0,0.0,0.0,0.0,0.0,0.0,0.0,0.0,0.0,0.0,0.0,0.0,0.0,0.0,0.0,0.0,0.0,0.0,0.0,0.0,0.0,0.0,0.0,0.0,0.0,0.0,0.0,0.0,0.0,0.0,0.0,0.0,0.0,0.0584,0.0045,0.0,0.0,0.0,0.0,0.0,0.0,0.0045,0.0135,0.0135,0.0584,0.179,0.2992,0.3703,0.3703,0.0,0.0,0.0,0.7095,0.7095,0.7095,0.7095,0.0,0.7095,0.7095,0.7095,0.7095,0.7095,0.7095,0.7095,0.7095,0.7024,0.69,0.69,0.69,0.69,0.69,0.6977,0.7095,0.7095,0.7095,0.7095,0.7095,0.7095,0.7095,0.7095,0.7095,0.7095,0.7095,0.7095,0.7095,0.7095,0.7001,0.6829,0.6573,0.6426,0.6313,0.6303,0.63,0.63,0.63,0.63,0.63,0.63,0.63,0.63,0.63,0.63,0.63,0.63,0.63,0.63,0.63,0.4569,0.3202,0.3124,0.0,0.0,0.0,0.0,0.0,0.0,0.0,0.0,0.0,0.0,0.0,0.0,0.0,0.0,0.0,0.0,0.0,0.0,0.0,0.0,0.0,0.0,0.0,0.0,0.0,0.0,0.0,0.0,0.0,0.0,0.0,0.0,0.0,0.0,0.0,0.0,0.0,0.0,0.0,0.0,0.0,0.0,0.0,0.0,0.0,0.0,0.0,0.0314,0.1254,0.1389,0.1835,0.3037,0.4241,0.4954,0.4954,0.6293,0.7095,0.7095,0.7095,0.7095,0.7095,0.7095,0.7095,0.7095,0.7095,0.7095,0.7095,0.7095,0.7095,0.7095,0.7095,0.7078,0.7048,0.7048,0.7048,0.7048,0.7048,0.7065,0.7095,0.7095,0.7095,0.7095,0.7095,0.7095,0.7095,0.7095,0.7095,0.7095,0.7095,0.7095,0.7095,0.7095,0.7001,0.6849,0.6702,0.6539,0.6436,0.633,0.63,0.63,0.63,0.63,0.63,0.63,0.63,0.63,0.63,0.63,0.63,0.63,0.63,0.63,0.63,0.5196,0.4021,0.3202,0.2034,0.0,0.0,0.0,0.0,0.0,0.0,0.0,0.0,0.0,0.0,0.0,0.0,0.0,0.0,0.0,0.0,0.0,0.0,0.0,0.0,0.0,0.0,0.0,0.0,0.0,0.0,0.0,0.0,0.0,0.0,0.0,0.0,0.0,0.0,0.0,0.0,0.0,0.0,0.2255,0.1373,0.0728,0.0091,0.0,0.0,0.0,0.0,0.0449,0.1657,0.179,0.2459,0.4241,0.5001,0.5628,0.6115,0.6738,0.7095,0.7095,0.7095,0.7095,0.7095,0.7095,0.7095,0.7095,0.7095,0.7095,0.7095,0.7095,0.7095,0.7095,0.7095,0.7095,0.7095,0.7095,0.7095,0.7095,0.7095,0.7095,0.7095,0.7095,0.7095,0.7095,0.7095,0.7095,0.7095,0.7095,0.7095,0.7095,0.7095,0.7095,0.7095,0.7095,0.7045,0.6953,0.6848,0.6647,0.6494,0.6419,0.6351,0.63,0.63,0.63,0.63,0.63,0.63,0.63,0.63,0.63,0.63,0.63,0.63,0.63,0.63,0.5002,0.3748,0.3202,0.18,0.0,0.0079,0.0,0.0,0.0,0.0,0.0,0.0,0.0,0.0,0.0,0.0,0.0,0.0,0.0,0.0,0.0,0.0,0.0,0.0,0.0,0.0,0.0,0.0,0.0,0.0,0.0,0.0,0.0,0.0,0.0,0.0,0.0,0.0,0.0,0.0,0.0,0.0,0.2379,0.1831,0.1346,0.0186,0.0,0.0091,0.0272,0.0317,0.0815,0.2212,0.2393,0.3247,0.5499,0.5726,0.6129,0.7073,0.7166,0.7146,0.7098,0.7095,0.7095,0.7095,0.7095,0.7095,0.7095,0.7095,0.7095,0.7095,0.7095,0.7095,0.7095,0.7095,0.7095,0.7095,0.7095,0.7095,0.7095,0.7095,0.7095,0.7095,0.7095,0.7095,0.7095,0.7095,0.7095,0.7095,0.7095,0.7095,0.7095,0.7095,0.7095,0.7095,0.7095,0.7095,0.7071,0.6953,0.6763,0.6576,0.6552,0.6443,0.633,0.633,0.6317,0.63,0.63,0.63,0.63,0.63,0.63,0.63,0.63,0.63,0.6244,0.6081,0.4547,0.3232,0.29,0.0,0.0196,0.0,0.0,0.0,0.0,0.0,0.0,0.0,0.0,0.0,0.0,0.0,0.0,0.0,0.0,0.0,0.0,0.0,0.0,0.0,0.0,0.0,0.0,0.0,0.0,0.0,0.0,0.0,0.0,0.0,0.0,0.0,0.0,0.0,0.0,0.0,0.0,0.0,0.1903,0.0998,0.0237,0.0047,0.0,0.0378,0.151,0.1698,0.2545,0.4886,0.5167,0.5733,0.7103,0.7246,0.734,0.7529,0.7529,0.7417,0.7112,0.7095,0.7095,0.7095,0.7095,0.7095,0.7095,0.7095,0.7095,0.7095,0.7095,0.7095,0.7095,0.7095,0.7095,0.7095,0.7095,0.7095,0.7095,0.7095,0.7095,0.7095,0.7095,0.7095,0.7095,0.7095,0.7095,0.7095,0.7095,0.7095,0.7095,0.7095,0.7095,0.7095,0.7095,0.7095,0.7092,0.7068,0.6947,0.6831,0.6702,0.6556,0.6477,0.6477,0.6388,0.63,0.63,0.63,0.63,0.63,0.63,0.63,0.63,0.63,0.602,0.5099,0.4677,0.3851,0.2071,0.0,0.102,0.0118,0.0,0.0,0.0,0.0,0.0,0.0,0.0,0.0,0.0,0.0,0.0,0.0,0.0,0.0,0.0,0.0,0.0,0.0,0.0,0.0,0.0,0.0,0.0,0.0,0.0,0.0,0.0,0.0,0.0,0.0,0.0,0.0,0.0,0.0,0.0,0.0,0.206,0.146,0.087,0.0145,0.0576,0.1285,0.1903,0.1999,0.2899,0.5454,0.5169,0.5454,0.7409,0.76,0.76,0.76,0.6929,0.678,0.7351,0.7387,0.7387,0.7387,0.7309,0.7224,0.7098,0.7095,0.7095,0.7095,0.7095,0.7095,0.7095,0.7095,0.7095,0.7095,0.7095,0.7095,0.7095,0.7095,0.7095,0.7095,0.7095,0.7095,0.7095,0.7095,0.7095,0.7095,0.7095,0.7095,0.7095,0.7095,0.7095,0.7095,0.7095,0.7095,0.7095,0.7095,0.6997,0.6852,0.6742,0.6651,0.6576,0.6532,0.6463,0.6395,0.6317,0.63,0.63,0.63,0.63,0.63,0.63,0.63,0.6136,0.5651,0.4579,0.0,0.0,0.1445,0.056,0.004,0.0,0.0,0.0,0.0,0.0,0.0,0.0,0.0,0.0,0.0,0.0,0.0,0.0,0.0,0.0,0.0,0.0,0.0,0.0,0.0,0.0,0.0,0.0,0.0,0.0,0.0,0.0,0.0,0.0,0.0,0.0,0.0,0.0,0.0,0.0,0.0,0.1762,0.1543,0.1232,0.0198,0.1121,0.2122,0.2409,0.2458,0.337,0.596,0.4855,0.4808,0.741,0.712,0.6879,0.7219,0.6297,0.6008,0.6733,0.7362,0.7672,0.7604,0.7489,0.7353,0.7152,0.7149,0.7132,0.7095,0.7095,0.7095,0.7095,0.7095,0.7095,0.7095,0.7095,0.7095,0.7095,0.7095,0.7095,0.7095,0.7095,0.7095,0.7095,0.7095,0.7095,0.7095,0.7095,0.7095,0.7095,0.7095,0.7095,0.7095,0.7095,0.7095,0.7095,0.7095,0.7018,0.691,0.6834,0.6776,0.6725,0.6607,0.6552,0.6538,0.6426,0.6402,0.6402,0.6402,0.6402,0.6402,0.6402,0.6402,0.63,0.6074,0.0,0.0,0.0,0.1165,0.0,0.0,0.0,0.0,0.0,0.0,0.0,0.0,0.0,0.0,0.0,0.0,0.0,0.0,0.0,0.0,0.0,0.0,0.0,0.0,0.0,0.0,0.0,0.0,0.0,0.0,0.0,0.0,0.0,0.0,0.0,0.0,0.0,0.0,0.0,0.0,0.0,0.0,0.0151,0.0151,0.0101,0.0,0.1105,0.2404,0.3651,0.3851,0.48,0.7502,0.5598,0.4999,0.7657,0.5748,0.475,0.6004,0.6006,0.5501,0.4349,0.66,0.7837,0.7611,0.759,0.7512,0.7402,0.7398,0.7285,0.7095,0.7095,0.7095,0.7095,0.7095,0.7095,0.7095,0.7095,0.7095,0.7095,0.7095,0.7095,0.7095,0.7095,0.7095,0.7095,0.7095,0.7095,0.7095,0.7095,0.7095,0.7095,0.7095,0.7095,0.7095,0.7095,0.7095,0.7095,0.7095,0.7088,0.7078,0.7065,0.6967,0.6866,0.6856,0.679,0.6681,0.6671,0.6668,0.6668,0.6668,0.6668,0.6668,0.6668,0.6668,0.6332,0.5355,0.0,0.0,0.201,0.0816,0.0,0.0,0.0,0.0,0.0,0.0,0.0,0.0,0.0,0.0,0.0,0.0,0.0,0.0,0.0,0.0,0.0,0.0,0.0,0.0,0.0,0.0,0.0,0.0,0.0,0.0,0.0,0.0,0.0,0.0,0.0,0.0,0.0,0.0,0.0,0.0,0.0,0.0,0.0,0.0,0.0,0.0,0.1109,0.2163,0.2665,0.2764,0.3416,0.527,0.3917,0.3466,0.532,0.4616,0.4216,0.4718,0.4019,0.4019,0.5172,0.5422,0.6202,0.7644,0.7729,0.7662,0.7516,0.7512,0.7482,0.7424,0.7424,0.7377,0.7285,0.7285,0.7231,0.7095,0.7095,0.7095,0.7095,0.7095,0.7095,0.7095,0.7095,0.7095,0.7095,0.7095,0.7095,0.7095,0.7095,0.7095,0.7095,0.7095,0.7095,0.7095,0.7095,0.7095,0.7095,0.7095,0.7095,0.7095,0.7095,0.7058,0.6994,0.6906,0.6842,0.6817,0.6722,0.6702,0.6702,0.6702,0.6702,0.6702,0.6702,0.6702,0.6579,0.614,0.0,0.3165,0.2826,0.1178,0.0,0.0,0.0,0.0,0.0,0.0,0.0,0.0,0.0,0.0,0.0,0.0,0.0,0.0,0.0,0.0,0.0,0.0,0.0,0.0,0.0,0.0,0.0,0.0,0.0,0.0,0.0,0.0,0.0,0.0,0.0,0.0,0.0,0.0,0.0,0.0,0.0,0.0,0.0,0.0,0.0,0.0,0.1109,0.2013,0.2013,0.2013,0.2464,0.3815,0.2464,0.2063,0.3815,0.3265,0.2914,0.3316,0.2914,0.3217,0.4672,0.467,0.5589,0.7788,0.7882,0.7814,0.7668,0.7665,0.7645,0.76,0.76,0.7546,0.7444,0.7444,0.7387,0.724,0.724,0.724,0.724,0.724,0.724,0.7233,0.7231,0.7214,0.7207,0.7112,0.7095,0.7095,0.7095,0.7095,0.7095,0.7095,0.7095,0.7095,0.7095,0.7095,0.7095,0.7095,0.7095,0.7095,0.7095,0.7095,0.7071,0.6974,0.6953,0.6923,0.6861,0.6841,0.6841,0.6841,0.6841,0.6841,0.6841,0.6841,0.6841,0.6841,0.5214,0.3848,0.3505,0.1779,0.0439,0.0044,0.0,0.0,0.0,0.0,0.0,0.0,0.0,0.0,0.0,0.0,0.0,0.0,0.0,0.0,0.0,0.0,0.0,0.0,0.0,0.0,0.0,0.0,0.0,0.0,0.0,0.0,0.0,0.0,0.0,0.0,0.0,0.0,0.0,0.0,0.0,0.0,0.0,0.0,0.0,0.0,0.1109,0.1963,0.1963,0.1963,0.2464,0.3815,0.1661,0.1008,0.3665,0.1611,0.0555,0.1862,0.3215,0.3416,0.2113,0.4522,0.6631,0.7939,0.7988,0.7921,0.7818,0.7814,0.7743,0.7604,0.7604,0.7604,0.76,0.76,0.76,0.76,0.76,0.76,0.76,0.76,0.76,0.7587,0.7434,0.7419,0.7356,0.7156,0.7098,0.7095,0.7095,0.7095,0.7095,0.7095,0.7095,0.7095,0.7095,0.7095,0.7095,0.7095,0.7095,0.7095,0.7095,0.7095,0.7095,0.7095,0.7095,0.7095,0.7095,0.7095,0.7095,0.7095,0.7095,0.7095,0.7095,0.7095,0.7095,0.7095,0.6115,0.4954,0.3748,0.2547,0.1344,0.0135,0.0,0.0,0.0,0.0,0.0,0.0,0.0,0.0,0.0,0.0,0.0,0.0,0.0,0.0,0.0,0.0,0.0,0.0,0.0,0.0,0.0,0.0,0.0,0.0,0.0,0.0,0.0,0.0,0.0,0.0,0.0,0.0,0.0,0.0,0.0,0.0,0.0,0.0,0.0,0.0,0.0353,0.0605,0.0605,0.0605,0.0756,0.1159,0.0504,0.0303,0.1109,0.0454,0.0151,0.0555,0.1812,0.3217,0.4722,0.6429,0.7587,0.7988,0.7988,0.7968,0.7924,0.7921,0.7901,0.786,0.786,0.7851,0.7746,0.7746,0.7695,0.76,0.76,0.76,0.76,0.76,0.76,0.7597,0.755,0.7468,0.7412,0.7319,0.7234,0.7095,0.7095,0.7095,0.7095,0.7095,0.7095,0.7095,0.7095,0.7095,0.7095,0.7095,0.7095,0.7095,0.7095,0.7095,0.7095,0.7095,0.7095,0.7095,0.7095,0.7095,0.7095,0.7095,0.7095,0.7095,0.7095,0.7095,0.7095,0.7095,0.5442,0.4016,0.3659,0.1835,0.0404,0.0045,0.0,0.0,0.0,0.0,0.0,0.0,0.0,0.0,0.0,0.0,0.0,0.0,0.0,0.0,0.0,0.0,0.0,0.0,0.0,0.0,0.0,0.0,0.0,0.0,0.0,0.0,0.0,0.0,0.0,0.0,0.0,0.0,0.0,0.0,0.0,0.0,0.0,0.0,0.0,0.0,0.0,0.0,0.0,0.0,0.0,0.0,0.0,0.0,0.0,0.0,0.0202,0.0756,0.2515,0.4472,0.6631,0.7537,0.7988,0.7988,0.7988,0.7988,0.7988,0.7988,0.7988,0.7988,0.7988,0.7941,0.7899,0.7899,0.7855,0.7773,0.7773,0.7773,0.7773,0.7773,0.7773,0.777,0.7706,0.7628,0.7539,0.7485,0.7366,0.7231,0.7231,0.7146,0.7095,0.7095,0.7095,0.7095,0.7095,0.7095,0.7095,0.7095,0.7095,0.7095,0.7095,0.7095,0.7095,0.7095,0.7095,0.7095,0.7095,0.7095,0.7095,0.7095,0.6738,0.6561,0.7007,0.6738,0.6428,0.6428,0.522,0.3972,0.3037,0.1612,0.0539,0.0045,0.0,0.0,0.0,0.0,0.0,0.0,0.0,0.0,0.0,0.0,0.0,0.0,0.0,0.0,0.0,0.0,0.0,0.0,0.0,0.0,0.0,0.0,0.0,0.0,0.0,0.0,0.0,0.0,0.0,0.0,0.0,0.0,0.0,0.0,0.0,0.0,0.0,0.0,0.0,0.0,0.0,0.0,0.0,0.0,0.0,0.0,0.0101,0.0202,0.0202,0.0303,0.0857,0.2063,0.4522,0.6581,0.7889,0.7988,0.7988,0.7988,0.7988,0.7988,0.7988,0.7988,0.7988,0.7988,0.7988,0.7988,0.7988,0.7988,0.7988,0.7988,0.7988,0.7988,0.7988,0.7988,0.7988,0.7978,0.7889,0.7824,0.7797,0.7668,0.7526,0.7436,0.7422,0.7282,0.7112,0.7102,0.7095,0.7095,0.7095,0.7095,0.7095,0.7095,0.7095,0.7095,0.7095,0.7095,0.7095,0.7095,0.7095,0.7095,0.7095,0.7007,0.6962,0.6962,0.6027,0.5536,0.6602,0.5935,0.5225,0.5225,0.5134,0.4332,0.2102,0.1701,0.121,0.0135,0.0,0.0,0.0,0.0,0.0,0.0,0.0,0.0,0.0,0.0,0.0,0.0,0.0,0.0,0.0,0.0,0.0,0.0,0.0,0.0,0.0,0.0,0.0,0.0,0.0,0.0,0.0,0.0,0.0,0.0,0.0,0.0,0.0,0.0,0.0,0.0,0.0,0.0,0.0,0.0,0.0,0.0,0.0,0.0,0.0,0.0,0.0907,0.1561,0.1561,0.2514,0.3265,0.3566,0.5072,0.6581,0.7889,0.7988,0.7988,0.7988,0.7988,0.7988,0.7988,0.7988,0.7988,0.7988,0.7988,0.7988,0.7988,0.7988,0.7988,0.7988,0.7988,0.7988,0.7988,0.7988,0.7988,0.7985,0.7955,0.7919,0.7807,0.7777,0.7675,0.7536,0.7414,0.735,0.7302,0.7136,0.7095,0.7095,0.7095,0.7095,0.7095,0.7095,0.7095,0.7095,0.7095,0.7095,0.7095,0.7095,0.7095,0.7095,0.7095,0.6425,0.5761,0.5761,0.4819,0.4061,0.4328,0.415,0.3972,0.3972,0.3217,0.2415,0.1879,0.0986,0.0314,0.0045,0.0,0.0,0.0,0.0,0.0,0.0,0.0,0.0,0.0,0.0,0.0,0.0,0.0,0.0,0.0,0.0,0.0,0.0,0.0,0.0,0.0,0.0,0.0,0.0,0.0,0.0,0.0,0.0,0.0,0.0,0.0,0.0,0.0,0.0,0.0,0.0,0.0,0.0,0.0,0.0,0.0,0.0,0.0,0.0,0.0,0.0,0.1159,0.2013,0.2013,0.3215,0.4268,0.492,0.6176,0.7235,0.7939,0.7988,0.7988,0.7988,0.7988,0.7988,0.7988,0.7988,0.7988,0.7988,0.7988,0.7988,0.7988,0.7988,0.7988,0.7988,0.7988,0.7988,0.7988,0.7988,0.7988,0.7988,0.7988,0.7941,0.787,0.787,0.7828,0.7689,0.7611,0.7492,0.735,0.7146,0.7095,0.7095,0.7095,0.7095,0.7095,0.7095,0.7095,0.7095,0.7095,0.7095,0.7095,0.7095,0.7095,0.6962,0.6425,0.6248,0.5891,0.4776,0.4061,0.3614,0.3614,0.3126,0.2726,0.2726,0.2191,0.1612,0.1031,0.0404,0.0,0.0,0.0,0.0,0.0,0.0,0.0,0.0,0.0,0.0,0.0,0.0,0.0,0.0,0.0,0.0,0.0,0.0,0.0,0.0,0.0,0.0,0.0,0.0,0.0,0.0,0.0,0.0,0.0,0.0,0.0,0.0,0.0,0.0,0.0101,0.0706,0.0958,0.0958,0.0303,0.0353,0.0404,0.0656,0.0504,0.0353,0.0353,0.0151,0.0,0.0,0.136,0.2364,0.2364,0.3767,0.512,0.6229,0.7335,0.7988,0.7988,0.7988,0.7988,0.7988,0.7988,0.7988,0.7988,0.7988,0.7988,0.7988,0.7988,0.7988,0.7988,0.7988,0.7988,0.7988,0.7988,0.7988,0.7988,0.7988,0.7988,0.7988,0.7988,0.7988,0.7988,0.7988,0.7911,0.7845,0.7821,0.7638,0.739,0.7261,0.7156,0.7136,0.7136,0.7119,0.7095,0.7095,0.7095,0.7095,0.7095,0.7095,0.7095,0.7095,0.7095,0.6786,0.5669,0.6115,0.6245,0.4328,0.3748,0.3525,0.3347,0.2458,0.1746,0.1522,0.1478,0.1165,0.0135,0.0,0.0,0.0,0.0,0.009,0.0271,0.0136,0.0,0.0,0.0,0.0,0.0,0.0,0.0,0.0,0.0,0.0,0.0,0.0,0.0,0.0,0.0,0.0,0.0,0.0,0.0,0.0,0.0,0.0,0.0,0.0,0.0,0.0,0.0,0.0,0.0151,0.1511,0.2013,0.2013,0.1511,0.1712,0.2113,0.3265,0.2514,0.1712,0.1712,0.0756,0.0,0.0,0.2163,0.3715,0.3715,0.5974,0.7534,0.7736,0.7889,0.7988,0.7988,0.7988,0.7988,0.7988,0.7988,0.7988,0.7988,0.7988,0.7988,0.7988,0.7988,0.7988,0.7988,0.7988,0.7988,0.7988,0.7988,0.7988,0.7988,0.7988,0.7988,0.7988,0.7988,0.7988,0.7988,0.7988,0.7978,0.7941,0.7858,0.7706,0.7567,0.7546,0.7451,0.7339,0.7339,0.7248,0.7095,0.7095,0.7095,0.7095,0.7095,0.7095,0.7095,0.7095,0.7095,0.6786,0.5669,0.5536,0.5536,0.5223,0.433,0.326,0.2236,0.1924,0.1478,0.0404,0.0225,0.018,0.0045,0.0,0.0,0.0,0.0,0.0407,0.147,0.0599,0.0,0.0,0.0,0.0,0.0,0.0,0.0,0.0,0.0,0.0,0.0,0.0,0.0,0.0,0.0,0.0,0.0,0.0,0.0,0.0,0.0,0.0,0.0,0.0,0.0,0.0,0.0,0.0,0.0151,0.1511,0.2013,0.2163,0.1862,0.2614,0.3316,0.3915,0.2914,0.2013,0.2013,0.0857,0.0252,0.1008,0.2815,0.4268,0.5022,0.683,0.7988,0.7988,0.7988,0.7988,0.7988,0.7988,0.7988,0.7988,0.7988,0.7988,0.7988,0.7988,0.7988,0.7988,0.7988,0.7988,0.7988,0.7988,0.7988,0.7988,0.7988,0.7988,0.7988,0.7988,0.7988,0.7988,0.7988,0.7988,0.7988,0.7988,0.7988,0.7971,0.7865,0.777,0.7706,0.7628,0.7553,0.7499,0.7499,0.7394,0.7272,0.7272,0.7207,0.7095,0.7095,0.7095,0.7095,0.7095,0.7095,0.6962,0.647,0.6337,0.598,0.4685,0.4508,0.4241,0.3037,0.2236,0.1612,0.1076,0.0449,0.0,0.0,0.0,0.0,0.0,0.0,0.023,0.0751,0.0329,0.0,0.0,0.0,0.0,0.0,0.0,0.0,0.0,0.0,0.0,0.0,0.0,0.0,0.0,0.0,0.0,0.0,0.0,0.0,0.0,0.0,0.0,0.0,0.0,0.0,0.0,0.0,0.0454,0.126,0.2614,0.3115,0.3316]}]]